     2              OBSERVATION DATA    G (GPS)             RINEX VERSION / TYPE
ASRINEXO V2.4.4 UX USGS 26-AUG-96 15:09                     PGM / RUN BY / DATE
Crustal Strain Project                                      COMMENT
U.S. Geological Survey, Menlo Park, California 94025        COMMENT
345 Middlefield Road, MS/977                                COMMENT
Contact: kwendt@isdmnl.wr.usgs.gov (Ph: 415-329-4866)       COMMENT
HI's are vertical to base of antenna                        COMMENT
cam4 Camas_2_rm4_1987_USFS                                  MARKER NAME
CHS USGS                                                    OBSERVER / AGENCY
707 ASHTECH Z-XII3 1F00                                     REC # / TYPE / VERS
11404 ASH700718B NONE                                       ANT # / TYPE
 -2597838.0000 -3883781.0000  4328322.0000                  APPROX POSITION XYZ
        1.3530        0.0000        0.0000                  ANTENNA: DELTA H/E/N
     1     1                                                WAVELENGTH FACT L1/2
     5    C1    L1    L2    P1    P2                        # / TYPES OF OBSERV
    30                                                      INTERVAL
  1996     8    11    14    37    0.000000                  TIME OF FIRST OBS
                                                            END OF HEADER
 96  8 11 14 37  0.0000000  0  2  4  9
  17860401.475        8443.78119
                  18701478.763
 96  8 11 14 37 30.0000000  0  5 24  4  5  7  9
  17566369.014      -52507.58119    -33600.86859                  17566375.3464
  17866027.999       38015.93059     24861.28659  17866028.2184   17866032.6054
  17497641.689      -42664.69719    -27291.64959                  17497650.5824
  20486644.215       67492.68519                                  18412459.319
                     63900.62219     38791.62259                  18412464.9544
 96  8 11 14 38  0.0000000  0  1  4
  21169452.382       68012.61449     48235.30249  21169453.4534   21169457.6944
 96  8 11 14 38 30.0000000  0  5 24  4  5  7  9
  20845640.046     -149436.44559   -109129.83849  20845642.5964   20845647.9484
  21175250.206       98475.78659     71972.84159  21175250.9814   21175254.6944
  20775823.814     -145337.97259   -107296.82849  20775825.4074   20775830.2584
  23814199.766      224325.08859    163649.61959  23814200.1904   23814203.4024
  21731920.601      178170.72159    127833.20149  21731923.4234   21731928.4274
 96  8 11 14 39  0.0000000  0  5 24  4  5  7  9
  20836541.872     -197269.63259   -146402.44359  20836539.7824   20836545.7954
  21181131.099      129392.77049     96063.99249  21181133.5354   21181137.8564
  20766127.203     -196302.68859   -147009.57959  20766127.1684   20766132.5514
  23829112.482      302698.80459    224720.00959  23829114.3004   23829118.8234
  21742898.179      235848.54359    172776.94959  21742898.4754   21742902.5404
 96  8 11 14 39 30.0000000  0  5 24  4  5  7  9
  20827518.603     -244654.97349   -183326.07649  20827522.9904   20827528.4074
  21187102.233      160761.17049    120506.88649  21187103.0424   21187107.5164
  20756484.986     -246972.15349   -186492.28249  20756485.3174   20756490.4124
  23844020.473      381038.84249    285764.15649  23844021.9524   23844026.5484
  21753941.077      293884.35549    217999.66549  21753942.5734   21753946.4574
 96  8 11 14 40  0.0000000  0  5 24  4  5  7  9
  20818596.772     -291566.56949   -219880.55249  20818595.6774   20818601.7244
  21193157.084      192596.79449    145313.86749  21193161.2474   21193165.3964
  20746899.389     -297334.10849   -225735.35449  20746901.1054   20746906.1254
  23858923.562      459361.38549    346794.68049  23858926.6504   23858931.4104
  21765057.656      352295.31449    263514.66849  21765057.3034   21765062.0134
 96  8 11 14 40 30.0000000  0  5 24  4  5  7  9
  20809761.877     -337980.02749   -256046.87049  20809763.3994   20809769.0224
  21199314.753      224931.10949    170509.42749  21199314.1044   21199318.3894
  20737379.195     -347376.96549   -264729.78849  20737379.0044   20737383.2724
  23873829.065      537697.03949    407835.39049  23873832.7884   23873837.2454
  21776248.659      411109.07749    309343.56249  21776250.6534   21776254.5094
 96  8 11 14 41  0.0000000  0  5 24  4  5  7  9
  20801031.155     -383858.53849   -291796.36149  20801033.4574   20801038.8034
  21205566.108      257805.15849    196125.56549  21205570.0884   21205573.5784
  20727924.114     -397053.74349   -303438.96849  20727925.6644   20727929.4354
  23888745.668      616077.88249    468911.34149  23888748.7394   23888752.8594
  21787523.443      470354.88949    355509.10149  21787525.0774   21787529.0314
 96  8 11 14 41 30.0000000  0  5 24  4  5  7  9
  20792407.439     -429181.41849   -327112.88249  20792408.4344   20792414.1004
  21211932.338      291243.66949    222181.53449  21211933.3974   21211937.5154
  20718541.627     -446365.22449   -341863.49149  20718542.3154   20718546.2564
  23903666.976      694510.61849    530027.71349  23903674.2524   23903677.2524
  21798877.734      530037.78949    402015.24749  21798881.1564   21798886.4594
 96  8 11 14 42  0.0000000  0  5 24  4  5  7  9
  20783894.310     -473915.98249   -361970.97349  20783896.0914   20783901.7444
  21218410.043      325285.86349    248707.91349  21218411.8334   21218414.9124
  20709227.481     -495307.29749   -380000.17649  20709228.8944   20709232.9664
  23918617.312      773029.31549    591211.06649  23918614.9674   23918620.0744
  21810325.137      590189.86349    448886.93749  21810326.3174   21810332.8344
 96  8 11 14 42 30.0000000  0  5 24  4  5  7  9
  20775518.908     -517933.43549   -396270.27749  20775519.5034   20775524.9134
  21225025.769      360047.57249    275794.94349  21225026.3804   21225029.8384
  20700011.788     -543741.96649   -417741.48349  20700012.3134   20700016.6544
  23933589.207      851765.13149    652563.61849  23933597.0154   23933601.3884
  21821888.440      650929.29149    496216.32349  21821887.5684   21821891.2744
 96  8 11 14 43  0.0000000  0  5 24  4  5  7  9
  20767303.712     -561101.79649   -429907.95849  20767305.4164   20767310.3614
  21231796.106      395623.94249    303516.78649  21231796.4484   21231800.1254
  20690917.074     -591533.58049   -454981.70549  20690917.3824   20690921.5734
  23948645.392      930837.54249    714178.42449  23948645.3864   23948649.9674
  21833582.325      712389.60049    544107.50049  21833582.7044   21833585.6254
 96  8 11 14 43 30.0000000  0  5 24  4  5  7  9
  20759233.269     -603516.35649   -462958.25449  20759233.9594   20759239.3184
  21238701.087      431910.77049    331792.23349  21238701.5774   21238705.3374
  20681927.754     -638772.22349   -491791.04349  20681928.8064   20681932.7954
  23963741.996     1010168.31649    775994.57949  23963741.5594   23963744.6834
  21845399.708      774491.57549    592498.65449  21845400.3514   21845405.1724
 96  8 11 14 44  0.0000000  0  5 24  4  5  7  9
  20751308.630     -645155.67749   -495404.45849  20751310.0824   20751315.3474
  21245744.688      468928.77249    360637.42649  21245746.2304   21245749.5884
  20673053.485     -685407.63249   -528130.32449  20673053.9844   20673058.2224
  23978891.923     1089792.23949    838039.17749  23978892.9954   23978897.0054
  21857342.626      837272.56849    641418.90449  21857344.5914   21857350.7834
 96  8 11 14 44 30.0000000  0  5 24  4  5  7  9
  20743519.180     -686093.35349   -527303.93849  20743520.4114   20743525.2204
  21252914.362      506600.10449    389991.70649  21252914.8874   21252918.1284
  20664282.811     -731490.76749   -564039.25149  20664284.1774   20664288.9494
  23994094.553     1169633.47049    900253.05349  23994086.0904   23994090.5604
  21869411.166      900681.96649    690828.81149  21869413.3044   21869417.2914
 96  8 11 14 45  0.0000000  0  5 24  4  5  7  9
  20735856.802     -726351.30049   -558673.74749  20735859.2344   20735865.1844
  21260206.110      544926.48049    419856.41749  21260207.6614   21260211.8884
  20655617.792     -777030.87649   -599525.05349  20655618.4004   20655623.1504
  24009316.216     1249665.37249    962615.54449  24009315.2974   24009320.0134
  21881597.242      964714.19449    740724.06249  21881598.3414   21881603.2894
 96  8 11 14 45 30.0000000  0  5 24  4  5  7  9
  20728318.490     -765960.29149   -589537.88149  20728321.5244   20728327.4734
  21267625.594      583906.87849    450230.74049  21267626.0104   21267629.1754
  20647050.689     -822055.83249   -634609.42849  20647050.5594   20647055.3854
  24024572.124     1329865.02849   1025108.75249  24024576.9454   24024581.7634
  21893893.198     1029330.20449    791074.18649  21893893.9254   21893898.8874
 96  8 11 14 46  0.0000000  0  5 24  4  5  7  9
  20720906.019     -804935.72249   -619908.33149  20720904.9784   20720910.0684
  21275161.592      623520.75449    481098.69249  21275163.3214   21275167.4114
  20638575.754     -866586.94249   -669308.98549  20638576.1604   20638581.4404
  24039855.615     1410203.05749   1087709.78949  24039865.1594   24039870.6844
  21906293.198     1094495.00349    841851.93949  21906294.4554   21906298.6894
 96  8 11 14 46 30.0000000  0  5 24  4  5  7  9
  20713601.475     -843303.01549   -649804.92049  20713603.9424   20713609.2414
  21282814.522      663733.94049    512433.63849  21282816.0684   21282820.2314
  20630190.368     -910654.86749   -703647.62349  20630190.6344   20630195.2924
  24055175.201     1490642.62249   1150389.89649  24055172.9654   24055177.0094
  21918787.155     1160152.70949    893013.73749  21918788.3544   21918793.5294
 96  8 11 14 47  0.0000000  0  5 24  4  5  7  9
  20706418.651     -881055.13349   -679222.14649  20706419.8554   20706425.2634
  21290581.558      704550.77649    544238.95849  21290583.1474   21290587.1464
  20621890.152     -954263.63849   -737628.49549  20621892.0354   20621897.2004
  24070506.124     1571181.38249   1213147.32249  24070498.3554   24070503.7204
  21931369.671     1226271.09849    944534.49549  21931370.4314   21931375.1634
 96  8 11 14 47 30.0000000  0  5 24  4  5  7  9
  20699356.486     -918179.61849   -708150.30249  20699355.5664   20699360.6864
  21298463.402      745968.28749    576512.33949  21298464.8964   21298468.6164
  20613677.708     -997426.28749   -771261.72449  20613678.1164   20613683.4574
  24085849.448     1651823.23149   1275985.07949  24085844.4474   24085850.9654
  21944036.239     1292833.92749    996401.60549  21944036.6694   21944040.9504
 96  8 11 14 48  0.0000000  0  5 24  4  5  7  9
  20692406.534     -954683.41949   -736594.80749  20692409.0464   20692414.4704
  21306456.638      787967.51049    609239.00049  21306457.0404   21306460.9184
  20605546.432    -1040155.05049   -804556.86849  20605547.6634   20605552.1824
  24101215.683     1732551.34749   1338890.06649  24101205.5844   24101212.0814
  21956781.369     1359819.78949   1048598.37149  21956784.1784   21956789.6604
 96  8 11 14 48 30.0000000  0  5 24  4  5  7  9
  20685576.918     -990582.03749   -764567.74749  20685578.0974   20685582.7804
  21314557.563      830540.51749    642412.76549  21314557.8574   21314562.2854
  20597496.315    -1082463.19949   -837524.25949  20597496.9634   20597501.3884
  24116587.582     1813352.05349   1401851.58349  24116582.7694   24116588.7064
  21969611.193     1427223.38049   1101120.61249  21969612.2274   21969614.8694
 96  8 11 14 49  0.0000000  0  5 24  4  5  7  9
  20678859.963    -1025884.22549   -792075.94849  20678859.9094   20678865.2014
  21322764.215      873671.41149    676021.24349  21322766.0874   21322769.8224
  20589519.396    -1124380.44849   -870187.04949  20589520.2494   20589525.0024
  24131977.367     1894227.32949   1464871.22849  24131971.8604   24131978.5404
  21982513.626     1495052.95649   1153974.88449  21982517.7554   21982523.4744
 96  8 11 14 49 30.0000000  0  5 24  4  5  7  9
  20672248.613    -1060620.65549   -819143.28049  20672249.8354   20672255.6234
  21331072.955      917339.03749    710047.95949  21331075.4804   21331079.6934
  20581614.238    -1165926.38749   -902560.50549  20581614.4204   20581618.9454
  24147377.711     1975178.21449   1527949.79749  24147377.0704   24147382.3334
  21995506.571     1563297.29649   1207152.27849  21995503.1704   21995509.3134
 96  8 11 14 50  0.0000000  0  5 24  4  5  7  9
  20665743.788    -1094806.44049   -845781.55149  20665744.6754   20665749.5894
  21339482.961      961517.86249    744473.01549  21339483.1134   21339486.4914
  20573778.817    -1207092.07349   -934637.65949  20573780.5244   20573785.3924
  24162797.767     2056199.85849   1591083.49349  24162794.8144   24162800.4944
  22008570.380     1631967.55249   1260661.58349  22008571.0034   22008576.4374
 96  8 11 14 50 30.0000000  0  5 24  4  5  7  9
  20659336.461    -1128452.45849   -871999.22649  20659341.5584   20659346.9124
  21347979.622     1006188.68649    779281.43849  21347982.8734   21347986.8924
  20566015.523    -1247894.88149   -966432.06149  20566016.2244   20566020.9394
  24178221.216     2137287.55149   1654268.66449  24178225.5244   24178231.8594
  22021717.029     1701068.32649   1314506.35749  22021721.8184   22021726.6674
 96  8 11 14 51  0.0000000  0  5 24  4  5  7  9
  20653041.548    -1161562.19549   -897799.01049  20653041.1874   20653046.9474
  21356578.407     1051347.39549    814470.03349  21356576.6204   21356580.8794
  20558319.941    -1288329.09349   -997939.23549  20558321.6934   20558326.8784
  24193668.313     2218443.90649   1717507.32949  24193668.2174   24193675.4114
  22034962.858     1770596.24749   1368683.97349  22034953.8864   22034954.6104
 96  8 11 14 51 30.0000000  0  5 24  4  5  7  9
  20646841.502    -1194134.96449   -923180.38749  20646842.7534   20646848.6244
  21365260.544     1096996.85649    850041.03749  21365263.6114   21365267.5494
  20550703.295    -1328357.96149  -1029130.55949  20550704.4354   20550709.3094
  24209127.157     2299661.55649   1780793.74749  24209123.6524   24209130.8774
  22048266.749     1840548.22559   1423192.12759  22048273.7704   22048264.6634
 96  8 11 14 52  0.0000000  0  5 24  4  5  7  9
  20640749.893    -1226143.62249   -948122.18849  20640751.8024   20640757.6214
  21374044.891     1143143.93949    885999.79749  21374044.9974   21374048.9594
  20543168.251    -1367954.16449  -1059984.74849  20543169.2684   20543174.4884
  24224585.309     2380930.56949   1844120.19449  24224587.8924   24224594.4464
  22061641.358     1910934.28159                                  22061652.1184
 96  8 11 14 52 30.0000000  0  6 24  4  5  6  7  9
  20634765.038    -1257596.46749   -972630.88949  20634766.6634   20634771.9094
  21382923.095     1189801.13449    922356.04449  21382923.0764   21382927.9044
  20535714.769    -1407122.88849  -1090505.83549  20535715.8954   20535720.9434
  24931839.752    -2203263.00659  -1480832.82559  24931838.9514   24931845.0874
  24240057.776     2462237.28149   1907476.02349  24240062.2184   24240067.2014
  22075120.531     1981716.38059   1533193.07859  22075126.5104   22075129.8744
 96  8 11 14 53  0.0000000  0  6 24  4  5  6  7  9
  20628886.707    -1288492.45949   -996705.69049  20628887.7734   20628893.0294
  21391896.305     1236969.07549    959110.27549  21391899.3034   21391903.3754
  20528345.582    -1445852.80349  -1120684.99549  20528345.9854   20528350.5574
  24914502.487    -2294351.58449  -1551810.92349  24914507.0744   24914511.1004
  24255544.218     2543563.70949   1970847.22449  24255537.6864   24255542.6444
  22088675.749     2052880.16349   1588645.42459  22088672.0474   22088678.0044
 96  8 11 14 53 30.0000000  0  6 24  4  5  6  7  9
  20623112.159    -1318831.44449  -1020346.45349  20623114.0424   20623119.8444
  21400969.594     1284633.18149    996251.12749  21400969.5774   21400973.3094
  20521057.112    -1484153.54649  -1150529.72549  20521057.6944   20521062.3454
  24897178.004    -2385386.02749  -1622746.78749  24897179.2934   24897187.5344
  24271015.863     2624891.57249   2034219.54949  24271013.3254   24271018.8384
  22102278.024     2124406.89049   1644380.49649  22102281.1254   22102288.2434
 96  8 11 14 54  0.0000000  0  6 24  4  5  6  7  9
  20617445.033    -1348617.90049  -1043556.67549  20617446.1024   20617451.6464
  21410131.426     1332801.50449   1033784.87749  21410135.5394   21410139.3184
  20513842.834    -1522064.80349  -1180070.96149  20513843.3234   20513848.1494
  24879876.042    -2476338.96549  -1693619.16049  24879874.4874   24879877.9394
  24286488.088     2706213.23649   2097587.03749  24286488.0764   24286493.2034
  22115959.120     2196274.22449   1700381.12749  22115954.2864   22115958.0254
 96  8 11 14 54 30.0000000  0  6 24  4  5  6  7  9
  20611883.233    -1377845.80349  -1066331.65749  20611884.3084   20611889.7314
  21419398.856     1381473.35049   1071710.98249  21419397.5004   21419401.3034
  20506700.424    -1559600.48049  -1209319.54449  20506701.0424   20506705.1604
  24862582.922    -2567195.07349  -1764416.10149  24862584.9944   24862590.1274
  24301964.567     2787540.25149   2160958.66949  24301964.7474   24301970.4714
  22129694.115     2268495.66149   1756657.60149  22129700.0314   22129712.3134
 96  8 11 14 55  0.0000000  0  6 24  4  5  6  7  9
  20606423.798    -1406531.48249  -1088684.13449  20606425.4104   20606430.8184
  21428744.685     1430603.08649   1109993.87649  21428746.8764   21428750.1764
  20499623.290    -1596781.64049  -1238291.88149  20499625.1264   20499630.0304
  24845309.763    -2657968.88349  -1835148.92749  24845310.0614   24845316.6204
  24317443.570     2868864.38349   2224328.09349  24317439.7444   24317443.9634
  22143506.740     2341066.72849   1813206.42449  22143508.1584   22143514.6894
 96  8 11 14 55 30.0000000  0  6 24  4  5  6  7  9
  20601066.557    -1434682.31049  -1110619.84449  20601068.4494   20601073.5084
  21438181.555     1480183.74649   1148628.15149  21438181.6914   21438186.0414
  20492617.944    -1633608.89149  -1266988.44049  20492617.8494   20492621.8784
  24828052.114    -2748662.15849  -1905819.02949  24828053.5494   24828057.8014
  24332916.019     2950202.93649   2287708.74849  24332917.5244   24332923.4674
  22157379.695     2413983.82149   1870024.91049  22157383.6674   22157386.7424
 96  8 11 14 56  0.0000000  0  6 24  4  5  6  7  9
  20595810.010    -1462313.38649  -1132150.55049  20595810.5984   20595815.6734
  21447694.869     1530194.39749   1187597.47449  21447697.9184   21447702.6584
  20485673.840    -1670090.33149  -1295415.53849  20485674.7374   20485679.6164
  24810803.963    -2839305.78949  -1976450.44849  24810805.0184   24810811.8934
  24348411.925     3031544.09649   2351091.39949  24348398.0054   24348401.5504
  22171321.173     2487238.77149   1927106.63449  22171324.6634   22171331.0364
 96  8 11 14 56 30.0000000  0  6 24  4  5  6  7  9
  20590648.664    -1489419.67549  -1153272.33049  20590652.3894   20590657.9984
  21457292.891     1580628.25449   1226896.56649  21457295.0634   21457299.6154
  20478806.230    -1706182.61749  -1323539.39749  20478806.8704   20478811.5204
  24793561.775    -2929910.48649  -2047051.53149  24793562.8984   24793568.8894
  24363870.659     3112901.97149   2414487.12349  24363877.8924   24363884.5014
  22185333.196     2560851.97349   1984467.46949  22185336.3204   22185339.5504
 96  8 11 14 57  0.0000000  0  6 24  4  5  6  7  9
  20585594.373    -1516001.21849  -1173985.20249  20585594.0124   20585599.7024
  21466977.892     1631510.37049   1266544.95849  21466978.7004   21466982.6334
  20472016.301    -1741858.39549  -1351338.70249  20472018.0684   20472023.0894
  24776330.188    -3020462.15249  -2117611.29449  24776331.1924   24776337.6134
  24379367.175     3194289.23849   2477905.69649  24379366.1554   24379372.4644
  22199414.257     2634827.18149   2042110.45049  22199409.8794   22199415.3634
 96  8 11 14 57 30.0000000  0  6 24  4  5  6  7  9
  20580635.306    -1542047.72549  -1194281.18849  20580638.0214   20580642.8784
  21476746.910     1682855.90749   1306554.46249  21476748.9614   21476752.3474
  20465306.398    -1777114.46049  -1378810.95749  20465308.8704   20465313.8984
  24759109.926    -3110950.62949  -2188121.80149  24759110.5064   24759118.1734
  24394850.278     3275697.18749   2541340.42449  24394857.9734   24394865.6334
  22213539.835     2709156.66159   2100029.47359  22213550.5034   22213558.9844
 96  8 11 14 58  0.0000000  0  6 24  4  5  6  7  9
  20575779.505    -1567565.98549  -1214165.53649  20575781.2864   20575787.0274
  21486604.669     1734661.69349   1346922.59249  21486607.0874   21486611.1164
  20458675.892    -1811966.84749  -1405968.67149  20458676.7144   20458682.0394
  24741901.483    -3201383.716 9
  24410337.048     3357104.20349   2604774.40549  24410348.2514   24410354.3524
  22227748.525     2783827.32649   2158214.31949  22227761.0394   22227769.3954
 96  8 11 14 58 30.0000000  0  6 24  4  5  6  7  9
  20571027.916    -1592540.16549  -1233625.92049  20571029.2434   20571034.4624
  21496554.575     1786945.25849   1387663.02449  21496556.6164   21496560.5514
  20452119.286    -1846412.98249  -1432809.81549  20452121.7664   20452127.2514
  24724706.662    -3291739.52359  -2328996.33759  24724704.5074   24724709.3104
  24425844.370     3438534.84049   2668226.78649  24425844.0164   24425851.3654
  22242042.227     2858851.37149   2216674.58949  22242040.5634   22242044.3584
 96  8 11 14 59  0.0000000  0  6 24  4  5  6  7  9
  20566380.111    -1616962.11749  -1252656.00849  20566382.0954   20566387.3584
  21506593.946     1839692.45449   1428764.72849  21506593.7034   21506597.9174
  20445638.290    -1880478.77249  -1459354.58249  20445639.9754   20445644.1934
  24707528.582    -3382020.48649  -2399345.19849  24707526.4674   24707534.5504
  24441342.678     3519980.23049   2731690.65649  24441342.5094   24441349.8054
  22256386.302     2934219.80949   2275403.28549  22256384.1894   22256387.6004
 96  8 11 14 59 30.0000000  0  6 24  4  5  6  7  9
  20561839.808    -1640819.25449  -1271245.97949  20561842.2634   20561847.3354
  21516714.823     1892888.42749   1470216.12449  21516717.2194   21516721.0004
  20439228.218    -1914166.08249  -1485604.43749  20439228.8864   20439233.8274
  24690364.682    -3472217.70749  -2469628.72349  24690365.4554   24690369.9384
  24456826.903     3601437.68149   2795163.94749  24456843.6264   24456851.3294
  22270790.051     3009932.52749   2334400.22949  22270790.6524   22270796.0534
 96  8 11 15  0  0.0000000  0  6 24  4  5  6  7  9
  20557404.661    -1664133.57349  -1289412.97549  20557405.0684   20557410.5984
  21526922.316     1946516.59049   1512004.29949  21526922.2244   21526926.0604
  20432885.474    -1947495.46249  -1511575.38449  20432886.7284   20432891.3314
  24673210.723    -3562355.15849  -2539865.66949  24673212.1314   24673219.0494
  24472349.870     3682898.57349   2858639.89649  24472346.6104   24472351.9654
  22285256.468     3085979.87949   2393657.89049  22285260.3574   22285265.8224
 96  8 11 15  0 30.0000000  0  5 24  4  5  6  9
  20553072.400    -1686900.99949  -1307153.81349  20553073.1304   20553078.0234
  21537205.612     2000567.71449   1554122.04249  21537207.5104   21537211.8004
  20426614.491    -1980453.42949  -1537256.91049  20426615.0944   20426619.7574
  24656069.140    -3652436.44149  -2610058.84649  24656068.3814   24656076.8694
  22299789.838     3162362.58949   2453176.90549  22299796.6024   22299802.5024
 96  8 11 15  1  0.0000000  0  5 24  4  5  6  9
  20548838.223    -1709137.71649  -1324481.12649  20548841.5954   20548846.5824
  21547565.676     2055019.85949   1596552.27849  21547568.7614   21547573.4734
  20420413.464    -2013035.06749  -1562645.19849  20420414.9694   20420419.3014
  24638934.654    -3742471.16749  -2680215.74049  24638936.4594   24638943.4734
  22314394.489     3239053.85649   2512936.34549  22314392.2634   22314395.8184
 96  8 11 15  1 30.0000000  0  5 24  4  5  6  9
  20544706.500    -1730853.93349  -1341402.84749  20544709.2624   20544714.1104
  21558009.472     2109888.54249   1639307.08049  21558010.1894   21558015.1034
  20414290.816    -2045217.64349  -1587722.52949  20414290.6974   20414295.3094
  24621814.892    -3832454.56649  -2750332.66249  24621814.8044   24621817.8164
  22329045.798     3316051.53549   2572934.51049  22329043.1724   22329048.5024
 96  8 11 15  2  0.0000000  0  5 24  4  5  6  9
  20540674.682    -1752052.42349  -1357921.13849  20540675.0454   20540680.5234
  21568530.068     2165176.08349   1682388.26949  21568531.5144   21568535.4954
  20408245.083    -2076989.45549  -1612479.78449  20408244.7474   20408249.1964
  24604694.058    -3922407.72249  -2820426.05049  24604696.4664   24604702.2634
  22343747.928     3393348.91349   2633166.19849  22343752.1734   22343758.0154
 96  8 11 15  2 30.0000000  0  5 24  4  5  6  9
  20536740.395    -1772724.41849  -1374029.18449  20536741.3104   20536746.4174
  21579131.924     2220889.85449   1725801.59349  21579133.3414   21579137.3044
  20402280.822    -2108330.27749  -1636901.20449  20402281.1154   20402285.0524
  24587584.549    -4012316.57549  -2890484.86749  24587586.3764   24587593.9854
  22358520.480     3470951.43349   2693635.67949  22358520.2174   22358519.6414
 96  8 11 15  3  0.0000000  0  5 24  4  5  6  9
  20532903.739    -1792880.10349  -1389734.90849  20532905.5514   20532911.1294
  21589817.821     2277039.04849   1769554.19649  21589818.1504   21589822.1464
  20396395.832    -2139251.75649  -1660995.86349  20396396.4304   20396401.2984
  24570486.506    -4102177.87449  -2960506.59749  24570486.2284   24570493.4084
  22373345.268     3548858.62149   2754342.51549  22373347.1564   22373349.9194
 96  8 11 15  3 30.0000000  0  5 24  4  5  6  9
  20529169.333    -1812506.50149  -1405028.20549  20529170.8864   20529175.8844
  21600585.030     2333647.26549   1813664.48949  21600589.8254   21600594.4664
  20390591.111    -2169756.94849  -1684766.15049  20390591.6234   20390596.4144
  24553396.971    -4191977.12749  -3030480.03249  24553397.9564   24553404.9844
  22388226.006     3627087.43649   2815299.94849  22388229.7044   22388229.4944
 96  8 11 15  4  0.0000000  0  5 24  4  5  6  9
  20525536.714    -1831592.24449  -1419900.20749  20525538.6964   20525544.5884
  21611449.524     2390721.67849   1858138.03949  21611451.2114   21611455.7154
  20384862.142    -2199851.69449  -1708216.60049  20384864.6544   20384869.3104
  24536323.083    -4281702.60149  -3100395.95049  24536324.9994   24536329.7684
  22403177.335     3705646.87449   2876515.10449  22403179.6134   22403182.5344
 96  8 11 15  4 30.0000000  0  5 24  4  5  6  9
  20522007.446    -1850141.20449  -1434353.93949  20522009.2304   20522014.7964
  21622397.586     2448255.14449   1902969.30449  21622399.6584   21622403.4884
  20379212.846    -2229546.56849  -1731355.46849  20379213.9884   20379218.8774
  24519263.085    -4371346.85449  -3170248.58749  24519264.5254   24519272.5334
  22418186.527     3784523.18749   2937977.17049  22418189.7774   22418193.4064
 96  8 11 15  5  0.0000000  0  5 24  4  5  6  9
  20518578.686    -1868144.61349  -1448382.56149  20518582.8114   20518588.5324
  21633435.207     2506242.00549   1948153.84949  21633434.8514   21633438.5104
  20373640.283    -2258836.32849  -1754178.65149  20373641.0044   20373645.3444
  24502223.009    -4460901.66449  -3240031.52549  24502223.9854   24502230.2104
  22433262.580     3863717.71949   2999687.14749  22433260.0834   22433264.7564
 96  8 11 15  5 30.0000000  0  5 24  4  5  6  9
  20515260.720    -1885610.71149  -1461992.50749  20515259.7864   20515265.3854
  21644547.252     2564653.64649   1993669.41749  21644550.0824   21644554.0534
  20368147.741    -2287699.90549  -1776669.75849  20368147.9374   20368152.8404
  24485195.313    -4550373.72049  -3309749.96249  24485197.6364   24485205.3404
  22448391.759     3943219.49549   3061636.56249  22448391.1334   22448393.2004
 96  8 11 15  6  0.0000000  0  5 24  4  5  6  9
  20512034.222    -1902545.98149  -1475188.82449  20512036.9224   20512042.1674
  21655740.892     2623468.61249   2039499.24949  21655741.4674   21655745.3854
  20362738.878    -2316125.56649  -1798819.62249  20362739.0824   20362743.7894
  24468184.182    -4639785.23049  -3379421.23249  24468182.8754   24468190.7924
  22463576.181     4023024.08549   3123821.93449  22463575.0974   22463582.0254
 96  8 11 15  6 30.0000000  0  5 24  4  5  6  9
  20508916.544    -1918941.78049  -1487964.76649  20508917.1084   20508922.2894
  21667006.599     2682674.19749   2085633.46249  21667007.6874   21667011.7584
  20357414.359    -2344106.19149  -1820622.71149  20357414.0514   20357418.6554
  24451179.912    -4729134.21749  -3449043.81949  24451181.9214   24451186.7474
  22478815.264     4103129.02249   3186241.31649  22478817.8014   22478824.6424
 96  8 11 15  7  0.0000000  0  5 24  4  5  6  9
  20505896.690    -1934804.80949  -1500325.56449  20505898.6194   20505903.7874
  21678343.404     2742271.73649   2132073.09149  21678348.3084   21678352.8744
  20352174.269    -2371634.13049  -1842073.05349  20352176.0074   20352180.4424
  24434191.305    -4818413.97949  -3518612.47949  24434192.0264   24434197.2434
  22494118.494     4183545.53449   3248903.49849  22494121.0204   22494125.8114
 96  8 11 15  7 30.0000000  0  5 24  4  5  6  9
  20502980.137    -1950127.45949  -1512265.28349  20502982.7054   20502988.0634
  21689764.991     2802267.19549   2178822.78949  21689765.9554   21689769.7104
  20347020.978    -2398716.66649  -1863176.32649  20347022.2474   20347026.9604
  24417214.285    -4907625.95049  -3588128.32549  24417215.1644   24417220.8384
  22509483.850     4264268.49849   3311804.44449  22509483.5384   22509486.7724
 96  8 11 15  8  0.0000000  0  5 24  4  5  6  9
  20500172.279    -1964887.79449  -1523766.83949  20500174.3754   20500179.3324
  21701259.298     2862681.28549   2225898.69649  21701262.4474   21701266.4974
  20341948.293    -2425382.78349  -1883955.11749  20341948.0174   20341952.5474
  24400253.407    -4996756.21449  -3657580.43949  24400254.3954   24400260.9874
  22524905.361     4345307.02049   3374951.28249  22524905.1044   22524908.3314
 96  8 11 15  8 30.0000000  0  5 24  4  5  6  9
  20497470.218    -1979082.78549  -1534827.87149  20497472.6674   20497478.0234
  21712841.413     2923526.58749   2273310.60449  21712841.3234   21712845.1344
  20336949.122    -2451641.65849  -1904416.57749  20336950.5344   20336955.7604
  24383312.025    -5085775.34349  -3726945.95949  24383314.5174   24383321.5344
  22540381.870     4426655.97349   3438340.03649  22540383.8114   22540387.6264
 96  8 11 15  9  0.0000000  0  5 24  4  5  6  9
  20494874.107    -1992729.56449  -1545461.71249  20494875.9134   20494881.0444
  21724499.096     2984796.93649   2321053.72649  21724500.1234   21724503.9944
  20332029.707    -2477494.39649  -1924561.57349  20332031.1684   20332035.6114
  24366392.428    -5174695.38049  -3796234.27749  24366392.2984   24366398.5244
  22555921.856     4508303.65749   3501961.59749  22555919.2024   22555925.5814
 96  8 11 15  9 30.0000000  0  5 24  4  5  6  9
  20492380.479    -2005838.88949  -1555676.76949  20492381.1184   20492386.2674
  21736236.466     3046472.45849   2369112.55949  21736237.0194   21736241.2384
  20327181.807    -2502967.71149  -1944410.91549  20327183.4714   20327188.2634
  24349484.866    -5263549.09549  -3865470.91449  24349486.6704   24349489.7174
  22571511.032     4590231.09249   3565801.15049  22571510.7504   22571516.3104
 96  8 11 15 10  0.0000000  0  5 24  4  5  6  9
  20489987.824    -2018406.74449  -1565469.89349  20489989.6504   20489994.9034
  21748049.021     3108567.50949   2417498.30349  21748052.7944   21748057.5874
  20322412.457    -2528031.97849  -1963941.50949  20322414.2484   20322418.7264
  24332591.193    -5352326.11349  -3934647.81949  24332592.4924   24332597.1284
  22587155.006     4672449.28949   3629867.25549  22587156.6024   22587162.2644
 96  8 11 15 10 30.0000000  0  5 24  4  5  6  9
  20487697.001    -2030440.29149  -1574846.68249  20487699.4084   20487705.4654
  21759945.952     3171071.13549   2466202.40449  21759947.0584   21759951.1564
  20317727.715    -2552652.98349  -1983126.71449  20317728.8104   20317733.5174
  24315705.498    -5441038.84549  -4003774.61949  24315709.2734   24315715.2094
  22602855.514     4754946.58249   3694150.83949  22602855.7194   22602861.7124
 96  8 11 15 11  0.0000000  0  5 24  4  5  6  9
  20485506.744    -2041954.41149  -1583818.71949  20485508.3334   20485514.0754
  21771911.881     3233954.52849   2515202.43949  21771913.1104   21771917.4784
  20313129.316    -2576833.18549  -2001968.43549  20313128.0934   20313132.2324
  24298836.739    -5529717.66849  -4072875.00549  24298837.1224   24298838.9974
  22618603.016     4837700.55049   3758634.42149  22618602.2974   22618609.7634
 96  8 11 15 11 30.0000000  0  5 24  4  5  6  9
  20483419.745    -2052927.49849  -1592369.18049  20483420.3444   20483426.0484
  21783952.847     3297229.31749   2564507.45049  21783954.3254   21783958.4204
  20308611.661    -2600559.54949  -2020456.50549  20308612.4954   20308617.5224
  24281971.449    -5618345.18449  -4141935.36849  24281971.4424   24281974.6124
  22634401.914     4920718.11249   3823323.39649  22634400.3454   22634406.6014
 96  8 11 15 12  0.0000000  0  5 24  4  5  6  9
  20481429.520    -2063372.65549  -1600508.25649  20481432.5464   20481438.2784
  21796062.843     3360873.82349   2614100.55849  21796065.4994   21796069.3064
  20304183.696    -2623831.13749  -2038590.22149  20304184.3204   20304189.2314
  24265111.814    -5706920.26349  -4210954.95249  24265113.8184   24265120.5614
  22650249.653     5003969.79549   3888194.82649  22650245.2424   22650249.0694
 96  8 11 15 12 30.0000000  0  5 24  4  5  6  9
  20479551.620    -2073253.41549  -1608207.54949  20479552.1504   20479557.8934
  21808252.179     3424919.59649   2664006.34549  21808253.3504   21808256.7034
  20299845.033    -2646618.44949  -2056346.56749  20299847.7864   20299852.8824
  24248280.155    -5795393.56149  -4279895.13949  24248278.0714   24248281.7424
  22666129.397     5087489.97049   3953275.47049  22666135.2264   22666141.9534
 96  8 11 15 13  0.0000000  0  5 24  4  5  6  9
  20477780.054    -2082557.23549  -1615457.28249  20477782.1434   20477787.4084
  21820518.551     3489387.43949   2714241.02149  21820520.1494   21820524.5294
  20295601.363    -2668933.88149  -2073735.22749  20295601.4814   20295605.9654
  24231461.836    -5883753.34249  -4348746.86549  24231462.4954   24231470.4164
  22682090.386     5171297.08149   4018579.65249  22682085.6784   22682090.2194
 96  8 11 15 13 30.0000000  0  5 24  4  5  6  9
  20476116.695    -2091299.52449  -1622269.45149  20476118.4714   20476123.5514
  21832863.795     3554265.94949   2764795.68649  21832866.4834   21832870.8774
  20291441.355    -2690798.37449  -2090772.49549  20291441.0254   20291445.6964
  24214670.267    -5972009.07549  -4417517.59549  24214670.9934   24214675.7184
  22698081.819     5255381.09049   4084099.66349  22698085.1644   22698089.7384
 96  8 11 15 14  0.0000000  0  5 24  4  5  6  9
  20474557.077    -2099491.62149  -1628652.90049  20474559.3514   20474564.8324
  21845287.634     3619556.20149   2815671.19149  21845290.7904   21845294.8654
  20287364.884    -2712211.58949  -2107458.12449  20287365.8744   20287370.6114
  24197894.705    -6060161.63449  -4486207.83049  24197894.9884   24197901.2184
  22714137.863     5339750.64449   4149842.13449  22714141.2984   22714145.6434
 96  8 11 15 14 30.0000000  0  5 24  4  5  6  9
  20473098.827    -2107157.28649  -1634626.14449  20473101.0834   20473105.9964
  21857788.628     3685246.19149   2866858.18349  21857791.5724   21857794.9724
  20283373.600    -2733189.88349  -2123804.84349  20283374.0624   20283378.7054
  24181130.674    -6148242.15649  -4554842.03949  24181132.9604   24181139.1494
  22730248.203     5424398.04649   4215801.09849  22730248.8734   22730253.8564
 96  8 11 15 15  0.0000000  0  5 24  4  5  6  9
  20471741.015    -2114290.80249  -1640184.72049  20471743.2104   20471748.5424
  21870370.730     3751329.11749   2918351.35149  21870366.6334   21870370.3304
  20279468.144    -2753712.68049  -2139796.64149  20279468.6044   20279473.0404
  24164385.522    -6236252.29249  -4623421.33749  24164386.6464   24164391.4004
  22746408.059     5509323.65549   4281976.84949  22746409.3964   22746414.7224
 96  8 11 15 15 30.0000000  0  5 24  4  5  6  9
  20470483.398    -2120908.50149  -1645341.36449  20470484.1474   20470489.0574
  21883009.184     3817785.74649   2970135.73549  21883012.9764   21883016.6774
  20275651.423    -2773763.63349  -2155420.76349  20275653.6974   20275658.0014
  24147651.851    -6324187.41349  -4691942.18549  24147652.6104   24147657.3944
  22762616.234     5594511.08249   4348356.64849  22762620.1824   22762625.6254
 96  8 11 15 16  0.0000000  0  5 24  4  5  6  9
  20469321.757    -2126997.25549  -1650085.85449  20469325.4164   20469330.6614
  21895730.649     3884628.57949   3022221.04149  21895732.5974   21895736.8884
  20271928.542    -2793327.84849  -2170665.60849  20271930.2254   20271934.6414
  24130934.631    -6412040.03549  -4760398.77949  24130935.2994   24130939.7784
  22778882.509     5679966.44649   4414945.22649  22778882.1144   22778886.1874
 96  8 11 15 16 30.0000000  0  5 24  4  5  6  9
  20468268.303    -2132547.05649  -1654410.36249  20468269.0734   20468274.4454
  21908523.859     3951846.45649   3074598.59549  21908523.6204   21908528.2984
  20268300.050    -2812410.99449  -2185535.60049  20268299.1294   20268303.3164
  24114235.040    -6499798.81549  -4828782.21249  24114233.8564   24114240.7114
  22795191.382     5765679.31949   4481734.44449  22795193.1384   22795196.9704
 96  8 11 15 17  0.0000000  0  5 24  4  5  6  9
  20467314.033    -2137556.23349  -1658313.62049  20467315.8584   20467321.0674
  21921378.290     4019424.52149   3127256.82249  21921383.5364   21921387.7904
  20264752.086    -2831035.70449  -2200048.35249  20264754.4914   20264759.3554
  24097550.349    -6587449.88049  -4897081.71649  24097554.4954   24097559.5994
  22811548.297     5851638.82049   4548715.82349  22811549.8814   22811554.4264
 96  8 11 15 17 30.0000000  0  5 24  4  5  6  9
  20466464.706    -2142025.19249  -1661795.92149  20466465.9964   20466471.2424
  21934313.655     4087367.13349   3180199.10049  21934312.5224   21934316.5404
  20261291.285    -2849231.80549  -2214227.15049  20261292.4164   20261296.8604
  24080892.379    -6675004.44449  -4965306.03349  24080894.1244   24080899.5374
  22827954.220     5937846.32849   4615890.46249  22827954.8984   22827959.5374
 96  8 11 15 18  0.0000000  0  5 24  4  5  6  9
  20465717.815    -2145943.25849  -1664848.95849  20465720.2194   20465725.1154
  21947308.122     4155676.96949   3233427.54149  21947311.2784   21947315.7534
  20257908.727    -2866999.43649  -2228072.05349  20257911.2054   20257916.0684
  24064252.223    -6762457.67449  -5033451.41349  24064252.6544   24064258.1844
  22844406.107     6024315.99349   4683269.40949  22844410.1514   22844413.9164
 96  8 11 15 18 30.0000000  0  5 24  4  5  6  9
  20465078.642    -2149305.39049  -1667468.80049  20465080.6114   20465085.7664
  21960378.943     4224361.04749   3286947.59249  21960381.1854   21960386.1104
  20254612.434    -2884323.90049  -2241571.64549  20254614.4364   20254618.9614
  24047631.059    -6849794.09449  -5101505.75749  24047633.1124   24047638.5214
  22860912.797     6111054.25649   4750857.64949  22860915.3814   22860919.5954
 96  8 11 15 19  0.0000000  0  5 24  4  5  6  9
  20464541.502    -2152128.19849  -1669668.39149  20464543.2774   20464548.3934
  21973522.436     4293410.37949   3340752.24049  21973521.7154   21973525.2184
  20251401.056    -2901206.13149  -2254726.63549  20251402.1724   20251406.5354
  24031026.171    -6937051.06649  -5169498.19149  24031028.3984   24031033.8844
  22877465.319     6198043.77549   4818641.65849  22877468.2804   22877473.3494
 96  8 11 15 19 30.0000000  0  5 24  4  5  6  9
  20464107.206    -2154412.50349  -1671448.37149  20464108.7704   20464113.6124
  21986726.785     4362836.92649   3394850.84549  21986732.7024   21986736.8804
  20248276.993    -2917620.86649  -2267517.33949  20248278.2544   20248282.1984
  24014434.439    -7024241.46649  -5237438.74549  24014436.7304   24014441.3644
  22894066.203     6285277.90549   4886616.28549  22894069.1304   22894074.4794
 96  8 11 15 20  0.0000000  0  5 24  4  5  6  9
  20463777.982    -2156134.44949  -1672790.14449  20463780.6024   20463786.3704
  22000020.426     4432652.27049   3449252.38249  22000018.6814   22000021.7174
  20245250.180    -2933533.12049  -2279916.50749  20245250.4454   20245254.9874
  23997862.802    -7111333.00249  -5305302.27049  23997864.0564   23997869.7894
  22910714.160     6372750.21949   4954776.48449  22910715.0154   22910719.3734
 96  8 11 15 20 30.0000000  0  5 24  4  5  6  9
  20463561.371    -2157281.14149  -1673683.67449  20463562.8004   20463568.0574
  22013375.823     4502864.96949   3503963.56649  22013379.2234   22013382.6414
  20242317.264    -2948943.60049  -2291924.66749  20242317.7224   20242322.3234
  23981308.080    -7198321.64549  -5373085.60749  23981309.8274   23981317.3504
  22927399.617     6460443.24549   5023108.68649  22927401.7554   22927407.8324
 96  8 11 15 21  0.0000000  0  5 24  4  5  6  9
  20463454.050    -2157842.60249  -1674121.17049  20463455.5414   20463461.1184
  22026812.217     4573471.66449   3558981.75949  22026815.8654   22026819.6884
  20239479.942    -2963856.18349  -2303544.87349  20239480.0044   20239484.8344
  23964772.617    -7285211.00149  -5440791.56649  23964775.7244   23964781.8654
  22944129.019     6548349.85349   5091607.29849  22944130.2444   22944134.9914
 96  8 11 15 21 30.0000000  0  5 24  4  5  6  9
  20463458.663    -2157827.24049  -1674109.20349  20463458.9724   20463464.3904
  22040326.121     4644464.10049   3614300.52549  22040324.8954   22040328.1824
  20236733.898    -2978280.88449  -2314784.89949  20236735.2054   20236739.3134
  23948263.157    -7371986.04849  -5508408.49149  23948263.2224   23948269.3974
  22960896.269     6636464.84049   5160268.28349  22960897.8374   22960902.4454
 96  8 11 15 22  0.0000000  0  5 24  4  5  6  9
  20463565.808    -2157247.03849  -1673657.10049  20463569.3034   20463574.4034
  22053901.554     4715818.10249   3669901.03049  22053903.2894   22053907.1504
  20234080.075    -2992231.82849  -2325655.77149  20234080.3814   20234084.8504
  23931771.407    -7458634.18649  -5575926.50349  23931774.6094   23931779.0544
  22977703.070     6724795.15749   5229097.05349  22977705.7234   22977709.7784
 96  8 11 15 22 30.0000000  0  5 24  4  5  6  9
  20463778.455    -2156139.88849  -1672794.38349  20463779.9024   20463785.1934
  22067545.162     4787517.30549   3725770.52149  22067547.3664   22067551.4024
  20231513.069    -3005720.82249  -2336166.68349  20231513.7514   20231518.4634
  23915302.416    -7545189.91949  -5643372.51249  23915302.7744   23915310.5734
  22994559.948     6813361.37549   5298109.64849  22994559.0024   22994564.8764
 96  8 11 15 23  0.0000000  0  5 24  4  5  6  9
  20464085.132    -2154522.23449  -1671533.87949  20464087.6024   20464092.7854
  22081250.797     4859553.23849   3781902.40449  22081254.8464   22081258.5524
  20229033.247    -3018747.87449  -2346317.63749  20229034.2114   20229038.9774
  23898847.767    -7631661.42549  -5710752.87849  23898848.3494   23898853.4514
  23011461.204     6902180.37249   5367319.23149  23011460.2554   23011465.5394
 96  8 11 15 23 30.0000000  0  5 24  4  5  6  9
  20464489.520    -2152401.44549  -1669881.31649  20464491.1334   20464496.7594
  22095028.288     4931932.70149   3838301.96849  22095028.3694   22095032.3364
  20226644.888    -3031300.88449  -2356099.21549  20226645.3764   20226650.1764
  23882411.216    -7718029.01249  -5778052.29449  23882411.4864   23882419.1474
  23028411.588     6991263.69649   5436734.76349  23028413.2234   23028419.5614
 96  8 11 15 24  0.0000000  0  5 24  4  5  6  9
  20464991.186    -2149756.79249  -1667820.54349  20464994.7104   20464999.8864
  22108866.051     5004678.57449   3894987.05149  22108870.5574   22108875.2154
  20224351.464    -3043354.45149  -2365491.60749  20224352.1894   20224356.2824
  23865999.374    -7804283.67749  -5845263.71549  23865999.8324   23866003.4154
  23045418.223     7080632.88349   5506373.02749  23045420.3324   23045425.1114
 96  8 11 15 24 30.0000000  0  5 24  4  5  6  9
  20465598.097    -2146571.57649  -1665338.55649  20465600.0744   20465605.9034
  22122786.503     5077810.38549   3951972.85749  22122787.8674   22122792.2134
  20222154.130    -3054899.09049  -2374487.43049  20222155.0764   20222159.7214
  23849601.543    -7890439.29049  -5912397.96749  23849604.3904   23849611.0054
  23062473.852     7170280.04349   5576227.92249  23062477.7294   23062484.1064
 96  8 11 15 24 59.9990000  0  5 24  4  5  6  9
  20466305.114    -2142855.94349  -1662443.26149  20466308.0724   20466312.9104
  22136772.091     5151307.38049   4009243.22149  22136773.3524   22136778.0874
  20220048.798    -3065960.22149  -2383106.50549  20220050.1014   20220054.8144
  23833228.571    -7976488.73449  -5979449.44949  23833229.9864   23833236.2664
  23079575.916     7260152.53549   5646258.37149  23079579.9424   23079586.4364
 96  8 11 15 25 29.9990000  0  5 24  4  5  6  9
  20467112.355    -2138607.19449  -1659132.53949  20467115.7374   20467121.3134
  22150823.506     5225166.02749   4066795.40849  22150828.6664   22150832.8354
  20218035.213    -3076536.86749  -2391348.05049  20218037.3534   20218042.1304
  23816870.897    -8062442.21549  -6046426.18349  23816873.0534   23816878.3754
  23096720.213     7350231.05749   5716449.39149  23096722.0724   23096728.7394
 96  8 11 15 25 59.9990000  0  5 24  4  5  6  9
  20468026.687    -2133814.56449  -1655398.02949  20468028.3964   20468033.8444
  22164947.867     5299376.45849   4124621.70049  22164950.2354   22164954.7424
  20216116.345    -3086629.43149  -2399212.39649  20216117.1244   20216121.5674
  23800532.659    -8148314.38849  -6113339.53949  23800531.5524   23800538.7504
  23113899.596     7440510.99049   5786797.37749  23113901.7554   23113907.8964
 96  8 11 15 26 29.9990000  0  5 24  4  5  6  9
  20469041.355    -2128481.92449  -1651242.72649  20469042.9694   20469048.0714
  22179139.125     5373924.90749   4182711.38649  22179137.1264   22179141.1534
  20214287.125    -3096240.15249  -2406701.27649  20214287.8804   20214292.6054
  23784207.814    -8234100.04349  -6180185.51849  23784208.3674   23784214.5944
  23131113.687     7530969.67449   5857284.62249  23131115.6574   23131121.1374
 96  8 11 15 26 59.9990000  0  5 24  4  5  6  9
  20470159.174    -2122606.90449  -1646664.78249  20470161.0704   20470166.3124
  22193381.087     5448800.55749   4241056.03449  22193385.4564   22193389.9464
  20212552.752    -3105357.70349  -2413805.86349  20212553.6994   20212557.4174
  23767901.856    -8319783.60249  -6246951.89849  23767902.4484   23767908.4074
  23148361.146     7621598.27049   5927904.26349  23148362.0194   23148367.4874
 96  8 11 15 27 29.9990000  0  5 24  4  5  6  9
  20471383.687    -2116173.54449  -1641651.77949  20471385.4354   20471390.8334
  22207694.065     5523993.22149   4299647.69149  22207693.9674   22207698.3244
  20210915.275    -3113963.59649  -2420511.75749  20210915.9594   20210920.0044
  23751614.342    -8405375.71749  -6313647.06749  23751615.2514   23751619.4444
  23165638.133     7712405.47449   5998663.08249  23165642.2584   23165648.0614
 96  8 11 15 27 59.9990000  0  5 24  4  5  6  9
  20472711.821    -2109193.30349  -1636212.63649  20472713.1804   20472718.6084
  22222062.886     5599497.66849   4358482.30249  22222062.2214   22222066.3434
  20209374.710    -3122059.03549  -2426819.89349  20209375.0804   20209379.2694
  23735344.637    -8490868.79549  -6380265.00449  23735346.7224   23735352.5794
  23182960.656     7803393.32949   6069562.64349  23182957.2454   23182962.4054
 96  8 11 15 28 29.9990000  0  5 24  4  5  6  9
  20474140.176    -2101674.50249  -1630353.83049  20474144.3914   20474149.4144
  22236488.830     5675320.12949   4417564.71649  22236490.4764   22236493.9164
  20207934.747    -3129629.84649  -2432719.23449  20207934.5414   20207938.7324
  23719098.017    -8576243.12849  -6446790.46049  23719100.0914   23719107.1354
  23200305.258     7894564.12949   6140604.77949  23200305.6634   23200310.8014
 96  8 11 15 28 59.9990000  0  5 24  4  5  6  9
  20475677.144    -2093610.93449  -1624070.53249  20475678.4174   20475683.9654
  22250978.784     5751468.78749   4476901.31149  22250980.9344   22250984.2744
  20206592.043    -3136672.59849  -2438207.09649  20206593.9824   20206598.7514
  23702876.843    -8661485.92749  -6513213.40849  23702878.9864   23702884.8624
  23217695.016     7985961.07749   6211823.13949  23217697.8674   23217703.7764
 96  8 11 15 29 29.9990000  0  5 24  4  5  6  9
  20477310.065    -2085031.36349  -1617385.15849  20477311.4544   20477316.7184
  22265528.874     5827938.57149   4536488.13549  22265532.5574   22265536.4454
  20205347.359    -3143216.15049  -2443305.97449  20205348.8104   20205353.7874
  23686678.677    -8746614.75449  -6579547.52849  23686679.9604   23686686.0104
  23235133.625     8077587.48549   6283220.29549  23235134.4794   23235140.1014
 96  8 11 15 29 59.9990000  0  5 24  4  5  6  9
  20479039.808    -2075938.25949  -1610299.62149  20479042.1274   20479046.4854
  22280148.052     5904752.81049   4596343.35849  22280149.5384   22280153.1804
  20204197.642    -3149268.17549  -2448021.85449  20204197.4824   20204201.9354
  23670502.855    -8831614.20349  -6645780.85749  23670504.6904   23670510.3744
  23252615.154     8169452.16149   6354803.11649  23252615.5834   23252621.9634
 96  8 11 15 30 29.9990000  0  5 24  4  5  6  9
  20480868.091    -2066331.22349  -1602813.62549  20480869.6284   20480875.4704
  22294830.270     5981898.15649   4656456.59749  22294829.6254   22294834.4924
  20203132.399    -3154855.81349  -2452375.85449  20203134.0544   20203138.5994
  23654349.638    -8916495.20149  -6711921.87849  23654352.1284   23654357.7414
  23270139.127     8261544.33549   6426563.21849  23270139.8094   23270146.2124
 96  8 11 15 30 59.9990000  0  5 24  4  5  6  9
  20482795.974    -2056200.83649  -1594919.80949  20482797.7954   20482803.0524
  22309572.571     6059370.62849   4716824.73449  22309573.1204   22309577.1664
  20202157.256    -3159986.01949  -2456373.42549  20202157.4614   20202162.3104
  23638220.545    -9001263.98249  -6777975.45449  23638221.7384   23638227.4654
  23287705.187     8353853.35449   6498492.28849  23287705.6154   23287712.4274
 96  8 11 15 31 29.9990000  0  5 24  4  5  6  9
  20484821.945    -2045541.74149  -1586614.03249  20484825.8304   20484831.4974
  22324377.277     6137173.42849   4777450.27849  22324378.2974   22324382.3544
  20201270.453    -3164643.18749  -2460002.39149  20201271.4894   20201276.1014
  23622109.818    -9085922.08649  -6843942.77449  23622111.6724   23622117.1964
  23305298.009     8446328.52749   6570550.81649  23305303.2384   23305309.6844
 96  8 11 15 31 59.9990000  0  5 24  4  5  6  9
  20486960.982    -2034318.75749  -1577868.85249  20486961.9024   20486966.9064
  22339247.971     6215317.10649   4838341.44149  22339248.9924   22339252.8994
  20200479.628    -3168791.58149  -2463234.90749  20200482.3554   20200486.6594
  23606025.402    -9170440.70349  -6909801.40449  23606028.1254   23606034.2624
  23322929.720     8538970.89549   6642739.63949  23322931.6584   23322939.0304
 96  8 11 15 32 29.9990000  0  6 24 16  4  5  6  9
  20489199.889    -2022548.70149  -1568697.38449  20489201.2154   20489206.8084
  24621969.371    -5364599.07459  -4167786.85159  24621968.4204   24621976.8304
  22354178.480     6293779.90649   4899481.26749  22354178.6874   22354183.8134
  20199791.042    -3172414.70749  -2466058.12649  20199792.6594   20199797.1784
  23589971.112    -9254828.53049  -6975558.14249  23589970.2474   23589975.3634
  23340588.210     8631761.68349   6715044.10849  23340590.3504   23340596.7554
 96  8 11 15 32 59.9990000  0  6 24 16  4  5  6  9
  20491541.147    -2010239.53149  -1559105.82349  20491543.7694   20491549.1344
  24601836.806    -5470369.33749  -4250205.15049  24601840.4254   24601850.6094
  22369168.428     6372574.60349   4960879.73049  22369173.1334   22369177.2024
  20199207.429    -3175489.92249  -2468454.40549  20199207.5504   20199212.5954
  23573932.912    -9339087.58749  -7041214.52849  23573935.5894   23573939.6484
  23358275.374     8724692.81849   6787457.92949  23358274.5814   23358281.2664
 96  8 11 15 33 29.9990000  0  6 24 16  4  5  6  9
  20493980.563    -1997415.75249  -1549113.27549  20493983.6484   20493989.4794
  24581717.736    -5576126.83649  -4332613.52049  24581715.4144   24581725.1514
  22384229.054     6451681.76249   5022521.63849  22384226.9404   22384231.0724
  20198720.375    -3178039.98249  -2470441.47149  20198722.5094   20198726.7304
  23557919.090    -9423235.19449  -7106784.06849  23557922.5644   23557928.5704
  23375978.453     8817753.44849   6859972.67249  23375983.5424   23375989.7314
 96  8 11 15 33 59.9990000  0  6 24 16  4  5  6  9
  20496517.476    -1984093.19449  -1538732.07049  20496519.2364   20496524.8024
  24561595.406    -5681882.22649  -4415020.29249  24561591.5864   24561599.2074
  22399333.916     6531096.14449   5084402.95849  22399338.6804   22399343.1574
  20198331.578    -3180087.09349  -2472036.63649  20198332.6014   20198337.4334
  23541931.084    -9507281.48449  -7172274.66449  23541930.5584   23541934.3844
  23393719.007     8910981.10749   6932617.52249  23393724.0204   23393730.5504
 96  8 11 15 34 29.9990000  0  6 24 16  4  5  6  9
  20499147.262    -1970281.49049  -1527969.70349  20499147.8384   20499152.6594
  24541426.347    -5787644.23349  -4497432.17749  24541465.6354   24541473.0394
  22414509.555     6610822.52349   5146527.38149  22414510.7584   22414514.7394
  20198037.231    -3181630.74249  -2473239.49849  20198039.0214   20198043.6374
  23525952.548    -9591234.19749  -7237692.36049  23525954.6494   23525960.0754
  23411501.407     9004384.80149   7005399.53949  23411498.3564   23411504.5724
 96  8 11 15 34 59.9990000  0  6 24 16  4  5  6  9
  20501871.123    -1955951.05049  -1516803.12649  20501874.1744   20501880.1724
  24521341.070    -5893423.27849  -4579857.34149  24521337.1374   24521345.3784
  22429736.910     6690867.74349   5208900.26349  22429742.6284   22429746.4714
  20197839.913    -3182672.36449  -2474051.16949  20197840.6514   20197845.2894
  23509994.457    -9675085.15249  -7303030.74549  23509996.2064   23510002.8494
  23429308.619     9097977.33949   7078328.73449  23429308.0644   23429315.7134
 96  8 11 15 35 29.9990000  0  6 24 16  4  5  6  9
  20504701.899    -1941083.08349  -1505217.70749  20504703.8434   20504709.0554
  24501213.285    -5999202.87949  -4662282.95249  24501209.0384   24501216.2474
  22445034.220     6771226.30249   5271517.29449  22445035.0874   22445038.4994
  20197738.270    -3183200.04949  -2474462.36549  20197740.5534   20197745.1054
  23494062.268    -9758821.67749  -7368279.93249  23494063.3254   23494069.0424
  23447155.093     9191776.79049   7151419.16749  23447157.1474   23447164.1824
 96  8 11 15 35 59.9990000  0  7 24 16  4  5  6  9 10
  20507632.056    -1925691.18349  -1493224.01249  20507632.9014   20507638.2434
  24481073.560    -6104983.91749  -4744709.69649  24481080.7804   24481086.1544
  22460378.663     6851876.62849   5334361.68449  22460381.8724   22460385.0784
  20197736.362    -3183216.03649  -2474474.82849  20197737.2194   20197741.8384
  23478147.883    -9842454.69149  -7433448.51249  23478147.5874   23478153.6264
  23465039.166     9285751.75449   7224646.33149  23465041.0354   23465046.4564
  23457414.649     -230199.97619   -156978.00459                  23457429.8834
 96  8 11 15 36 29.9990000  0  7 24 16  4  5  6  9 10
  20510666.652    -1909742.18049  -1480796.22449  20510667.3484   20510672.8054
  24460948.791    -6210733.97149  -4827112.29349  24460957.1044   24460962.4834
  22475786.532     6932823.07849   5397436.80849  22475785.4974   22475789.1994
  20197835.289    -3182694.07549  -2474068.11049  20197836.6884   20197841.3524
  23462257.219    -9925954.11649  -7498513.00949  23462259.5624   23462263.1494
  23482953.970     9379897.20049   7298006.35449  23482956.1514   23482961.5094
  23439024.393     -326901.62159   -232329.86749  23439021.0364   23439029.1334
 96  8 11 15 36 59.9990000  0  7 24 16  4  5  6  9 10
  20513804.007    -1893249.33349  -1467944.66149  20513805.9944   20513811.3734
  24440837.971    -6316455.33049  -4909492.50249  24440838.5044   24440843.8194
  22491234.014     7014044.74249   5460726.39949  22491241.2124   22491245.3094
  20198031.985    -3181659.01849  -2473261.58149  20198033.6184   20198038.5254
  23446390.823   -10009334.09249  -7563484.41349  23446392.3904   23446398.5554
  23500902.296     9474201.32049   7371490.00849  23500901.6774   23500907.9724
  23420653.916     -423420.75849   -307539.55759  23420655.6804   23420661.3144
 96  8 11 15 37 29.9990000  0  7 24 16  4  5  6  9 10
  20517043.250    -1876237.15249  -1454688.41749  20517043.9184   20517048.5344
  24420723.382    -6422138.77349  -4991843.14549  24420727.1664   24420732.5054
  22506751.608     7095541.72449   5524230.51249  22506749.8984   22506754.3064
  20198325.391    -3180119.23249  -2472061.76749  20198326.5654   20198331.6974
  23430545.361   -10092595.67149  -7628363.54449  23430547.1404   23430554.0754
  23518879.366     9568660.51549   7445094.53149  23518876.6844   23518883.0674
  23402324.387     -519772.16159   -382618.56949  23402322.7664   23402325.7244
 96  8 11 15 37 59.9990000  0  7 24 16  4  5  6  9 10
  20520373.783    -1858717.20849  -1441036.51649  20520377.6764   20520383.2514
  24400627.819    -6527783.38349  -5074163.56049  24400624.3974   24400630.2104
  22522308.302     7177316.61849   5587951.18849  22522312.1254   22522315.5154
  20198712.460    -3178084.44049  -2470476.22749  20198714.3754   20198718.6664
  23414724.254   -10175740.28349  -7693151.54749  23414726.4954   23414731.7174
  23536879.295     9663269.26449   7518815.59449  23536879.9134   23536885.3954
  23384019.286     -615941.87349   -457556.01349  23384021.6984   23384025.5584
 96  8 11 15 38 29.9990000  0  7 24 16  4  5  6  9 10
  20523806.398    -1840683.70249  -1426984.43849  20523808.9714   20523814.3764
  24380531.023    -6633383.10649  -5156449.04749  24380529.3624   24380535.7104
  22537929.408     7259387.54849   5651902.53149  22537929.5644   22537933.3334
  20199197.070    -3175546.11249  -2468498.31649  20199197.1684   20199201.8214
  23398925.474   -10258768.80049  -7757849.06049  23398926.4284   23398932.0834
  23554914.483     9758043.81049   7592665.85449  23554914.2274   23554920.3314
  23365762.618     -711910.75649   -532336.92749  23365758.2494   23365764.1824
 96  8 11 15 38 59.9990000  0  7 24 16  4  5  6  9 10
  20527333.545    -1822156.25949  -1412547.46949  20527335.3024   20527339.8814
  24360434.469    -6738951.72149  -5238710.24749  24360438.9534   24360446.1594
  22553599.018     7341753.82049   5716084.03149  22553602.4834   22553606.6294
  20199774.374    -3172501.38249  -2466125.81549  20199776.1914   20199781.0754
  23383143.467   -10341698.80449  -7822469.80649  23383144.9084   23383150.8844
  23572980.208     9852972.28149   7666636.03749  23572979.8584   23572986.0564
  23347536.099     -807673.36249   -606957.10549  23347533.7714   23347541.2274
 96  8 11 15 39 29.9990000  0  7 24 16  4  5  6  9 10
  20530949.330    -1803134.76549  -1397725.52949  20530954.5594   20530959.6504
  24340350.719    -6844504.00349  -5320958.70049  24340351.2344   24340361.3404
  22569328.785     7424408.34849   5780490.12649  22569330.8844   22569335.6844
  20200451.745    -3168948.08249  -2463357.02149  20200452.6134   20200457.2924
  23367380.910   -10424534.76949  -7887017.27649  23367381.0924   23367386.7594
  23591068.592     9948032.02149   7740708.49949  23591069.1174   23591074.7734
  23329350.643     -903208.53449   -681400.06149  23329354.0594   23329362.2184
 96  8 11 15 39 59.9990000  0  7 24 16  4  5  6  9 10
  20534674.787    -1783588.51149  -1382494.69249  20534674.3944   20534679.3584
  24320282.129    -6950021.74849  -5403180.23649  24320271.4684   24320282.1214
  22585112.626     7507366.36049   5845132.72349  22585116.6254   22585121.8944
  20201229.081    -3164859.39949  -2460171.04149  20201230.5944   20201235.3964
  23351636.666   -10507258.36849  -7951477.24349  23351639.1994   23351645.2894
  23609182.016    10043234.04849   7814891.83649  23609185.6454   23609191.1754
  23311222.466     -998481.02549   -755638.29349  23311222.2314   23311231.7954
 96  8 11 15 40 29.9990000  0  7 24 16  4  5  6  9 10
  20538489.131    -1763523.04649  -1366859.26349  20538492.3514   20538497.9344
  24300187.389    -7055513.45049  -5485381.48549  24300198.7364   24300206.1394
  22600958.277     7590610.54749   5909998.28849  22600958.1224   22600962.0184
  20202106.461    -3160247.43849  -2456577.31749  20202108.1704   20202112.5774
  23335918.797   -10589872.31449  -8015851.72349  23335919.6774   23335924.4164
  23627323.389    10138561.38949   7889172.81849  23627325.4434   23627331.6364
  23293151.377    -1093502.74749   -829681.17249  23293141.3974   23293149.7634
 96  8 11 15 40 59.9990000  0  7 24 16  4  5  6  9 10
  20542410.734    -1742925.28449  -1350809.07249  20542412.0754   20542417.0244
  24280125.905    -7160944.84449  -5567535.78849  24280135.6584   24280142.8224
  22616844.055     7674139.53949   5975085.80649  22616853.0914   22616857.3744
  20203087.772    -3155099.84749  -2452566.22149  20203087.7794   20203092.3284
  23320221.035   -10672350.82049  -8080120.66849  23320224.0634   23320229.8864
  23645490.078    10234028.72749   7963562.90849  23645492.4204   23645498.1324
  23275107.391    -1188247.91449   -903508.55949  23275111.6614   23275118.6994
 96  8 11 15 41 29.9990000  0  7 24 16  4  5  6  9 10
  20546428.395    -1721818.64849  -1334362.35049  20546428.9224   20546434.0914
  24260094.740    -7266315.64549  -5649642.84749  24260083.2164   24260091.2184
  22632802.221     7757939.18549   6040384.19549  22632800.2664   22632803.4564
  20204163.904    -3149434.55549  -2448151.71549  20204165.8414   20204170.6314
  23304552.892   -10754698.72349  -8144287.84049  23304553.5584   23304558.9084
  23663681.159    10329614.92349   8038045.60849  23663681.3724   23663688.1224
  23257130.463    -1282744.36049   -977142.11849  23257130.7424   23257136.8784
 96  8 11 15 41 59.9990000  0  7 24 16  4  5  6  9 10
  20550537.659    -1700206.71249  -1317521.87849  20550541.0344   20550546.2904
  24240050.779    -7371601.16549  -5731683.46949  24240047.6004   24240055.0244
  22648795.758     7842012.38849   6105895.75449  22648799.4564   22648803.0344
  20205344.070    -3143233.56149  -2443319.78049  20205345.6644   20205350.7764
  23288911.148   -10836895.58949  -8208337.32949  23288912.3914   23288916.9054
  23681892.081    10425330.87249   8112629.44149  23681895.7254   23681901.1254
  23239202.141    -1376995.62549  -1050584.64449  23239195.2844   23239201.2044
 96  8 11 15 42 29.9990000  0  7 24 16  4  5  6  9 10
  20554753.073    -1678071.59549  -1300273.75249  20554753.5454   20554758.9764
  24220028.504    -7476771.87449  -5813634.62149  24220035.3204   24220043.0404
  22664849.726     7926376.40249   6171633.93449  22664852.6184   22664857.3624
  20206629.659    -3136476.45849  -2438054.50849  20206631.1304   20206636.2134
  23273304.959   -10918916.87449  -8272250.00249  23273304.3164   23273309.1144
  23700136.358    10521186.92049   8187322.43649  23700136.7454   23700142.1194
  23221302.504    -1470985.70549  -1123823.65049  23221309.6164   23221315.7514
 96  8 11 15 42 59.9990000  0  7 24 16  4  5  6  9 10
  20559061.149    -1655430.37549  -1282631.25049  20559062.1114   20559067.0324
  24200033.844    -7581853.44949  -5895516.30449  24200038.6644   24200046.8914
  22680960.149     8011015.61849   6237586.52949  22680959.4704   22680963.4454
  20208021.897    -3129168.82749  -2432360.25849  20208022.1294   20208026.9824
  23257723.609   -11000791.84849  -8336048.67549  23257723.8624   23257728.7364
  23718404.341    10617164.77549   8262110.31649  23718401.9744   23718407.3114
  23203476.069    -1564735.58549  -1196875.45249  23203469.8384   23203475.6974
 96  8 11 15 43 29.9990000  0  7 24 16  4  5  6  9 10
  20563462.859    -1632279.67449  -1264591.74649  20563466.8874   20563472.6034
  24180055.929    -7686874.67949  -5977350.95249  24180053.4724   24180063.6604
  22697114.585     8095930.19249   6303753.72149  22697118.1484   22697122.5964
  20209513.981    -3121317.27349  -2426242.16949  20209516.4914   20209521.0904
  23242169.629   -11082522.44749  -8399734.85349  23242171.4984   23242176.3464
  23736680.810    10713259.68959   8336989.40649  23736687.2824   23736693.6984
  23185677.778    -1658258.01749  -1269750.05949  23185674.3404   23185679.4484
 96  8 11 15 43 59.9990000  0  7 24 16  4  5  6  9 10
  20567969.601    -1608619.86749  -1246155.54349  20567969.4534   20567974.8184
  24160070.577    -7791857.71849  -6059155.82949  24160075.4194   24160085.0144
  22713320.809     8181095.46149   6370116.24349  22713324.0314   22713329.1904
  20211109.943    -3112939.48749  -2419714.04149  20211110.4354   20211115.5554
  23226639.743   -11164133.91849  -8463328.16549  23226640.3114   23226647.0304
  23754997.076    10809462.82549   8411952.79449  23754995.1724   23754999.9354
  23167919.728    -1751542.67249  -1342439.38349  23167922.3334   23167928.6214
 96  8 11 15 44 29.9990000  0  7 24 16  4  5  6  9 10
  20572568.569    -1584442.41249  -1227315.97549  20572570.6774   20572575.8214
  24140094.803    -7896804.80449  -6140932.73049  24140104.2914   24140112.9634
  22729578.197     8266525.53549   6436685.10549  22729580.0574   22729584.9584
  20212804.383    -3104034.14449  -2412774.82249  20212805.3194   20212809.6994
  23211131.093   -11245624.82249  -8526827.56449  23211133.4344   23211139.1444
  23773321.183    10905789.39349   8487012.38749  23773324.4144   23773329.2994
  23150213.616    -1844561.49549  -1414921.56549  23150221.3944   23150228.1014
 96  8 11 15 44 59.9990000  0  7 24 16  4  5  6  9 10
  20577264.036    -1559768.80649  -1208089.78849  20577265.3134   20577270.7024
  24120143.117    -8001724.05749  -6222687.93449  24120139.0894   24120145.9534
  22745883.399     8352212.40049   6503454.08149  22745885.4074   22745891.0884
  20214597.551    -3094610.77549  -2405431.94149  20214598.2124   20214603.0184
  23195645.510   -11327001.71649  -8590238.09149  23195647.0334   23195654.0684
  23791678.450    11002247.13649   8562174.20349  23791680.0704   23791685.8524
  23132573.784    -1937313.26649  -1487195.61449  23132569.8094   23132577.4414
 96  8 11 15 45 29.9990000  0  7 24 16  4  5  6  9 10
  20582048.407    -1534629.27949  -1188500.55649  20582049.6724   20582054.9784
  24100172.077    -8106616.49649  -6304422.28049  24100180.7334   24100184.1544
  22762236.215     8438135.13749   6570406.82649  22762236.6984   22762241.8264
  20216481.839    -3084696.23149  -2397706.33449  20216485.0524   20216489.6214
  23180181.567   -11408272.65449  -8653566.05449  23180183.6074   23180189.3064
  23810052.499    11098811.24349   8637418.88849  23810055.8604   23810060.7334
  23114956.659    -2029800.57249  -1559263.61849  23114968.2774   23114976.9794
 96  8 11 15 45 59.9990000  0  7 24 16  4  5  6  9 10
  20586924.592    -1508991.90649  -1168523.38449  20586928.4934   20586933.9414
  24080235.357    -8211414.63549  -6386083.13849  24080238.2674   24080242.8074
  22778633.095     8524337.68449   6637577.62449  22778640.9694   22778645.4724
  20218473.203    -3074247.90449  -2389564.80149  20218473.3594   20218478.2224
  23164743.533   -11489402.35149  -8716783.99649  23164743.8884   23164749.3994
  23828458.403    11195516.16149   8712773.28049  23828457.1094   23828462.8174
  23097433.353    -2121972.81649  -1631086.11649  23097430.6714   23097436.9894
 96  8 11 15 46 29.9990000  0  7 24 16  4  5  6  9 10
  20591891.298    -1482899.54649  -1148191.68549  20591893.5544   20591898.6044
  24060305.789    -8316136.36149  -6467684.43549  24060309.2654   24060317.7854
  22795097.097     8610798.63449   6704949.75849  22795094.2674   22795098.4424
  20220557.204    -3063289.41449  -2381025.72949  20220558.8834   20220563.5454
  23149327.192   -11570416.14049  -8779911.60649  23149328.2084   23149333.0014
  23846880.665    11292334.16549   8788215.78949  23846881.5374   23846887.2094
  23079943.675    -2213879.77549  -1702701.89749  23079941.2264   23079948.5194
 96  8 11 15 46 59.9990000  0  7 24 16  4  5  6  9 10
  20596948.222    -1456331.12849  -1127489.03449  20596949.1444   20596954.7804
  24040387.998    -8420752.51049  -6549203.41949  24040399.6824   24040409.8844
  22811594.232     8697524.17949   6772528.07749  22811597.1294   22811601.8954
  20222742.000    -3051801.52249  -2372074.13549  20222744.7254   20222749.5344
  23133932.820   -11651308.06849  -8842944.28949  23133934.7594   23133939.6154
  23865323.632    11389255.60349   8863738.90549  23865325.9914   23865331.1204
  23062496.434    -2305518.74049  -1774108.86049  23062502.9714   23062510.1774
 96  8 11 15 47 29.9990000  0  7 24 16  4  5  6  9 10
  20602096.377    -1429266.36349  -1106399.61249  20602099.0394   20602104.5704
  24020507.784    -8525247.70949  -6630628.17349  24020515.4294   24020525.2534
  22828150.391     8784516.92049   6840314.61149  22828151.6324   22828156.1844
  20225032.130    -3039772.04949  -2362700.53449  20225033.9134   20225038.7484
  23118563.499   -11732079.81749  -8905883.29549  23118563.3044   23118568.8764
  23883785.301    11486270.26249   8939334.66949  23883786.7494   23883792.4064
  23045119.956    -2396885.27549  -1845303.53049  23045116.1884   23045122.9244
 96  8 11 15 47 59.9990000  0  7 24 16  4  5  6  9 10
  20607344.780    -1401697.21949  -1084917.17749  20607345.8874   20607351.2294
  24000648.399    -8629628.63249  -6711963.90149  24000652.7474   24000661.6654
  22844755.553     8871776.07949   6908308.72849  22844755.5024   22844760.4924
  20227427.140    -3027196.08249  -2352901.09549  20227427.0324   20227432.3304
  23103214.997   -11812728.51649  -8968726.43249  23103217.9214   23103222.9464
  23902263.135    11583371.39549   9014997.81949  23902265.4824   23902271.5904
  23027773.668    -2487990.90649  -1916294.92049  23027780.1404   23027785.8264
 96  8 11 15 48 29.9990000  0  7 24 16  4  5  6  9 10
  20612685.367    -1373620.50449  -1063039.22449  20612688.6784   20612694.1444
  23980807.458    -8733893.95849  -6793209.54349  23980811.6244   23980820.0394
  22861408.284     8959290.73549   6976501.95349  22861410.0044   22861413.9144
  20229924.248    -3014070.72649  -2342673.54949  20229924.5864   20229929.4714
  23087893.477   -11893246.11249  -9031467.40549  23087894.4184   23087900.7424
  23920758.174    11680553.45349   9090724.04349  23920757.1534   23920763.0964
  23010493.489    -2578819.54749  -1987070.45849  23010495.4884   23010501.3144
 96  8 11 15 48 59.9990000  0  7 24 16  4  5  6  9 10
  20618126.986    -1345025.13549  -1040757.12549  20618130.0824   20618135.3754
  23960980.085    -8838043.58849  -6874365.06149  23960992.8104   23961000.7824
  22878108.654     9047044.02049   7044881.09049  22878109.2544   22878113.5974
  20232521.691    -3000409.86749  -2332028.73149  20232523.9994   20232529.3544
  23072596.713   -11973631.47549  -9094105.33349  23072598.3054   23072603.6184
  23939265.163    11777812.78749   9166510.49349  23939265.7364   23939271.5614
  22993272.085    -2669356.30349  -2057618.55949  22993267.5554   22993273.5274
 96  8 11 15 49 29.9990000  0  7 24 16  4  5  6  9 10
  20623665.336    -1315934.19949  -1018088.87549  20623665.8774   20623671.0294
  23941195.442    -8942083.79349  -6955435.31649  23941196.6914   23941202.0194
  22894847.256     9135021.20149   7113434.71549  22894850.5634   22894855.3814
  20235221.376    -2986237.06849  -2320985.00449  20235221.4364   20235225.9614
  23057323.781   -12053885.58049  -9156641.00149  23057326.5634   23057332.6684
  23957786.367    11875159.72049   9242365.18249  23957788.6224   23957796.0194
  22976084.123    -2759607.09749  -2127943.84549  22976093.2024   22976098.9294
 96  8 11 15 49 59.9990000  0  7 24 16  4  5  6  9 10
  20629293.427    -1286350.63349   -995036.75749  20629295.2534   20629300.5984
  23921423.015    -9046012.25949  -7036418.49949  23921420.5104   23921425.4684
  22911634.156     9223221.44149   7182162.12949  22911633.3954   22911638.5574
  20238013.647    -2971551.79149  -2309541.93349  20238015.7534   20238020.5994
  23042079.230   -12134002.72349  -9219069.92449  23042081.8074   23042085.5154
  23976335.451    11972605.33149   9318296.76349  23976333.6964   23976340.2744
  22958977.320    -2849560.67049  -2198037.50149  22958974.5884   22958982.0514
 96  8 11 15 50 29.9990000  0  7 24 16  4  5  6  9 10
  20635013.911    -1256277.74449   -971603.35149  20635018.1104   20635023.0994
  23901665.885    -9149822.35149  -7117309.44749  23901664.5604   23901670.1814
  22928452.072     9311636.59149   7251057.03549  22928458.5294   22928464.1224
  20240905.332    -2956354.54149  -2297699.93049  20240907.2554   20240912.5414
  23026859.608   -12213988.27049  -9281396.32949  23026860.2704   23026865.2294
  23994898.209    12070162.49849   9394315.30649  23994898.4934   23994904.4934
  22941914.125    -2939206.22049  -2267891.15049  22941916.1094   22941922.8244
 96  8 11 15 50 59.9990000  0  7 24 16  4  5  6  9 10
  20640831.916    -1225730.24549   -947800.11149  20640831.8914   20640836.7944
  23881923.695    -9253533.56249  -7198123.33749  23881927.3594   23881934.3164
  22945324.282     9400267.23149   7320119.84249  22945324.7604   22945330.1114
  20243897.172    -2940645.57849  -2285459.20349  20243896.8774   20243901.8844
  23011660.636   -12293854.12149  -9343629.44349  23011661.0864   23011667.7304
  24013475.769    12167814.61849   9470407.80949  24013480.5574   24013487.3934
  22924915.827    -3028567.48249  -2337523.29449  22924911.3894   22924917.6974
 96  8 11 15 51 29.9990000  0  7 24 16  4  5  6  9 10
  20646727.833    -1194729.56649   -923643.74349  20646730.4704   20646736.1454
  23862195.610    -9357161.84949  -7278872.60249  23862205.7324   23862214.4394
  22962228.327     9489111.11849   7389348.81549  22962231.2684   22962235.8194
  20246981.608    -2924423.83049  -2272818.89149  20246984.0454   20246988.6254
  22996480.877   -12373613.59249  -9405779.66849  22996483.0054   22996489.6064
  24032075.509    12265536.84249   9546554.95249  24032076.8144   24032082.4484
  22907960.515    -3117647.49849  -2406936.27949  22907959.5164   22907966.4854
 96  8 11 15 51 59.9990000  0  7 24 16  4  5  6  9 10
  20652716.495    -1163254.68249   -899117.87249  20652719.8804   20652725.3884
  23842506.849    -9460698.19149  -7359550.20649  23842504.5724   23842512.9474
  22979184.738     9578194.87249   7458764.69649  22979183.9994   22979187.6904
  20250175.089    -2907653.85449  -2259751.38049  20250175.3384   20250180.5164
  22981327.747   -12453242.98449  -9467828.51849  22981331.5674   22981335.9434
  24050686.227    12363338.07949   9622763.64949  24050687.5674   24050692.4024
  22891060.313    -3206418.10249  -2476108.15149  22891066.2164   22891073.5874
 96  8 11 15 52 29.9990000  0  7 24 16  4  5  6  9 10
  20658796.918    -1131309.83249   -874225.78549  20658798.8534   20658803.7034
  23822823.560    -9564141.29649  -7440155.17749  23822820.5824   23822829.7834
  22996180.043     9667523.66749   7528371.51449  22996182.8894   22996187.1644
  20253470.328    -2890332.85149  -2246254.51849  20253471.1394   20253476.3984
  22966204.943   -12532732.00049  -9529767.99449  22966204.8124   22966210.5794
  24069309.164    12461208.597 9   9699026.31459                  24069316.8244
  22874238.358    -3294878.39249  -2545038.21449  22874233.7254   22874240.4124
 96  8 11 15 52 59.9990000  0  7 24 16  4  5  6  9 10
  20664967.302    -1098887.87749   -848961.93749  20664968.5694   20664973.2534
  23803158.218    -9667481.39649  -7520679.89349  23803156.5364   23803163.9414
  23013230.808     9757111.36049   7598180.07649  23013230.8304   23013234.1774
  20256872.875    -2872455.62249  -2232324.22249  20256873.3024   20256878.0484
  22951104.587   -12612073.08949  -9591592.23149  22951107.0814   22951110.7874
  24087949.770    12559144.49159   9775339.91549  24087948.4084   24087954.3184
  22857460.341    -3383016.58549  -2613717.30649  22857462.2854   22857468.8304
 96  8 11 15 53 29.9990000  0  7 24 16  4  5  6  9 10
  20671229.569    -1065975.34049   -823315.80849  20671231.5374   20671236.7274
  23783521.324    -9770695.03549  -7601106.06949  23783516.1044   23783523.3134
  23030327.691     9846963.24449   7668194.48849  23030327.9814   23030332.5244
  20260380.814    -2854020.25249  -2217959.01149  20260381.0934   20260386.1514
  22936039.619   -12691246.82549  -9653286.02549  22936041.0344   22936046.0774
  24106599.661    12657173.60449   9851726.16349  24106604.3714   24106608.8054
  22840757.025    -3470809.12049  -2682127.06249  22840756.5914   22840762.7894
 96  8 11 15 53 59.9990000  0  7 24 16  4  5  6  9 10
  20677583.044    -1032588.37849   -797300.00349  20677584.5324   20677590.2444
  23763894.433    -9873794.05949  -7681442.93649  23763897.7024   23763904.0454
  23047466.831     9937049.74349   7738391.72849  23047471.0374   23047474.5424
  20263992.765    -2835038.38649  -2203167.97049  20263993.6104   20263998.5354
  22921000.951   -12770261.69249  -9714856.05749  22921003.9114   22921010.8174
  24125270.058    12755287.07049   9928178.17049  24125272.7494   24125280.5204
  22824104.743    -3558280.05849  -2750286.21249  22824109.9674   22824118.3104
 96  8 11 15 54 29.9990000  0  7 24 16  4  5  6  9 10
  20684025.267     -998740.81949   -770925.29249  20684025.9294   20684031.0504
  23744300.520    -9976773.60949  -7761686.71549  23744301.8474   23744307.9564
  23064653.152    10027337.36949   7808745.69049  23064652.7674   23064656.3754
  20267702.588    -2815542.10849  -2187976.08049  20267703.9614   20267708.7304
  22905989.978   -12849150.79649  -9776328.08349  22905992.6344   22905997.8934
  24143951.197    12853450.77349  10004669.30349  24143953.8944   24143958.1154
  22807517.590    -3645441.96449  -2818204.55049  22807522.1814   22807530.9614
 96  8 11 15 54 59.9990000  0  7 24 16  4  5  6  9 10
  20690555.705     -964414.00249   -744177.13549  20690558.0834   20690562.7704
  23724730.523   -10079607.49049  -7841816.98149  23724732.5944   23724739.5204
  23081863.719    10117829.00049   7879258.61949  23081872.1884   23081877.0274
  20271512.010    -2795528.21549  -2172380.86149  20271512.3504   20271517.1314
  22891006.478   -12927906.35049  -9837696.00749  22891006.6074   22891010.3574
  24162642.329    12951680.55049  10081211.89049  24162645.7434   24162651.8014
  22790995.762    -3732274.29749  -2885866.07449  22790998.6474   22791006.8204
 96  8 11 15 55 29.9990000  0  7 24 16  4  5  6  9 10
  20697174.529     -929629.38249   -717072.25249  20697177.5334   20697182.2974
  23705194.374   -10182293.99749  -7921832.40549  23705191.4664   23705197.2334
  23099126.218    10208496.69049   7949908.73649  23099125.7794   23099130.3684
  20275416.653    -2775004.48149  -2156388.35549  20275417.6874   20275422.7274
  22876039.702   -13006536.02749  -9898965.88549  22876042.0474   22876048.3364
  24181348.231    13049962.75849  10157795.34649  24181346.3014   24181354.2834
  22774538.548    -3818786.46249  -2953278.14349  22774537.0414   22774543.2274
 96  8 11 15 55 59.9990000  0  7 24 16  4  5  6  9 10
  20703888.897     -894358.97949   -689588.82249  20703889.4094   20703893.9074
  23685686.163   -10284798.85249  -8001706.29149  23685685.8404   23685690.8384
  23116417.107    10299360.77049   8020711.88649  23116417.0964   23116421.7374
  20279426.721    -2753936.03649  -2139971.40549  20279427.2694   20279431.7974
  22861107.797   -13085016.65549  -9960119.60249  22861109.2054   22861113.7934
  24200057.358    13148298.62249  10234420.63349  24200060.8544   24200066.1254
  22758129.864    -3904950.08349  -3020418.61749  22758140.8164   22758147.4494
 96  8 11 15 56 29.9990000  0  7 24 16  4  5  6  9 10
  20710687.631     -858629.30749   -661747.52749  20710688.0614   20710693.2514
  23666214.838   -10387136.87649  -8081450.16949  23666209.6874   23666215.9624
  23133741.667    10390404.40949   8091654.94049  23133741.9014   23133746.8294
  20283531.854    -2732355.85349  -2123155.69349  20283533.7074   20283538.5154
  22846196.363   -13163366.18649 -10021171.18849  22846198.3374   22846204.4554
  24218776.640    13246654.97149  10311061.88049  24218777.9014   24218783.5964
  22741813.259    -3990773.51549  -3087293.98249  22741808.1214   22741816.1014
 96  8 11 15 56 59.9990000  0  7 24 16  4  5  6  9 10
  20717573.089     -822439.41249   -633547.61949  20717575.0524   20717580.1664
  23646762.639   -10489315.61449  -8161069.96049  23646765.4244   23646773.6044
  23151105.435    10481647.48049   8162753.41549  23151105.2174   23151109.8334
  20287741.005    -2710239.05649  -2105921.84549  20287742.1164   20287746.9564
  22831320.631   -13241549.94249 -10082093.58049  22831322.3844   22831327.2964
  24237504.439    13345049.39249  10387732.78049  24237501.8224   24237507.3784
  22725535.279    -4076243.13849  -3153893.67449  22725544.0184   22725551.6694
 96  8 11 15 57 29.9990000  0  7 24 16  4  5  6  9 10
  20724545.341     -785793.67749   -604992.52049  20724548.1814   20724553.8724
  23627348.840   -10591329.59649  -8240561.32149  23627353.2944   23627361.1784
  23168499.542    10573100.07749   8234015.14549  23168507.5744   23168512.7114
  20292055.729    -2687567.25849  -2088255.53349  20292056.5034   20292061.4804
  22816473.993   -13319568.70949 -10142887.43249  22816474.6104   22816480.7504
  24256228.699    13443480.47049  10464432.25849  24256232.6004   24256238.4734
  22709348.637    -4161354.56349  -3220214.24949  22709349.6404   22709354.2864
 96  8 11 15 57 59.9990000  0  7 24 16  4  5  6  9 10
  20731608.834     -748681.19349   -576073.71349  20731610.9094   20731615.7904
  23607969.856   -10693180.62749  -8319925.70249  23607971.5564   23607980.0014
  23185958.347    10664784.32749   8305457.37049  23185955.4404   23185959.7274
  20296476.115    -2664337.41549  -2070154.37649  20296477.2044   20296481.8714
  22801655.763   -13397428.33349 -10203557.24549  22801658.1744   22801663.4944
  24274973.703    13541956.98949  10541167.12149  24274971.6454   24274977.9664
  22693228.687    -4246098.71549  -3286248.64849  22693224.5224   22693228.9044
 96  8 11 15 58 29.9990000  0  7 24 16  4  5  6  9 10
  20738752.961     -711135.42249   -546817.27449  20738755.5754   20738759.9114
  23588614.012   -10794892.53549  -8399181.67149  23588616.0944   23588625.5064
  23203438.366    10756684.03849   8377067.50549  23203442.2154   23203447.2544
  20300994.109    -2640589.17549  -2051649.27549  20300996.2384   20301001.4234
  22786864.357   -13475164.52949 -10264130.87549  22786866.1934   22786871.2624
  24293710.651    13640467.61949  10617928.59949  24293717.9944   24293723.6544
  22677163.267    -4330498.79449  -3352014.93549  22677163.3394   22677167.6964
 96  8 11 15 58 59.9990000  0  7 24 16  4  5  6  9 10
  20745988.853     -673122.16049   -517196.56549  20745989.3164   20745993.8574
  23569292.507   -10896437.19949  -8478307.33649  23569293.3594   23569302.4504
  23220973.538    10848822.68549   8448863.82649  23220975.3504   23220980.5774
  20305621.699    -2616287.79849  -2032713.16349  20305620.7184   20305625.3284
  22772096.792   -13552773.75749 -10324605.63849  22772097.9554   22772102.0124
  24312476.591    13739056.09649  10694750.72349  24312478.6924   24312484.9264
  22661166.592    -4414535.48549  -3417498.06249  22661170.1074   22661176.2284
 96  8 11 15 59 29.9990000  0  7 24 16  4  5  6  9 10
  20753311.901     -634633.96649   -487205.76449  20753313.9404   20753317.8004
  23550008.339   -10997801.84249  -8557292.70949  23550005.4734   23550012.4944
  23238546.229    10941187.03549   8520836.01849  23238552.7484   23238556.5234
  20310346.561    -2591443.35749  -2013353.86949  20310348.4454   20310353.3744
  22757347.687   -13630278.24749 -10384998.73649  22757349.1404   22757354.5014
  24331252.918    13837722.04149  10771633.20549  24331253.8304   24331259.6694
  22645245.801    -4498220.89149  -3482707.43049  22645244.5234   22645252.5094
 96  8 11 15 59 59.9990000  0  7 24 16  4  5  6  9 10
  20760724.010     -595678.57849   -456850.91749  20760726.2734   20760731.1074
  23530741.980   -11099008.42249  -8636154.94349  23530744.9264   23530752.6114
  23256171.387    11033764.82849   8592974.51149  23256170.4044   23256174.4674
  20315173.936    -2566072.14049  -1993584.10649  20315176.5204   20315181.8424
  22742619.602   -13707668.26049 -10445302.62549  22742621.9854   22742627.9844
  24350045.034    13936452.16949  10848565.70349  24350042.1234   24350048.0874
  22629385.606    -4581562.65549  -3547649.05849  22629385.1284   22629392.8974
 96  8 11 16  0 29.9990000  0  8 24 16 25  4  5  6  9 10
  20768223.998     -556278.71849   -426149.74249  20768223.9714   20768228.9654
  23511505.586   -11200067.82749  -8714902.45549  23511512.5914   23511520.6774
  24666631.576    -4821974.91959  -3537545.36359  24666633.4944   24666636.0544
  23273814.661    11126521.14149   8665252.13449  23273820.0964   23273825.8554
  20320101.643    -2540184.13349  -1973411.65149  20320102.8984   20320107.7544
  22727913.455   -13784951.34249 -10505523.19249  22727915.2434   22727920.4874
  24368837.688    14035225.08649  10925531.55349  24368838.2724   24368844.7104
  22613585.553    -4664576.80249  -3612335.39149  22613589.8824   22613596.9724
 96  8 11 16  0 59.9990000  0  8 24 16 25  4  5  6  9 10
  20775803.449     -516435.86449   -395103.36349  20775805.7704   20775810.8914
  23492311.709   -11300979.76949  -8793535.05749  23492309.3324   23492317.2454
  24654630.115    -4885040.14449  -3586687.10749  24654631.5264   24654635.1714
  23291501.770    11219441.16149   8737657.30949  23291502.8744   23291506.4464
  20325129.386    -2513768.03649  -1952827.69149  20325129.7294   20325135.0154
  22713229.699   -13862114.80349 -10565650.55649  22713231.7354   22713236.8984
  24387643.998    14134030.13449  11002522.43549  24387640.4234   24387644.8494
  22597857.396    -4747261.58749  -3676765.09849  22597855.0764   22597862.1534
 96  8 11 16  1 29.9990000  0  8 24 16 25  4  5  6  9 10
  20783467.615     -476158.45149   -363718.38149  20783469.8554   20783475.2424
  23473134.264   -11401721.69049  -8872035.21849  23473139.8734   23473145.9844
  24642719.409    -4947623.18549  -3635453.09049  24642723.6394   24642731.0344
  23309221.357    11312544.58449   8810205.37849  23309221.0324   23309222.9214
  20330257.458    -2486812.87449  -1931823.68849  20330258.9494   20330263.9314
  22698577.168   -13939117.56149 -10625652.69549  22698578.8564   22698582.9944
  24406437.204    14232858.26649  11079531.33849  24406446.2494   24406454.5644
  22582190.745    -4829592.78449  -3740919.26049  22582188.1184   22582195.4614
 96  8 11 16  1 59.9990000  0  8 24 16 25  4  5  6  9 10
  20791211.708     -435468.51549   -332011.94649  20791212.8454   20791218.1754
  23454001.069   -11502306.39449  -8950412.87549  23454000.0584   23454004.7634
  24630910.755    -5009702.56249  -3683826.60849  24630910.4224   24630917.3694
  23326966.991    11405826.42949   8882892.49549  23326970.3284   23326974.0814
  20335489.239    -2459317.63849  -1910398.85049  20335491.3324   20335495.6974
  22683955.760   -14015955.58249 -10685526.46749  22683956.2594   22683962.3374
  24425253.459    14331700.76849  11156551.39649  24425254.5514   24425261.8854
  22566586.334    -4911560.17249  -3804789.93449  22566588.5834   22566596.9054
 96  8 11 16  2 29.9990000  0  8 24 16 25  4  5  6  9 10
  20799033.711     -394361.84549   -299980.78149  20799035.3854   20799040.7234
  23434896.326   -11602710.89449  -9028650.11649  23434894.6074   23434898.6564
  24619194.618    -5071273.53449  -3731803.99049  24619193.6734   24619199.5714
  23344751.285    11499276.22449   8955710.47849  23344753.5214   23344759.3594
  20340825.581    -2431282.02649  -1888552.93749  20340826.3374   20340831.1844
  22669360.973   -14092641.79949 -10745281.95049  22669364.1004   22669369.2704
  24444062.335    14430555.04849  11233580.62049  24444066.1884   24444071.7914
  22551063.570    -4993155.85149  -3868370.95849  22551061.9924   22551069.7534
 96  8 11 16  2 59.9990000  0  8 24 16 25  4  5  6  9 10
  20806939.278     -352817.88649   -267608.88249  20806940.6884   20806946.0404
  23415822.095   -11702924.95449  -9106738.97549  23415824.3264   23415830.3654
  24607576.839    -5132309.75949  -3779364.72849  24607578.3104   24607584.8294
  23362568.111    11592911.96249   9028673.36749  23362571.8794   23362576.4524
  20346262.896    -2402696.94149  -1866278.86049  20346265.6534   20346270.6244
  22654803.109   -14169154.53949 -10804902.23949  22654804.3314   22654808.4234
  24462881.407    14529422.14449  11310619.81049  24462881.4764   24462888.0084
  22535608.999    -5074357.35149  -3931644.84049  22535609.8864   22535617.6784
 96  8 11 16  3 29.9990000  0  8 24 16 25  4  5  6  9 10
  20814927.720     -310835.27749   -234895.15849  20814930.2474   20814935.6524
  23396791.917   -11802952.65349  -9184682.58049  23396788.3724   23396796.4684
  24596066.521    -5192809.52949  -3826507.38549  24596066.1214   24596073.0744
  23380422.769    11686721.24249   9101771.46649  23380423.6334   23380427.3864
  20351805.374    -2373568.20849  -1843581.15849  20351808.6794   20351813.6814
  22640274.916   -14245497.39449 -10864390.16849  22640276.5834   22640281.3644
  24481689.872    14628288.03649  11387658.08849  24481693.5234   24481699.9414
  22520228.883    -5155178.08649  -3994622.02549  22520230.9994   22520237.2394
 96  8 11 16  3 59.9990000  0  8 24 16 25  4  5  6  9 10
  20823003.389     -268399.20049   -201828.10149  20823005.0794   20823010.5684
  23377776.624   -11902787.66949  -9262476.04749  23377790.0254   23377799.3864
  24584647.335    -5252795.07349  -3873249.39949  24584651.7264   24584656.7344
  23398299.058    11780683.44849   9174988.73249  23398303.7904   23398307.4464
  20357452.530    -2343907.79049  -1820469.17249  20357453.0114   20357458.1984
  22625778.870   -14321678.15649 -10923751.79749  22625780.9314   22625784.6074
  24500511.472    14727148.51849  11464692.14949  24500507.3444   24500512.6854
  22504926.756    -5235614.29349  -4057299.57049  22504924.3334   22504929.5514
 96  8 11 16  4 29.9990000  0  8 24 16 25  4  5  6  9 10
  20831167.426     -225507.18849   -168405.76149  20831167.7224   20831173.2124
  23358837.150   -12002411.32649  -9340104.81149  23358832.2084   23358841.4444
  24573330.951    -5312283.90949  -3919604.29649  24573330.9644   24573332.7924
  23416213.587    11874795.62249   9248322.85749  23416211.8214   23416218.0004
  20363194.753    -2313722.31749  -1796948.03349  20363197.3204   20363201.9494
  22611311.495   -14397703.63949 -10982992.42249  22611312.5124   22611318.7854
  24519311.532    14825991.09249  11541712.27849  24519315.8914   24519324.3964
  22489686.545    -5315662.45149  -4119674.74849  22489691.6994   22489695.5674
 96  8 11 16  4 59.9990000  0  8 24 16 25  4  5  6  9 10
  20839410.932     -182178.31749   -134643.01149  20839412.5154   20839417.9014
  23339904.659   -12101836.28149  -9417578.74049  23339911.7074   23339921.2824
  24562102.346    -5371291.35649  -3965584.12149  24562101.6094   24562106.0394
  23434148.677    11969058.77349   9321774.61049  23434151.0784   23434155.3924
  20369036.489    -2283020.46949  -1773024.53049  20369039.7264   20369044.4694
  22596870.854   -14473580.36549 -11042117.12549  22596873.3024   22596879.5004
  24538121.175    14924811.62049  11618715.26149  24538121.5094   24538127.5644
  22474535.653    -5395329.92249  -4181753.30349  22474532.5434   22474537.1424
 96  8 11 16  5 29.9990000  0  8 24 16 25  4  5  6  9 10
  20847738.435     -138415.45249   -100542.08949  20847740.3824   20847745.2984
  23321029.239   -12201032.64049  -9494874.55449  23321036.1594   23321044.7064
  24550965.459    -5429834.64149  -4011202.26249  24550963.4354   24550970.1714
  23452110.291    12063483.33849   9395352.15649  23452118.8794   23452123.6654
  20374980.305    -2251793.98549  -1748692.22049  20374981.4204   20374986.7084
  22582461.440   -14549310.03749 -11101127.24649  22582462.1664   22582467.6024
  24556926.034    15023628.90649  11695715.67149  24556925.8114   24556933.4214
  22459444.410    -5474599.63949  -4243521.90649  22459447.3454   22459453.2294
 96  8 11 16  5 59.9990000  0  8 24 16 25  4  5  6  9 10
  20856148.220      -94230.03149    -66111.90449  20856148.5304   20856153.5454
  23302207.137   -12300001.08949  -9571992.76949  23302203.7544   23302211.0894
  24539901.206    -5487923.70749  -4056466.52949  24539906.8044   24539915.0604
  23470128.773    12158084.34649   9469067.19449  23470121.6964   23470125.7404
  20381021.809    -2220047.34149  -1723954.58849  20381022.7704   20381027.7374
  22568075.167   -14624911.00949 -11160037.08049  22568075.2694   22568082.4314
  24575720.950    15122446.68449  11772716.51549  24575730.3764   24575737.1634
  22444439.644    -5553447.77749  -4304961.98049  22444442.6004   22444449.2044
 96  8 11 16  6 29.9990000  0  8 24 16 25  4  5  6  9 10
  20864634.243      -49621.85049    -31352.28949  20864637.1994   20864642.2504
  23283402.755   -12398757.99649  -9648946.16649  23283411.4104   23283418.9674
  24528940.512    -5545558.85949  -4101377.07049  24528941.8264   24528945.0894
  23488150.371    12252870.58049   9542926.55649  23488159.3854   23488161.5744
  20387162.967    -2187773.85449  -1698806.43149  20387164.5824   20387169.1234
  22553708.449   -14700393.13649 -11218854.29749  22553711.6824   22553717.9394
  24594540.328    15221273.56549  11849724.32549  24594537.0784   24594540.3864
  22429513.218    -5631885.46349  -4366082.22049  22429515.4174   22429522.4634
 96  8 11 16  6 59.9990000  0  8 24 16 25  4  5  6  9 10
  20873202.896       -4604.07449      3726.47949  20873203.8714   20873208.8584
  23264656.519   -12497330.61549  -9725755.94349  23264653.5084   23264661.1574
  24518052.072    -5602756.90449  -4145946.96549  24518054.8244   24518060.4714
  23506228.604    12347825.95349   9616917.71949  23506227.7694   23506232.4784
  20393401.007    -2154991.82449  -1673262.00049  20393402.6904   20393407.6454
  22539372.571   -14775758.49649 -11277580.53749  22539372.2624   22539375.8024
  24613341.539    15320098.94449  11926731.01349  24613341.2714   24613348.8214
  22414660.181    -5709936.05249  -4426900.83849  22414662.5294   22414669.6834
 96  8 11 16  7 29.9990000  0  8 24 16 25  4  5  6  9 10
  20881849.574       40833.61949     39132.46349  20881850.5324   20881855.3394
  23245929.168   -12595713.17649  -9802417.65249  23245933.2304   23245939.8394
  24507255.965    -5659493.99949  -4190157.70649  24507257.5074   24507262.8124
  23524329.301    12442942.86049   9691034.76849  23524327.4434   23524332.8874
  20399737.550    -2121695.54049  -1647316.86349  20399738.6954   20399743.7494
  22525052.994   -14850992.46249 -11336204.40849  22525054.2744   22525059.4394
  24632150.067    15418924.53149  12003737.87949  24632148.4524   24632154.8504
  22399885.388    -5787595.16649  -4487414.41449  22399885.8394   22399892.2184
 96  8 11 16  7 59.9990000  0  8 24 16 25  4  5  6  9 10
  20890577.901       86711.96649     74881.81249  20890580.8944   20890585.7064
  23227252.024   -12693899.06649  -9878926.08649  23227248.6274   23227255.1124
  24496559.161    -5715716.82949  -4233967.70949  24496558.9764   24496566.4074
  23542461.323    12538228.64649   9765283.38349  23542460.0364   23542464.0554
  20406175.599    -2087860.75849  -1620952.11349  20406177.0734   20406181.9254
  22510766.559   -14926063.38349 -11394701.21449  22510768.8374   22510773.3044
  24650951.657    15517767.95449  12080758.69049  24650957.0964   24650964.6854
  22385179.312    -5864849.92649  -4547612.90749  22385184.3454   22385190.8654
 96  8 11 16  8 29.9990000  0  8 24 16 25  4  5  6  9 10
  20899389.602      133012.21349    110959.91249  20899391.4294   20899396.6664
  23208588.347   -12791897.79449  -9955288.71449  23208600.1894   23208605.4824
  24485955.678    -5771441.63049  -4277389.63549  24485955.9014   24485960.8434
  23560614.729    12633641.65649   9839631.14749  23560616.9964   23560621.5324
  20412715.591    -2053495.58549  -1594174.07349  20412716.8224   20412721.7554
  22496510.841   -15000971.79849 -11453071.38449  22496514.3674   22496520.5624
  24669764.958    15616608.64949  12157777.35049  24669766.6564   24669773.3184
  22370556.249    -5941728.85049  -4607518.53549  22370555.1884   22370561.6894
 96  8 11 16  8 59.9990000  0  8 24 16 25  4  5  6  9 10
  20908279.630      179726.79649    147360.87549  20908281.0964   20908286.1704
  23189995.221   -12889687.38449 -10031488.35949  23189991.0454   23189996.6824
  24475454.933    -5826642.62049  -4320403.32249  24475453.9624   24475458.1454
  23578793.171    12729178.00549   9914075.02149  23578795.9944   23578801.1674
  20419358.697    -2018586.72949  -1566972.38449  20419359.5144   20419364.6294
  22482289.240   -15075713.49149 -11511311.66349  22482292.1864   22482296.9274
  24688567.088    15715436.00549  12234785.61949  24688572.6994   24688579.3474
  22356000.164    -6018203.97549  -4667109.51249  22356001.4694   22356008.5124
 96  8 11 16  9 29.9990000  0  8 24 16 25  4  5  6  9 10
  20917248.858      226861.66349    184089.32949  20917250.4424   20917255.7244
  23171427.153   -12987247.42849 -10107509.13249  23171425.1414   23171431.4834
  24465051.189    -5881282.30849  -4362979.75449  24465054.7944   24465061.7684
  23597001.005    12824843.54949   9988619.57549  23597001.4234   23597006.9894
  20426105.927    -1983125.20349  -1539340.04249  20426107.5464   20426112.7734
  22468100.572   -15150284.89949 -11569419.22349  22468101.4774   22468106.3284
  24707375.036    15814261.28149  12311792.22049  24707378.5114   24707383.9744
  22341529.664    -6094251.32549  -4726367.17749  22341531.2734   22341537.1124
 96  8 11 16  9 59.9990000  0  8 24 16 25  4  5  6  9 10
  20926291.770      274380.97749    221117.34849  20926293.5434   20926298.5194
  23152901.555   -13084582.65949 -10183354.72349  23152901.4974   23152909.8454
  24454752.283    -5935387.38849  -4405139.58349  24454758.9724   24454763.9164
  23615227.565    12920627.66649  10063256.49649  23615227.8544   23615232.8834
  20432954.634    -1947136.34349  -1511296.79249  20432956.0894   20432961.2324
  22453936.292   -15224713.71349 -11627415.68049  22453937.4624   22453943.2144
  24726181.100    15913048.67549  12388769.28449  24726177.3214   24726183.4114
  22327137.851    -6169882.70049  -4785300.70649  22327138.6094   22327143.9524
 96  8 11 16 10 29.9990000  0  8 24 16 25  4  5  6  9 10
  20935410.703      322306.34049    258461.77949  20935412.9634   20935417.9654
  23134423.739   -13181672.83049 -10259009.34649  23134425.9824   23134434.9494
  24444561.744    -5988960.40349  -4446884.83049  24444564.2024   24444567.7484
  23633480.226    13016560.59049  10138009.39149  23633483.6264   23633488.6064
  20439903.897    -1910621.85149  -1482843.96149  20439904.7164   20439909.9054
  22439801.667   -15298997.47149 -11685299.13049  22439802.1784   22439806.9094
  24744968.151    16011803.12149  12465720.71349  24744969.6934   24744974.5414
  22312825.067    -6245085.47049  -4843900.24249  22312827.1384   22312834.2774
 96  8 11 16 10 59.9990000  0  7 24 16 25  4  5  6 10
  20944605.061      370614.87049    296104.77249  20944605.9914   20944610.9154
  23115991.702   -13278530.86449 -10334483.09149  23115995.4774   23116002.5484
  24434465.230    -6042010.17649  -4488222.35149  24434467.0094   24434470.5524
  23651766.327    13112642.42649  10212878.31149  23651768.1394   23651772.2404
  20446945.498    -1873619.49449  -1454010.96849  20446946.1684   20446951.2584
  22425687.530   -15373165.42849 -11743092.33049  22425688.1124   22425692.6154
  22298590.104    -6319880.97049  -4902182.38949  22298593.4974   22298601.0214
 96  8 11 16 11 29.9990000  0  7 24 16 25  4  5  6 10
  20953871.626      419313.11449    334051.44349  20953872.8394   20953878.3344
  23097612.767   -13375138.49249 -10409761.70949  23097612.5474   23097619.3484
  24424471.459    -6094554.67249  -4529166.16949  24424469.8904   24424473.7514
  23670083.741    13208882.36449  10287870.42249  23670082.0624   23670087.0584
  20454079.490    -1836130.82049  -1424799.03149  20454079.8624   20454085.2264
  22411595.394   -15447210.40749 -11800789.69249  22411597.8374   22411603.8384
  22284438.571    -6394278.15349  -4960154.18849  22284437.1434   22284443.6774
 96  8 11 16 11 59.9990000  0  7 24 16 25  4  5  6 10
  20963215.374      468418.98349    372315.74249  20963217.1994   20963222.6284
  23079275.020   -13471473.40949 -10484827.83649  23079280.3274   23079286.6734
  24414563.958    -6146609.62249  -4569728.46249  24414564.8824   24414568.4894
  23688426.925    13305300.53449  10363001.42149  23688429.9784   23688433.5604
  20461308.800    -1798129.34449  -1395187.50849  20461311.2504   20461316.4884
  22397531.404   -15521121.41649 -11858382.65949  22397533.0524   22397539.0734
  22270358.088    -6468259.89449  -5017802.27449  22270358.7744   22270364.9544
 96  8 11 16 12 29.9990000  0  7 24 16 25  4  5  6 10
  20972639.562      517944.76949    410907.25349  20972641.5914   20972646.8594
  23060998.278   -13567544.36749 -10559688.28649  23060998.5964   23061005.0034
  24404743.640    -6198188.88449  -4609920.07949  24404748.6244   24404754.6364
  23706806.576    13401885.75449  10438262.57849  23706808.5114   23706813.5284
  20468640.217    -1759606.54249  -1365169.75449  20468641.8454   20468647.1044
  22383491.215   -15594904.80449 -11915876.18149  22383492.4884   22383498.6334
  22256349.654    -6541831.13349  -5075130.48049  22256358.9294   22256365.5724
 96  8 11 16 12 59.9990000  0  7 24 16 25  4  5  6 10
  20982138.318      567863.97649    449805.32249  20982140.7104   20982146.4144
  23042769.118   -13663352.04549 -10634343.58149  23042766.5524   23042772.9444
  24395022.672    -6249295.71749  -4649743.57349  24395024.4174   24395029.0604
  23725203.271    13498603.88249  10513627.32549  23725213.9864   23725218.6084
  20476070.925    -1720557.88749  -1334742.24149  20476072.7354   20476077.9314
  22369477.570   -15668553.99749 -11973265.14949  22369478.8564   22369482.6744
  22242440.735    -6614983.34249  -5132132.16849  22242439.3964   22242444.7104
 96  8 11 16 13 29.9990000  0  7 24 16 25  4  5  6 10
  20991714.599      618174.52049    489008.32749  20991714.9054   20991720.2954
  23024577.048   -13758909.31249 -10708803.75249  23024582.2724   23024588.0414
  24385387.111    -6299931.16249  -4689199.71549  24385387.1504   24385393.8124
  23743643.634    13595442.91049  10589086.25849  23743640.6034   23743646.4974
  20483603.781    -1680974.23749  -1303897.85149  20483605.0894   20483610.4444
  22355490.135   -15742051.87549 -12030536.22849  22355492.4374   22355496.5124
  22228604.022    -6687699.09449  -5188793.77749  22228602.0534   22228607.2784
 96  8 11 16 13 59.9990000  0  7 24 16 25  4  5  6 10
  21001362.446      668887.01449    528524.55149  21001364.9724   21001370.6164
  23006441.385   -13854233.93349 -10783082.66149  23006443.3064   23006448.1574
  24375844.510    -6350064.96249  -4728265.05949  24375846.2884   24375854.5624
  23762090.662    13692405.50549  10664641.49649  23762092.8994   23762096.7644
  20491239.907    -1640849.89249  -1272632.14049  20491240.4014   20491246.2344
  22341535.020   -15815389.16749 -12087682.16449  22341535.7244   22341541.2604
  22214853.302    -6759959.14849  -5245100.28749  22214850.6474   22214856.5184
 96  8 11 16 14 29.9990000  0  7 24 16 25  4  5  6 10
  21011088.195      719983.37349    568339.87549  21011089.2524   21011093.7954
  22988341.049   -13949343.64049 -10857194.08649  22988344.9544   22988350.5284
  24366405.627    -6399690.89749  -4766934.62149  24366406.4844   24366407.6444
  23780568.714    13789468.14449  10740274.66549  23780563.9014   23780567.9564
  20498972.475    -1600203.98249  -1240960.01649  20498975.0074   20498980.5174
  22327606.611   -15888577.78649 -12144712.23549  22327608.2764   22327613.8684
  22201180.254    -6831775.96549  -5301061.40349  22201184.1284   22201190.2024
 96  8 11 16 14 59.9990000  0  7 24 16 25  4  5  6 10
  21020880.129      771458.34849    608450.23849  21020883.7604   21020889.3814
  22970291.191   -14044226.10849 -10931128.43549  22970289.1674   22970294.6134
  24357060.472    -6448773.57559  -4805180.85549  24357062.5644   24357069.0854
  23799037.363    13886636.45949  10815990.20549  23799054.0314   23799058.6134
  20506806.430    -1559043.65949  -1208887.05049  20506807.6454   20506813.1494
  22313710.535   -15961601.25949 -12201613.62649  22313712.6984   22313717.2354
  22187605.879    -6903129.87549  -5356661.82849  22187607.2574   22187611.6334
 96  8 11 16 15 29.9990000  0  7 24 16 25  4  5  6 10
  21030750.884      823315.19449    648858.15449  21030752.5284   21030757.5524
  22952275.421   -14138881.56949 -11004885.91349  22952277.1564   22952281.9924
  24347824.227    -6497317.52049  -4843007.36349  24347827.7164   24347835.1214
  23817569.483    13983921.89849  10891796.98749  23817566.9604   23817571.5914
  20514733.370    -1517381.56549  -1176423.09249  20514735.8254   20514741.1494
  22299844.477   -16034473.54049 -12258397.22149  22299846.1424   22299850.0484
  22174116.692    -6974031.05849  -5411909.47949  22174113.9584   22174119.7594
 96  8 11 16 15 59.9990000  0  7 24 16 25  4  5  6 10
  21040692.399      875556.69149    689565.80649  21040693.3874   21040698.6924
  22934318.575   -14233267.84249 -11078433.61249  22934315.3544   22934322.0814
  24338694.364    -6545306.73249  -4880401.55249  24338693.8474   24338698.7044
  23836094.658    14081330.70149  10967699.90149  23836103.2064   23836108.3644
  20522758.969    -1475212.27449  -1143563.92949  20522760.3484   20522766.0644
  22286007.145   -16107187.53649 -12315057.47749  22286008.7214   22286013.1324
  22160708.243    -7044480.17249  -5466804.86249  22160707.0904   22160713.0584
 96  8 11 16 16 29.9990000  0  7 24 16 25  4  5  6 10
  21050703.675      928166.66849    730560.57349  21050704.7074   21050709.9674
  22916406.863   -14327351.08949 -11151745.19149  22916412.0994   22916418.0774
  24329662.288    -6592748.00949  -4917368.77049  24329665.6134   24329672.1754
  23854666.395    14178867.14849  11043702.28549  23854663.5054   23854670.1054
  20530879.661    -1432541.61649  -1110314.09049  20530880.4334   20530885.4694
  22272203.561   -16179715.73049 -12371572.92249  22272206.7114   22272212.0934
  22147384.621    -7114486.91049  -5521355.54349  22147385.1064   22147392.5354
 96  8 11 16 16 59.9990000  0  7 24 16 25  4  5  6 10
  21060776.055      981098.10249    771805.83049  21060777.3114   21060782.5784
  22898556.357   -14421177.63849 -11224856.74649  22898557.6284   22898562.6104
  24320738.317    -6639683.65349  -4953941.97149  24320736.9114   24320743.0214
  23873242.576    14276496.37149  11119776.96249  23873241.4624   23873247.7604
  20539087.060    -1389416.33549  -1076709.98249  20539086.8874   20539091.7354
  22258432.431   -16252089.18949 -12427967.80449  22258433.9824   22258439.7084
  22134137.540    -7184098.07649  -5575597.98449  22134139.2674   22134146.1134
 96  8 11 16 17 29.9990000  0  7 24 16 25  4  5  6 10
  21070913.766     1034378.28549    813322.83949  21070916.1124   21070921.4204
  22880757.695   -14514721.95649 -11297748.38349  22880757.6564   22880762.8204
  24311898.464    -6686114.45849  -4990121.82749  24311900.3174   24311904.1774
  23891836.631    14374234.31849  11195936.35149  23891841.3924   23891845.3244
  20547384.492    -1345802.29249  -1042725.03049  20547386.4064   20547391.5234
  22244691.527   -16324297.68849 -12484234.15849  22244692.8714   22244699.2124
  22120970.527    -7253303.71549  -5629524.43349  22120970.0924   22120976.2374
 96  8 11 16 17 59.9990000  0  7 24 16 25  4  5  6 10
  21081126.964     1088032.44949    855131.25749  21081126.0634   21081131.1654
  22863015.143   -14607965.99649 -11370406.02749  22863013.4544   22863018.7514
  24303161.103    -6732029.02649  -5025899.42549  24303163.4384   24303166.4434
  23910461.454    14472090.86349  11272188.15449  23910462.9804   23910468.1834
  20555784.499    -1301662.44349  -1008330.36849  20555785.7454   20555791.3134
  22230986.546   -16396326.78249 -12540360.69349  22230987.1524   22230992.1524
  22107877.749    -7322084.69849  -5683119.98549  22107881.2584   22107887.4184
 96  8 11 16 18 29.9990000  0  7 24 16 25  4  5  6 10
  21091403.757     1142061.69049    897231.96349  21091407.4504   21091413.1694
  22845321.589   -14700957.19749 -11442866.67249  22845319.1904   22845323.6764
  24294514.139    -6777456.17449  -5061297.21949  24294517.8164   24294524.3254
  23929100.258    14570045.73949  11348516.59449  23929103.4344   23929107.7204
  20564280.812    -1257005.96449   -973533.12849  20564283.6734   20564289.0514
  22217306.685   -16468213.85049 -12596376.57549  22217307.8684   22217312.6104
  22094870.958    -7390448.57649  -5736390.51449  22094872.6194   22094878.5604
 96  8 11 16 18 59.9990000  0  7 24 16 25  4  5  6 10
  21101765.568     1196504.53649    939654.94049  21101767.7164   21101773.0134
  22827669.777   -14793678.82249 -11515117.26249  22827674.3094   22827679.5574
  24285970.050    -6822369.95349  -5096295.00649  24285971.1334   24285975.5364
  23947769.545    14668122.47749  11424939.97049  23947767.6234   23947771.4144
  20572886.450    -1211793.65649   -938302.77849  20572887.3364   20572892.2954
  22203651.116   -16539969.73249 -12652290.24649  22203652.7094   22203657.6554
  22081956.237    -7458346.70849  -5789298.12949  22081951.6754   22081958.4434
 96  8 11 16 19 29.9990000  0  7 24 16 25  4  5  6 10
  21112204.349     1251363.78449    982402.39449  21112207.0474   21112212.2284
  22810086.096   -14886112.31649 -11587143.31349  22810083.7954   22810089.6234
  24277519.164    -6866776.00549  -5130897.13149  24277521.6554   24277526.9964
  23966451.545    14766309.41549  11501449.22149  23966450.6524   23966456.3794
  20581592.961    -1166031.80649   -902644.20349  20581595.7064   20581600.4494
  22190020.984   -16611600.56749 -12708106.46649  22190022.0814   22190026.8664
  22069124.663    -7525774.14949  -5841838.97449  22069120.7664   22069126.7294
 96  8 11 16 19 59.9990000  0  7 24 16 25  4  5  6 10
  21122715.002     1306602.97249   1025445.90049  21122718.6184   21122723.8124
  22792542.650   -14978279.60249 -11658961.92149  22792543.5174   22792551.5214
  24269166.730    -6910670.58849  -5165100.68349  24269168.3004   24269172.9864
  23985148.081    14864587.62949  11578029.60449  23985152.5004   23985158.1644
  20590399.300    -1119757.07049   -866585.97649  20590401.6484   20590406.6964
  22176411.495   -16683116.63949 -12763833.25949  22176412.4734   22176418.0044
  22056378.213    -7592740.77749  -5894020.74349  22056378.1914   22056383.6614
 96  8 11 16 20 29.9990000  0  7 24 16 25  4  5  6 10
  21133296.926     1362206.58249   1068773.37249  21133299.7524   21133304.8934
  22775055.760   -15070168.14149 -11730563.32649  22775057.5374   22775065.6994
  24260917.194    -6954023.73649  -5198882.34549  24260919.5314   24260923.8024
  24003866.844    14962968.39649  11654689.91049  24003873.0104   24003878.1914
  20599299.506    -1072986.02749   -830141.02149  20599301.6914   20599307.0494
  22162826.895   -16754505.30549 -12819460.77949  22162829.1664   22162833.2594
  22043726.182    -7659226.65249  -5945827.89649  22043725.8954   22043732.1844
 96  8 11 16 20 59.9990000  0  7 24 16 25  4  5  6 10
  21143942.593     1418147.21149   1112363.45649  21143944.4984   21143950.1204
  22757627.348   -15161766.58949 -11801938.69349  22757627.3144   22757636.0164
  24252769.562    -6996836.65949  -5232243.05849  24252769.9034   24252776.5424
  24022611.914    15061446.07249  11731425.71149  24022613.1254   24022618.0664
  20608292.535    -1025732.27349   -793319.94349  20608293.6064   20608299.2404
  22149268.513   -16825754.63849 -12874979.73249  22149270.3144   22149274.7894
  22031162.713    -7725230.76949  -5997259.65649  22031165.4004   22031171.7404
 96  8 11 16 21 29.9990000  0  7 24 16 25  4  5  6 10
  21154648.998     1474407.43849   1156202.57749  21154651.1264   21154656.1914
  22740253.043   -15253084.32849 -11873095.34349  22740251.5924   22740258.1434
  24244722.386    -7039111.51449  -5265184.50749  24244726.9854   24244732.3654
  24041370.989    15160000.14349  11808221.01549  24041367.8504   24041371.5324
  20617375.649     -978009.32749   -756133.25449  20617375.0954   20617380.0904
  22135739.372   -16896854.49749 -12930382.21549  22135739.8384   22135744.4294
  22018691.142    -7790765.88849  -6048325.96349  22018694.7604   22018700.7474
 96  8 11 16 21 59.9990000  0  7 24 16 25  4  5  6 10
  21165418.032     1530999.39149   1200300.19449  21165419.9494   21165425.3174
  22722927.453   -15344109.86549 -11944024.30849  22722930.0684   22722935.9464
  24236789.839    -7080828.28949  -5297691.06349  24236789.5554   24236793.3554
  24060136.495    15258654.01949  11885094.14249  24060140.1564   24060146.6454
  20626549.417     -929788.38649   -718558.50349  20626551.5054   20626556.1724
  22122240.583   -16967789.55249 -12985656.26049  22122241.6254   22122246.5914
  22006317.682    -7855802.52549  -6099003.85049  22006318.2684   22006324.4164
 96  8 11 16 22 29.9990000  0  7 24 16 25  4  5  6 10
  21176247.737     1587909.48949   1244645.70549  21176249.5694   21176254.5734
  22705657.125   -15434861.74049 -12014740.02149  22705659.0984   22705665.8084
  24228940.942    -7122039.21349  -5329803.50949  24228945.9314   24228951.0554
  24078919.089    15357385.56449  11962027.77849  24078928.8754   24078935.3004
  20635819.507     -881082.13549   -680605.59349  20635819.9124   20635824.6804
  22108770.710   -17038575.10349 -13040813.81449  22108771.4734   22108776.6954
  21994033.045    -7920367.23349  -6149313.99649  21994032.4544   21994038.3644
 96  8 11 16 22 59.9990000  0  7 24 16 25  4  5  6 10
  21187140.151     1645159.54049   1289256.12849  21187143.6384   21187148.8754
  22688437.283   -15525339.58049 -12085242.20049  22688440.9874   22688448.8134
  24221200.528    -7162746.83249  -5361523.74249  24221201.1534   24221207.0954
  24097730.402    15456189.56749  12039017.86849  24097730.3374   24097735.4204
  20645180.473     -831869.28849   -642257.94349  20645184.5294   20645189.9294
  22095332.279   -17109193.04449 -13095840.77349  22095333.4464   22095337.7754
  21981834.964    -7984470.96449  -6199264.94549  21981834.1654   21981839.7204
 96  8 11 16 23 29.9990000  0  7 24 16 25  4  5  6 10
  21198100.743     1702750.39049   1334132.10449  21198103.1434   21198107.8294
  22671275.986   -15615545.67249 -12155532.61749  22671274.2404   22671282.8054
  24213546.121    -7202949.04049  -5392850.17949  24213548.4894   24213556.7564
  24116545.329    15555058.12249  12116058.23049  24116544.5734   24116551.0904
  20654645.097     -782161.40049   -603524.54749  20654644.0364   20654649.1204
  22081922.292   -17179659.80649 -13150749.92449  22081924.0664   22081928.0994
  21969720.524    -8048133.14949  -6248871.83449  21969718.6264   21969724.8254
 96  8 11 16 23 59.9990000  0  7 24 16 25  4  5  6 10
  21209127.506     1760705.55749   1379291.96449  21209131.5244   21209136.7094
  22654167.603   -15705452.01249 -12225589.47749  22654167.3764   22654173.0874
  24205998.024    -7242619.93449  -5423762.57149  24206001.1874   24206004.3714
  24135385.372    15654018.40249  12193170.09049  24135376.3534   24135381.8544
  20664200.523     -731933.05349   -564385.58749  20664201.8824   20664207.2424
  22068545.594   -17249950.94549 -13205522.25249  22068547.2334   22068552.4584
  21957689.905    -8111329.03349  -6298115.35549  21957692.5134   21957698.7834
 96  8 11 16 24 29.9990000  0  7 24 16 25  4  5  6 10
  21220223.545     1818996.85549   1424713.74249  21220223.9024   21220228.9644
  22637115.444   -15795071.63049 -12295422.91149  22637114.1724   22637120.4434
  24198550.474    -7281772.16949  -5454270.76849  24198550.3804   24198556.7114
  24154210.971    15753038.12849  12270328.27449  24154219.4424   24154224.3894
  20673852.244     -681214.50849   -524864.65249  20673853.2244   20673858.9004
  22055200.538   -17320082.61649 -13260170.28249  22055202.0424   22055207.0034
  21945750.714    -8174084.80949  -6347015.94549  21945750.0994   21945757.3474
 96  8 11 16 24 59.9990000  0  7 24 16 25  4  5  6 10
  21231381.035     1877630.67249   1470402.41849  21231381.8114   21231387.0134
  22620114.122   -15884380.71149 -12365014.37849  22620119.2304   22620125.0664
  24191206.288    -7320365.43049  -5484343.45049  24191206.4974   24191211.4954
  24173064.918    15852122.25349  12347536.61849  24173075.0834   24173079.7324
  20683596.345     -629994.69749   -484953.12049  20683600.3444   20683605.5134
  22041884.185   -17390063.24149 -13314700.63449  22041885.5814   22041890.2884
  21933901.362    -8236364.81749  -6395545.79349  21933899.6184   21933906.0754
 96  8 11 16 25 29.9990000  0  7 24 16 25  4  5  6 10
  21242595.861     1936576.69749   1516334.37749  21242598.9794   21242604.2024
  22603179.902   -15973380.26749 -12434364.64549  22603182.4774   22603189.3164
  24183960.772    -7358425.41349  -5514000.58249  24183963.1774   24183966.9874
  24191939.941    15951254.70149  12424782.62549  24191938.8194   24191943.9614
  20693433.949     -578315.23749   -444683.42949  20693434.4084   20693439.6754
  22028589.239   -17459927.80749 -13369140.54749  22028590.2154   22028595.8434
  21922139.573    -8298160.56449  -6443698.31649  21922140.6794   21922146.2934
 96  8 11 16 25 59.9990000  0  7 24 16 25  4  5  6 10
  21253875.451     1995839.60049   1562513.24449  21253875.9044   21253880.8384
  22586307.103   -16062061.66649 -12503466.99749  22586306.2364   22586312.5864
  24176823.708    -7395949.50649  -5543240.12949  24176825.0594   24176827.6894
  24210816.499    16050441.30849  12502070.83749  24210811.8104   24210819.2554
  20703355.266     -526173.02149   -404053.15249  20703356.9224   20703362.2504
  22015320.022   -17529658.28349 -13423475.97349  22015320.8124   22015326.6924
  21910476.592    -8359446.38749  -6491453.49849  21910478.6874   21910483.7104
 96  8 11 16 26 29.9990000  0  7 24 16 25  4  5  6 10
  21265216.816     2055450.42949   1608963.23149  21265219.7674   21265225.3434
  22569492.644   -16150391.46149 -12572295.38449  22569498.0674   22569503.0784
  24169784.206    -7432919.77949  -5572048.17949  24169787.1664   24169794.7924
  24229690.363    16149710.83549  12579423.67149  24229703.2674   24229709.5914
  20713370.005     -473548.04649   -363046.69049  20713371.3084   20713376.2834
  22002078.542   -17599235.78949 -13477692.19249  22002080.8824   22002085.9134
  21898914.618    -8420188.27549  -6538784.82749  21898918.7694   21898925.1094
 96  8 11 16 26 59.9990000  0  7 24 16 25  4  5  6 10
  21276623.793     2115396.44249   1655674.39449  21276627.1144   21276632.3474
  22552756.147   -16238388.17249 -12640864.22749  22552752.2484   22552758.1414
  24162850.776    -7469367.01049  -5600448.65149  24162853.0354   24162857.9794
  24248610.455    16249049.58449  12656830.43949  24248607.2184   24248612.7634
  20723472.296     -420458.27149   -321678.05249  20723473.6794   20723479.0334
  21988865.806   -17668671.60049 -13531798.00849  21988867.3784   21988872.6134
  21887464.740    -8480402.55849  -6585705.02949  21887461.5114   21887466.9134
 96  8 11 16 27 29.9990000  0  7 24 16 25  4  5  6 10
  21288097.670     2175670.84849   1702641.45249  21288097.1264   21288102.3054
  22536068.419   -16326052.69749 -12709174.22349  22536070.6044   22536075.8674
  24156009.337    -7505302.09349  -5628450.01249  24156011.7344   24156018.6334
  24267525.509    16348460.70149  12734293.59649  24267525.0894   24267530.1394
  20733662.063     -366905.07549   -279948.30749  20733664.4544   20733670.0044
  21975683.857   -17737938.02749 -13585771.83949  21975686.6864   21975690.1354
  21876100.663    -8540113.25749  -6632232.84049  21876098.5084   21876104.8624
 96  8 11 16 27 59.9990000  0  7 24 16 25  4  5  6 10
  21299624.913     2236265.50449   1749858.05449  21299627.7414   21299632.8394
  22519447.768   -16413402.23249 -12777238.75549  22519448.5384   22519454.6804
  24149268.696    -7540727.03349  -5656053.88449  24149272.4354   24149277.7594
  24286451.006    16447928.11249  12811800.62549  24286451.9214   24286458.3164
  20743943.420     -312877.27449   -237848.74149  20743945.7034   20743951.1974
  21962537.341   -17807032.91849 -13639612.01649  21962538.6274   21962542.7174
  21864824.730    -8599345.33949  -6678387.69449  21864825.8934   21864832.6994
 96  8 11 16 28 29.9990000  0  7 24 16 25  4  5  6 10
  21311216.901     2297172.94849   1797318.38449  21311218.2324   21311223.6604
  22502885.951   -16500426.02649 -12845049.47049  22502888.1144   22502894.1164
  24142629.978    -7575645.41049  -5683262.97849  24142629.1664   24142634.8504
  24305395.483    16547447.01349  12889347.77049  24305390.9964   24305396.7004
  20754317.897     -258358.01149   -195366.22049  20754320.8054   20754326.0584
  21949423.276   -17875958.03049 -13693319.89749  21949423.3174   21949426.9444
  21853639.503    -8658107.67449  -6724176.50249  21853643.5904   21853650.4604
 96  8 11 16 28 59.9990000  0  7 24 16 25  4  5  6 10
  21322867.923     2358396.30449   1845024.88549  21322868.7814   21322874.1744
  22486392.911   -16587106.45249 -12912592.62849  22486393.0134   22486399.1684
  24136080.264    -7610041.19549  -5710064.91049  24136082.6484   24136087.3444
  24324333.845    16647020.53949  12966937.47649  24324339.6624   24324343.7784
  20764791.164     -203336.61149   -152492.42249  20764790.8074   20764795.8204
  21936340.489   -17944694.30149 -13746880.61749  21936342.2994   21936347.8064
  21842551.254    -8716395.92649  -6769595.89649  21842552.2914   21842558.7304
 96  8 11 16 29 29.9990000  0  7 24 16 25  4  5  6 10
  21334582.132     2419953.98749   1892991.90049  21334582.3464   21334587.8374
  22469967.287   -16673430.91049 -12979858.40649  22469966.5154   22469972.0804
  24129643.723    -7643883.93049  -5736435.86149  24129644.2374   24129647.5384
  24343294.572    16746654.29849  13044574.12449  24343298.1824   24343304.3214
  20775358.691     -147800.31449   -109217.40249  20775358.7964   20775364.2684
  21923295.329   -18013237.66149 -13800291.00749  21923298.1364   21923305.3474
  21831554.165    -8774192.97349  -6814632.53549  21831554.6624   21831561.0914
 96  8 11 16 29 59.9990000  0  7 24 16 25  4  5  6 10
  21346359.140     2481844.93449   1941218.59649  21346360.2644   21346365.6584
  22453608.983   -16759405.16449 -13046851.31749  22453607.3164   22453611.9754
  24123302.616    -7677167.83249  -5762371.36749  24123307.9744   24123316.0154
  24362263.766    16846344.16349  13122254.48549  24362269.0494   24362274.0274
  20786021.679      -91761.16449    -65550.56149  20786022.5754   20786028.2814
  21910286.599   -18081609.69949 -13853567.89049  21910287.3654   21910294.2734
  21820654.142    -8831480.22149  -6859271.94149  21820653.5354   21820659.2054
 96  8 11 16 30 29.9990000  0  7 24 16 25  4  5  6 10
  21358190.990     2544024.54349   1989670.22849  21358192.2804   21358197.6214
  22437302.509   -16845069.95649 -13113603.09149  22437306.0084   22437310.4214
  24117073.919    -7709926.78049  -5787897.83249  24117076.1224   24117079.7524
  24381249.482    16946059.14849  13199954.43849  24381244.1804   24381249.5734
  20796771.756      -35270.00749    -21531.50449  20796772.9534   20796778.0864
  21897302.790   -18149847.96249 -13906740.55849  21897302.9854   21897308.1464
  21809842.978    -8888288.33249  -6903537.98349  21809842.5834   21809848.5064
 96  8 11 16 30 59.9990000  0  7 24 16 25  4  5  6 10
  21370083.734     2606529.81449   2038375.62149  21370086.8064   21370092.3214
  22421063.213   -16930409.39549 -13180101.33449  22421065.7304   22421071.5824
  24110947.436    -7742119.31949  -5812982.90649  24110949.8124   24110952.8054
  24400214.345    17045828.08349  13277696.42049  24400229.3954   24400235.2544
  20807609.091       21689.78749     22852.73949  20807612.1394   20807616.8424
  21884347.505   -18217923.84149 -13959786.68849  21884348.9614   21884352.8544
  21799129.610    -8944580.88049  -6947402.28949  21799130.4254   21799136.2294
 96  8 11 16 31 29.9990000  0  7 24 16 25  4  5  6 10
  21382036.098     2669350.86249   2087327.08049  21382041.3724   21382046.8884
  22404885.765   -17015440.52149 -13246359.30549  22404883.1484   22404891.1394
  24104928.837    -7773745.04349  -5837626.35349  24104930.7184   24104936.8674
  24419233.985    17145657.23249  13355485.31049  24419227.3004   24419232.1284
  20818536.612       79118.51149     67602.37649  20818539.9784   20818545.9234
  21871423.635   -18285841.58749 -14012709.61149  21871424.5354   21871428.8514
  21788513.299    -9000349.35349  -6990858.22649  21788517.9144   21788524.0464
 96  8 11 16 31 59.9990000  0  7 24 16 25  4  5  6 10
  21394053.350     2732478.05249   2136517.07849  21394053.8014   21394058.9804
  22388762.434   -17100157.95149 -13312372.85949  22388761.6804   22388769.1404
  24099015.167    -7804825.41249  -5861844.86649  24099015.7454   24099021.5514
  24438228.052    17245550.33549  13433324.04549  24438235.2054   24438241.6324
  20829555.568      137017.29349    112718.28549  20829558.0264   20829563.5964
  21858529.033   -18353601.83449 -14065509.79649  21858530.1274   21858534.4494
  21778005.354    -9055599.65049  -7033910.39649  21778004.2484   21778010.0194
 96  8 11 16 32 29.9990000  0  7 24 16 25  4  5  6 10
  21406121.572     2795898.54149   2185935.62749  21406122.5734   21406127.9644
  22372690.934   -17184564.52449 -13378144.18949  22372700.2994   22372706.5154
  24093201.402    -7835379.77449  -5885653.44449  24093203.7044   24093206.9114
  24457257.204    17345489.98849  13511199.05649  24457253.1974   24457258.7424
  20840664.941      195385.07549    158199.65249  20840664.7834   20840670.5624
  21845660.369   -18421214.41849 -14118194.93149  21845662.7624   21845668.1794
  21767583.386    -9110357.83849  -7076579.10349  21767583.9714   21767590.1864
 96  8 11 16 32 59.9990000  0  7 24 16 25  4  5  6 10
  21418246.442     2859611.69749   2235582.22149  21418246.8204   21418251.4494
  22356702.159   -17268621.71849 -13443643.27549  22356704.1184   22356711.2454
  24087488.376    -7865407.00949  -5909051.27949  24087488.0384   24087494.6934
  24476270.098    17445477.16849  13589111.10249  24476280.6614   24476285.6704
  20851862.707      254235.77649    204057.32249  20851863.9884   20851868.9254
  21832821.718   -18488681.83249 -14170766.93149  21832823.8064   21832830.2384
  21757258.757    -9164612.32049  -7118855.29149  21757259.2954   21757266.9264
 96  8 11 16 33 29.9990000  0  7 24 16 25  4  5  6 10
  21430426.786     2923625.28449   2285462.92249  21430428.0734   21430433.0384
  22340778.535   -17352289.61249 -13508839.01649  22340781.9814   22340791.3444
  24081871.541    -7894896.85749  -5932030.40249  24081877.1554   24081880.5654
  24495324.279    17545532.10949  13667075.93549  24495320.7314   24495324.9644
  20863156.836      313584.61249    250303.14449  20863157.6094   20863162.9704
  21820013.523   -18555989.48849 -14223214.44949  21820016.0784   21820022.0214
  21747034.061    -9218344.50449  -7160724.50449  21747035.3294   21747041.9454
 96  8 11 16 33 59.9990000  0  7 24 16 25  4  5  6 10
  21442665.226     2987949.02749   2335585.29749  21442668.5494   21442673.5684
  22324939.936   -17435542.46149 -13573711.32049  22324938.7654   22324947.9664
  24076367.882    -7923847.59549  -5954589.39349  24076366.9934   24076373.5494
  24514373.632    17645651.96949  13745091.35949  24514372.0854   24514376.8984
  20874544.327      373422.10249    296929.73649  20874544.5194   20874550.0444
  21807237.236   -18623136.80049 -14275537.02649  21807239.3174   21807244.4984
  21736910.133    -9271551.53049  -7202184.50749  21736910.6524   21736916.3854
 96  8 11 16 34 29.9990000  0  7 24 16 25  4  5  6 10
  21454960.628     3052561.90749   2385932.98649  21454964.1504   21454968.8964
  22309172.288   -17518388.20549 -13638266.40849  22309174.6254   22309182.8474
  24070955.727    -7952255.72349  -5976725.61549  24070960.8534   24070968.1224
  24533427.934    17745813.05149  13823138.90449  24533432.9074   24533437.5064
  20886019.260      433727.84949    343921.20549  20886019.9674   20886025.6064
  21794489.387   -18690126.62649 -14327736.87949  21794491.6914   21794496.8654
  21726884.229    -9324234.53749  -7243236.19349  21726884.7314   21726890.4674
 96  8 11 16 34 59.9990000  0  7 24 16 25  4  5  6 10
  21467316.197     3117480.26149   2436518.69949  21467317.5144   21467322.8564
  22293490.830   -17600819.36649 -13702498.46149  22293490.5124   22293496.0564
  24065664.094    -7980103.98049  -5998425.56549  24065662.7134   24065667.0044
  24552498.437    17846027.87049  13901228.31849  24552502.6354   24552507.2444
  20897584.066      494501.93249    391277.61249  20897585.2704   20897590.5944
  21781778.042   -18756935.96249 -14379796.09249  21781777.8384   21781783.3054
  21716965.674    -9376364.81449  -7283857.16249  21716964.6284   21716970.4194
 96  8 11 16 35 29.9990000  0  7 24 16 25  4  5  6 10
  21479728.193     3182708.23449   2487345.68449  21479729.9114   21479735.2184
  22277876.876   -17682871.30849 -13766435.02649  22277877.0824   22277881.4264
  24060467.992    -8007387.59249  -6019685.54149  24060469.8974   24060475.2204
  24571585.210    17946291.52249  13979355.79349  24571583.0734   24571589.2834
  20909232.459      555726.16649    438984.78649  20909235.8744   20909240.7194
  21769098.036   -18823555.81949 -14431707.66149  21769100.0314   21769105.4124
  21707148.467    -9427946.29849  -7324050.50749  21707149.5734   21707155.1104
 96  8 11 16 35 59.9990000  0  7 24 16 25  4  5  6 10
  21492197.916     3248222.86049   2538396.02049  21492196.2754   21492202.0764
  22262327.632   -17764574.42049 -13830099.77649  22262329.6584   22262334.4274
  24055381.242    -8034123.40849  -6040518.67449  24055381.9594   24055387.4904
  24590657.082    18046565.50849  14057491.32949  24590663.6934   24590670.7314
  20920965.037      617385.50849    487031.00649  20920969.2904   20920974.3274
  21756453.597   -18889999.46849 -14483481.91949  21756456.6144   21756461.1754
  21697430.747    -9478999.64949  -7363832.32549  21697434.1014   21697439.2954
 96  8 11 16 36 29.9990000  0  7 24 16 25  4  5  6 10
  21504712.843     3314012.38449   2589660.57449  21504715.9094   21504721.3484
  22246844.614   -17845932.11649 -13893495.35249  22246847.3864   22246853.7014
  24050397.652    -8060309.18349  -6060923.16449  24050400.6644   24050405.3654
  24609750.151    18146836.89849  14135624.81949  24609745.8274   24609749.7314
  20932786.797      679487.50749    535422.15049  20932786.8974   20932791.7074
  21743844.260   -18956271.34849 -14535122.33549  21743845.4994   21743850.5644
  21687814.638    -9529532.84949  -7403208.84449  21687818.2304   21687823.4264
 96  8 11 16 36 59.9990000  0  7 24 16 25  4  5  6 10
  21517289.222     3380093.08349   2641152.00649  21517291.6294   21517296.3344
  22231433.699   -17926930.69249 -13956611.09449  22231433.0894   22231440.1724
  24045520.423    -8085937.37149  -6080893.17549  24045522.2414   24045528.3494
  24628817.824    18247114.94449  14213763.50749  24628826.6604   24628831.7904
  20944691.434      742048.16049    584170.67949  20944691.6014   20944697.4204
  21731264.048   -19022382.37149 -14586637.43449  21731265.5304   21731270.4994
  21678298.380    -9579544.47349  -7442178.91449  21678300.5794   21678307.5604
 96  8 11 16 37 29.9990000  0  7 24 16 25  4  5  6 10
  21529918.634     3446459.36749   2692865.97449  21529921.1974   21529925.6354
  22216086.625   -18007562.28849 -14019440.88049  22216088.6404   22216095.4624
  24040745.988    -8111020.38449  -6100438.39049  24040749.5884   24040755.3524
  24647914.139    18347388.35949  14291898.58049  24647909.4324   24647915.0924
  20956684.538      805075.16849    633282.60749  20956685.1174   20956691.1244
  21718710.701   -19088351.51349 -14638041.94249  21718711.2964   21718717.0044
  21668881.030    -9629048.72049  -7480753.63349  21668880.1564   21668886.8314
 96  8 11 16 37 59.9990000  0  7 24 16 25  4  5  6 10
  21542603.125     3513129.83449   2744816.96849  21542607.5804   21542612.4194
  22200824.240   -18087780.98649 -14081948.94449  22200823.5204   22200829.7094
  24036081.766    -8135549.36549  -6119551.88349  24036081.8034   24036087.4334
  24666979.446    18447682.35249  14370049.72749  24666994.8374   24666999.3704
  20968774.932      868602.93249    682784.74049  20968774.5074   20968779.6604
  21706185.194   -19154168.86049 -14689328.17349  21706186.3484   21706192.7174
  21659560.951    -9678028.38949  -7518919.59449  21659559.9574   21659565.7504
 96  8 11 16 38 29.9990000  0  7 24 16 25  4  5  6 10
  21555343.515     3580071.01849   2796978.91249  21555345.7804   21555351.0994
  22185633.918   -18167607.95349 -14144151.75749  22185632.1104   22185638.9514
  24031513.338    -8159548.55849  -6138252.58449  24031515.4464   24031522.1174
  24686081.496    18547985.14449  14448207.69749  24686080.6824   24686085.9424
  20980951.116      932599.66249    732652.29449  20980952.5424   20980957.5444
  21693682.320   -19219868.84949 -14740522.96649  21693683.9034   21693689.5084
  21650331.755    -9726504.15849  -7556692.91349  21650334.8164   21650341.7814
 96  8 11 16 38 59.9990000  0  6 24 16 25  5  6 10
  21568135.890     3647297.62549   2849363.26349  21568137.9714   21568143.8814
  22170512.928   -18247045.10149 -14206050.79849  22170516.9704   22170524.1014
  24027047.657    -8183016.23649  -6156539.09349  24027049.4374   24027054.1544
  20993218.238      997067.78449    782887.17249  20993220.6284   20993225.4614
  21681207.423   -19285425.17849 -14791605.80949  21681209.1044   21681214.5614
  21641209.454    -9774455.12549  -7594057.28149  21641210.4934   21641216.5924
 96  8 11 16 39 29.9990000  0  6 24 16 25  5  6 10
  21580980.260     3714786.69249   2901952.12849  21580981.3214   21580986.2384
  22155469.957   -18326106.30549 -14267656.91049  22155472.3714   22155478.7414
  24022679.098    -8205967.67149  -6174423.33249  24022680.0584   24022684.2584
  21005570.783     1061985.35849    833472.26949  21005573.6614   21005578.6734
  21668762.069   -19350826.85949 -14842568.14949  21668764.0384   21668768.4234
  21632187.031    -9821876.70949  -7631009.15149  21632186.7144   21632192.3034
 96  8 11 16 39 59.9990000  0  6 24 16 25  5  6 10
  21593868.398     3782518.47149   2954730.12049  21593870.2424   21593875.3954
  22140496.270   -18404791.70649 -14328970.19849  22140499.1594   22140504.9084
  24018411.020    -8228390.45349  -6191895.62249  24018415.2974   24018419.9184
  21018009.458     1127337.87049    884396.28449  21018010.1234   21018014.7894
  21656347.456   -19416063.84949 -14893402.15949  21656350.0764   21656353.7224
  21623267.614    -9868742.83549  -7667528.19849  21623268.3964   21623273.7854
 96  8 11 16 40 29.9990000  0  6 24 16 25  5  6 10
  21606803.441     3850492.24649   3007696.67849  21606805.6784   21606810.7964
  22125592.764   -18483116.72749 -14390002.66249  22125593.8744   22125599.6684
  24014251.579    -8250271.03749  -6208945.45149  24014250.0224   24014257.3504
  21030523.346     1193112.62249    935649.31949  21030526.3204   21030531.4444
  21643967.034   -19481128.03949 -14944101.53249  21643968.8974   21643972.5914
  21614454.135    -9915043.58049  -7703606.70149  21614457.6914   21614463.3554
 96  8 11 16 40 59.9990000  0  6 24 16 25  5  6 10
  21619789.722     3918727.92849   3060867.32949  21619790.3084   21619795.2524
  22110756.143   -18561067.41249 -14450743.43449  22110760.3384   22110766.5584
  24010188.315    -8271608.60149  -6225572.16749  24010191.1844   24010195.1704
  21043117.600     1259301.96149    987225.40049  21043121.5904   21043127.2614
  21631620.629   -19546010.52449 -14994659.30749  21631622.3364   21631626.1184
  21605754.765    -9960767.70449  -7739235.87449  21605755.9374   21605762.7364
 96  8 11 16 41 29.9990000  0  6 24 16 25  5  6 10
  21632823.548     3987213.04749   3114232.33749  21632822.9264   21632827.3034
  22096001.866   -18638628.68349 -14511180.76949  22096001.7874   22096007.7814
  24006238.495    -8292393.21449  -6241767.93549  24006237.1984   24006240.2994
  21055795.349     1325910.43349   1039128.07749  21055797.2364   21055802.5484
  21619306.304   -19610719.86849 -15045082.16749  21619308.0744   21619313.2844
  21597166.382   -10005914.24749  -7774414.97849  21597164.9204   21597171.3224
 96  8 11 16 41 59.9990000  0  6 24 16 25  5  6 10
  21645900.860     4055960.73249   3167801.94349  21645904.6474   21645909.6064
  22081318.824   -18715790.83049 -14571307.09449  22081318.2884   22081324.6034
  24002381.988    -8312620.62649  -6257529.55049  24002383.9334   24002393.6714
  21068552.784     1392943.43849   1091361.56149  21068553.1884   21068558.6554
  21607026.287   -19675252.53049 -15095367.34149  21607027.3644   21607032.8964
  21588680.419   -10050498.95349  -7809156.30249  21588681.2854   21588687.0714
 96  8 11 16 42 29.9990000  0  6 24 16 25  5  6 10
  21659040.163     4124995.92449   3221595.57849  21659041.4444   21659047.1474
  22066711.144   -18792529.80949 -14631103.68449  22066715.3564   22066721.4944
  23998644.511    -8332284.51049  -6272852.08849  23998645.3674   23998649.2114
  21081392.085     1460417.84249   1143938.99549  21081393.2134   21081398.3884
  21594784.828   -19739579.54249 -15145492.28349  21594787.0864   21594792.5264
  21580299.223   -10094535.09349  -7843470.16049  21580301.0544   21580307.4824
 96  8 11 16 42 59.9990000  0  6 24 16 25  5  6 10
  21672227.940     4194295.44449   3275595.19449  21672228.7124   21672234.9344
  22052191.511   -18868841.15449 -14690567.05349  22052193.0994   22052199.9294
  23995002.351    -8351419.66449  -6287762.60549  23995002.9474   23995008.1624
  21094313.572     1528325.84049   1196854.28849  21094315.2794   21094320.9114
  21582583.027   -19803704.48849 -15195459.76249  21582584.4884   21582589.5694
  21572021.932   -10138035.28249  -7877366.39649  21572023.9774   21572029.1264
 96  8 11 16 43 29.9990000  0  6 24 16 25  5  6 10
  21685460.270     4263843.05249   3329788.11349  21685463.4304   21685468.5174
  22037752.021   -18944732.18049 -14749702.89749  22037751.8484   22037758.0304
  23991457.921    -8370026.18349  -6302261.21349  23991461.8484   23991468.4774
  21107320.830     1596673.04549   1250111.81549  21107321.5814   21107326.8594
  21570420.238   -19867624.73549 -15245267.73749  21570421.0414   21570425.4624
  21563845.908   -10181015.34849  -7910857.35749  21563845.2044   21563850.6324
 96  8 11 16 43 59.9990000  0  6 24 16 25  5  6 10
  21698746.791     4333663.86849   3384193.92749  21698749.8014   21698754.7814
  22023394.434   -19020188.63049 -14808500.13349  22023393.4924   22023399.2364
  23988023.823    -8388090.76049  -6316337.52449  23988025.4584   23988029.8914
  21120413.629     1665472.58649   1303721.82249  21120413.8294   21120418.7134
  21558297.054   -19931330.81249 -15294908.83249  21558297.9584   21558302.1104
  21555769.706   -10223446.14649  -7943920.30449  21555769.7494   21555776.8604
 96  8 11 16 44 29.9990000  0  7 24 16 25  5  6 17 10
  21712080.106     4403716.94749   3438780.71549  21712080.9344   21712085.5934
  22009110.293   -19095235.71249 -14866978.36449  22009111.3414   22009117.8034
  23984682.419    -8405643.09149  -6330014.66249  23984682.8294   23984690.5404
  21133585.566     1734697.71149   1357663.46049  21133587.0874   21133591.9024
  21546207.323   -19994862.40149 -15344413.97049  21546208.6984   21546212.7684
  24845401.289    -1649746.70859  -1191006.21259  24845401.4674   24845407.9264
  21547797.953   -10265331.81649  -7976558.47049  21547799.6294   21547805.4404
 96  8 11 16 44 59.9990000  0  7 24 16 25  5  6 17 10
  21725455.503     4474015.23049   3493558.57949  21725457.9714   21725463.0674
  21994907.553   -19169870.67649 -14925135.45149  21994909.0484   21994915.6954
  23981448.005    -8422654.50349  -6343270.30649  23981448.0864   23981453.0554
  21146842.487     1804354.77449   1411941.66549  21146842.1014   21146847.6634
  21534146.695   -20058233.98949 -15393794.41949  21534148.7504   21534153.4994
  24824880.543    -1757580.96149  -1275032.86349  24824880.5754   24824888.0054
  21539936.205   -10306654.94849  -8008758.31049  21539936.2674   21539941.8734
 96  8 11 16 45 29.9990000  0  7 24 16 25  5  6 17 10
  21738879.203     4544562.27549   3548530.27949  21738883.1034   21738887.8304
  21980785.523   -19244079.30049 -14982960.34149  21980787.6564   21980794.3264
  23978320.147    -8439088.24249  -6356075.85949  23978321.1424   23978325.0654
  21160176.951     1874455.26249   1466565.39649  21160181.3764   21160187.5144
  21522117.156   -20121450.93149 -15443054.36849  21522118.6604   21522124.1014
  24804377.546    -1865312.71149  -1358979.63649  24804378.8234   24804385.2854
  21532182.597   -10347404.62249  -8040511.29349  21532181.7274   21532187.5744
 96  8 11 16 45 59.9990000  0  7 24 16 25  5  6 17 10
  21752349.912     4615343.28849   3603684.29749  21752351.5354   21752356.7784
  21966746.222   -19317863.58949 -15040454.57649  21966746.6944   21966753.3964
  23975298.153    -8454953.62349  -6368438.52649  23975301.3984   23975308.1724
  21173604.804     1944998.42149   1521534.04549  21173605.5484   21173611.1164
  21510116.417   -20184520.03049 -15492199.11349  21510117.3864   21510122.3984
  24783898.358    -1972938.64849  -1442843.95049  24783897.1984   24783905.1904
  21524538.578   -10387581.66949  -8071818.06949  21524536.5954   21524542.4414
 96  8 11 16 46 29.9990000  0  7 24 16 25  5  6 17 10
  21765861.486     4686348.43349   3659012.96149  21765863.6464   21765868.4184
  21952786.587   -19391226.85349 -15097620.73549  21952785.7274   21952792.8454
  23972390.146    -8470248.23949  -6380356.39349  23972390.4014   23972395.8324
  21187112.631     2015976.05249   1576841.26649  21187112.7854   21187117.7504
  21498143.846   -20247430.17049 -15541219.98249  21498146.5784   21498151.8284
  24763430.257    -2080491.36249  -1526651.27949  24763430.7374   24763439.4274
  21516993.894   -10427219.43149  -8102704.62349  21516992.8894   21516998.7924
 96  8 11 16 46 59.9990000  0  7 24 16 25  5  6 17 10
  21779415.706     4757582.27449   3714519.82849  21779419.0264   21779424.1954
  21938900.391   -19464179.80249 -15154467.17049  21938904.2254   21938910.1094
  23969587.509    -8484964.94449  -6391823.97649  23969590.1014   23969596.2694
  21200700.263     2087387.10249   1632486.21249  21200701.7984   21200707.2384
  21486204.396   -20310177.17349 -15590113.74749  21486205.6324   21486211.2574
  24742979.553    -2187982.83749  -1610410.90749  24742979.1444   24742985.2544
  21509551.142   -10466323.37249  -8133175.21049  21509551.7334   21509557.8974
 96  8 11 16 47 29.9990000  0  7 24 16 25  5  6 17 10
  21793019.657     4829059.58549   3770216.42149  21793021.1194   21793025.9374
  21925102.108   -19536704.83249 -15210980.17349  21925102.9804   21925109.6404
  23966901.236    -8499108.54649  -6402844.95949  23966900.1814   23966904.0714
  21214376.610     2159262.41349   1688492.91449  21214379.0194   21214384.6944
  21474301.472   -20372721.77349 -15638849.79449  21474303.8444   21474309.3804
  24722537.542    -2295377.16849  -1694094.75749  24722540.6714   24722550.3294
  21502219.818   -10504860.54149  -8163204.16349  21502218.8984   21502225.1094
 96  8 11 16 47 59.9990000  0  7 24 16 25  5  6 17 10
  21806670.691     4900785.23749   3826106.52149  21806670.0614   21806674.5044
  21911377.235   -19608816.89849 -15267171.38549  21911380.8834   21911387.6354
  23964309.754    -8512702.69049  -6413437.86249  23964311.7314   23964317.8154
  21228140.269     2231589.10449   1744851.35349  21228142.1324   21228147.9764
  21462438.887   -20435065.73749 -15687429.50249  21462440.5984   21462445.3104
  24702120.544    -2402676.40249  -1777704.51849  24702123.0444   24702128.0164
  21494993.994   -10542834.85249  -8192794.52849  21494992.6214   21494998.1704
 96  8 11 16 48 29.9990000  0  7 24 16 25  5  6 17 10
  21820362.443     4972757.30349   3882188.62649  21820365.2554   21820370.7554
  21897737.157   -19680516.31549 -15323041.03949  21897737.0954   21897743.5904
  23961825.996    -8525759.42349  -6423611.95949  23961827.4264   23961833.3044
  21241983.960     2304344.52149   1801543.85549  21241986.8754   21241993.0764
  21450611.199   -20497221.14049 -15735862.28649  21450612.3144   21450617.5164
  24681720.292    -2509884.64649  -1861243.37049  24681720.5534   24681729.5984
  21487871.882   -10580242.48749  -8221943.33349  21487874.1184   21487880.1884
 96  8 11 16 48 59.9990000  0  7 24 16 25  5  6 17 10
  21834106.767     5044978.35049   3938464.74249  21834108.9944   21834114.1534
  21884179.400   -19751780.98849 -15378571.94449  21884176.0754   21884182.4274
  23959440.946    -8538282.61649  -6433370.25649  23959443.8684   23959450.9664
  21255912.565     2377531.63549   1858572.73849  21255913.9324   21255919.8134
  21438819.604   -20559182.91049 -15784144.17549  21438820.8674   21438826.2524
  24661344.685    -2616961.09849  -1944679.52949  24661345.0644   24661351.7154
  21480872.188   -10617049.34049  -8250623.98249  21480869.7744   21480875.7354
 96  8 11 16 49 29.9990000  0  7 24 16 25  5  6 17 10
  21847899.206     5117455.99049   3994940.80949  21847900.5544   21847906.1054
  21870707.719   -19822564.25549 -15433727.72749  21870706.0854   21870712.5044
  23957162.941    -8550266.59249  -6442708.44149  23957164.7524   23957170.0404
  21269920.050     2451150.54649   1915938.09949  21269923.3684   21269929.5794
  21427070.704   -20620926.43649 -15832256.00149  21427071.5524   21427077.5214
  24640996.346    -2723876.79749  -2027990.38149  24640999.2354   24641006.5664
  21473984.097   -10653238.05449  -8278822.98149  21473983.4944   21473988.7974
 96  8 11 16 49 59.9990000  0  7 24 16 25  5  6 17 10
  21861730.003     5190137.92349   4051576.07149  21861731.5694   21861737.2214
  21857317.411   -19892882.79549 -15488521.36749  21857324.9084   21857331.0904
  23954979.815    -8561741.23549  -6451649.73549  23954981.5164   23954986.4594
  21284000.975     2525136.64349   1973589.57249  21284001.8984   21284007.7894
  21415354.804   -20682495.83749 -15880232.14949  21415355.4174   21415361.2464
  24620678.573    -2830667.81149  -2111204.10749  24620679.5724   24620685.7504
  21467203.492   -10688855.14049  -8306576.54949  21467205.6784   21467211.8884
 96  8 11 16 50 29.9990000  0  7 24 16 25  5  6 17 10
  21875599.266     5263026.40849   4108372.26349  21875602.0174   21875606.7814
  21844030.706   -19962718.21249 -15542938.55849  21844035.4434   21844042.3184
  23952894.316    -8572689.76149  -6460181.08249  23952896.5584   23952902.6214
  21298147.394     2599489.33649   2031526.69849  21298150.9594   21298157.0114
  21403672.569   -20743878.53049 -15928062.79949  21403675.0264   21403680.6764
  24600376.815    -2937326.01849  -2194314.36849  24600379.6084   24600386.0204
  21460540.695   -10723894.41949  -8333879.87149  21460537.7824   21460543.9224
 96  8 11 16 50 59.9990000  0  7 24 16 25  5  6 17 10
  21889507.263     5336119.62049   4165328.00149  21889511.4474   21889516.8214
  21830837.920   -20032065.82749 -15596975.64349  21830838.8844   21830844.8024
  23950911.887    -8583110.54049  -6468301.17349  23950913.6224   23950919.3884
  21312368.426     2674210.70749   2089751.11049  21312370.4464   21312376.0084
  21392028.444   -20805076.87749 -15975749.81549  21392029.4214   21392034.8324
  24580108.182    -3043852.06149  -2277321.65749  24580112.4264   24580116.5894
  21453979.303   -10758358.76849  -8360735.20649  21453980.0904   21453985.8324
 96  8 11 16 51 29.9990000  0  7 24 16 25  5  6 17 10
  21903458.584     5409428.27949   4222451.62049  21903460.8514   21903466.8754
  21817733.703   -20100930.12049 -15650636.11349  21817734.5214   21817739.9694
  23949031.039    -8592998.31449  -6476005.93849  23949032.7134   23949037.6394
  21326662.040     2749314.50849   2148273.52049  21326661.9824   21326667.7144
  21380415.781   -20866102.42049 -16023302.17749  21380417.4094   21380421.5244
  24559862.360    -3150243.30649  -2360223.89149  24559864.6424   24559872.2234
  21447526.424   -10792248.28149  -8387142.62049  21447531.1184   21447536.1394
 96  8 11 16 51 59.9990000  0  7 24 16 25  5  6 17 10
  21917458.119     5482980.16949   4279764.76149  21917457.5774   21917462.4494
  21804716.298   -20169328.51449 -15703933.55949  21804719.0124   21804724.2884
  23947254.350    -8602340.00949  -6483285.22249  23947255.8514   23947260.4224
  21341029.336     2824825.84649   2207113.49349  21341031.4314   21341037.2674
  21368835.509   -20926954.47049 -16070719.36549  21368837.6444   21368841.4754
  24539645.539    -3256493.46549  -2443016.19749  24539646.4174   24539654.5874
  21441193.154   -10825551.86549  -8413093.45049  21441193.4894   21441199.6854
 96  8 11 16 52 29.9990000  0  7 24 16 25  5  6 17 10
  21931497.465     5556775.04449   4337267.24249  21931500.6704   21931505.6294
  21791786.634   -20237284.97749 -15756886.63449  21791787.4134   21791792.9734
  23945577.513    -8611142.55149  -6490144.37849  23945578.4284   23945586.1944
  21355478.331     2900747.13849   2266272.90549  21355478.9194   21355484.3494
  21357287.427   -20987641.82549 -16118008.21649  21357288.8914   21357292.9754
  24519447.296    -3362623.18049  -2525714.73449  24519450.6664   24519457.8414
  21434969.818   -10858266.55349  -8438585.41949  21434968.2704   21434973.1104
 96  8 11 16 52 59.9990000  0  7 24 16 25  5  6 17 10
  21945584.614     5630809.01949   4394956.04249  21945588.4624   21945593.3904
  21778938.429   -20304816.34149 -15809508.46549  21778936.2214   21778942.1864
  23944001.155    -8619415.50449  -6496590.85249  23944005.5854   23944009.9994
  21370001.522     2977075.10149   2325749.21549  21370003.6424   21370009.2014
  21345768.007   -21048172.95249 -16165175.32049  21345769.5414   21345774.1794
  24499276.128    -3468638.21449  -2608323.82549  24499276.4544   24499283.8264
  21428850.313   -10890396.31549  -8463621.59849  21428853.6904   21428859.0824
 96  8 11 16 53 29.9990000  0  7 24 16 25  5  6 17 10
  21959723.607     5705086.85949   4452834.85449  21959724.0574   21959728.7574
  21766166.988   -20371924.50149 -15861800.52449  21766165.9574   21766171.7204
  23942536.249    -8627136.83949  -6502607.45749  23942536.7034   23942543.1244
  21384606.798     3053822.75649   2385552.55949  21384608.1614   21384614.0194
  21334282.109   -21108517.75949 -16212197.22949  21334285.6094   21334291.9444
  24479122.505    -3574536.09249  -2690841.59849  24479125.2964   24479131.2864
  21422852.827   -10921934.26649  -8488196.61649  21422852.2574   21422857.9384
 96  8 11 16 53 59.9990000  0  7 24 16 25  5  6 17 10
  21973896.355     5779584.10949   4510884.65349  21973899.7174   21973905.4614
  21753473.007   -20438609.34049 -15913762.72549  21753476.1454   21753482.0924
  23941173.494    -8634294.03349  -6508184.51849  23941175.8084   23941179.4814
  21399288.678     3130972.66649   2445669.33649  21399289.5764   21399294.8494
  21322841.000   -21168654.01149 -16259056.64149  21322841.4994   21322847.8104
  24458990.209    -3680328.69049  -2773277.33649  24458992.1534   24459000.5994
  21416960.902   -10952878.80249  -8512309.24049  21416963.9504   21416969.8954
 96  8 11 16 54 29.9990000  0  7 24 16 25  5  6 17 10
  21988106.886     5854251.39249   4569066.93349  21988108.5734   21988113.7584
  21740866.936   -20504872.07649 -15965396.01749  21740867.1724   21740873.4524
  23939915.403    -8640902.65549  -6513334.12849  23939917.0054   23939922.8294
  21414042.312     3208500.64949   2506080.72649  21414042.8194   21414047.7964
  21311431.700   -21228607.53149 -16305773.65449  21311433.0954   21311439.4224
  24438875.185    -3786039.54449  -2855649.41849  24438876.4064   24438884.3604
  21411181.359   -10983262.84549  -8535985.11649  21411182.2844   21411187.6514
 96  8 11 16 54 59.9990000  0  7 24 16 25  5  6 17 10
  22002354.489     5929124.54349   4627409.62649  22002357.0064   22002361.4244
  21728346.210   -20570658.70149 -16016658.31049  21728347.8274   21728355.0944
  23938766.297    -8646923.20049  -6518025.47349  23938770.3904   23938776.7794
  21428874.674     3286457.06749   2566825.96149  21428877.3134   21428882.3574
  21300066.033   -21288339.41849 -16352317.97749  21300067.1474   21300072.2664
  24418783.618    -3891615.76949  -2937916.57349  24418786.5204   24418794.2104
  21405511.106   -11013053.05549  -8559198.27049  21405512.4924   21405518.7914
 96  8 11 16 55 29.9990000  0  7 24 16 25  5  6 17 10
  22016635.692     6004170.86249   4685887.25449  22016637.0324   22016643.1224
  21715918.029   -20635973.63549 -16067553.04349  21715918.4304   21715925.2264
  23937732.322    -8652381.86049  -6522278.97549  23937733.1644   23937737.6874
  21443790.661     3364821.49749   2627889.13249  21443789.7774   21443794.6574
  21288739.543   -21347868.66549 -16398704.41349  21288739.9604   21288744.3314
  24398716.193    -3997077.45249  -3020094.45649  24398717.7424   24398725.4484
  21399949.931   -11042273.02149  -8581967.06149  21399952.2914   21399958.3264
 96  8 11 16 55 59.9990000  0  7 24 16 25  5  6 17 10
  22030949.019     6079392.50949   4744501.51449  22030951.6354   22030956.9024
  21703579.853   -20700801.93349 -16118068.58749  21703582.3204   21703588.9704
  23936796.149    -8657299.22949  -6526110.70349  23936798.6604   23936802.7214
  21458777.695     3443593.80949   2689270.12949  21458779.4554   21458784.3704
  21277443.939   -21407223.89949 -16444955.23949  21277445.3014   21277449.5504
  24378667.197    -4102423.58649  -3102182.32549  24378670.5494   24378679.5104
  21394501.693   -11070921.22549  -8604290.35149  21394501.8604   21394506.8354
 96  8 11 16 56 29.9990000  0  7 24 16 25  5  6 17 10
  22045304.408     6154805.75349   4803265.04649  22045302.9274   22045307.6044
  21691341.134   -20765138.87049 -16168201.26649  21691340.0714   21691345.8014
  23935957.755    -8661702.95449  -6529542.24049  23935959.2444   23935962.8604
  21473844.477     3522772.92649   2750968.11549  21473846.3884   21473852.2874
  21266177.362   -21466425.88549 -16491086.64949  21266178.9184   21266183.4424
  24358643.882    -4207667.63549  -3184190.62449  24358642.5224   24358651.3874
  21389148.708   -11099009.42349  -8626177.25749  21389155.5744   21389161.9924
 96  8 11 16 56 59.9990000  0  7 24 16 25  5  6 17 10
  22059693.273     6230448.46849   4862207.40049  22059695.6064   22059702.1784
  21679191.870   -20828971.32049 -16217940.84149  21679193.5954   21679199.1244
  23935220.432    -8665578.77449  -6532562.38149  23935221.1944   23935226.3484
  21488991.789     3602361.85549   2812985.42749  21488991.9084   21488997.5604
  21254948.721   -21525431.38649 -16537064.95849  21254950.6404   21254955.3714
  24338637.989    -4312777.72049  -3266094.56849  24338641.7374   24338649.6754
  21383923.514   -11126505.11349  -8647602.45449  21383923.5154   21383929.6664
 96  8 11 16 57 29.9990000  0  7 24 16 25  5  6 17 10
  22074134.996     6306324.12049   4921331.27249  22074135.5174   22074140.1344
  21667139.554   -20892303.36649 -16267290.46349  21667141.1434   21667147.6264
  23934581.810    -8668928.49249  -6535172.52649  23934583.0774   23934589.8324
  21504208.521     3682344.20949   2875309.31449  21504212.1594   21504217.6284
  21243758.962   -21584234.48449 -16582885.55149  21243760.9794   21243765.2654
  24318664.919    -4417753.44049  -3347893.77049  24318664.6594   24318672.6834
  21378807.296   -11153402.71249  -8668561.63649  21378805.4274   21378810.9014
 96  8 11 16 57 59.9990000  0  7 24 16 25  5  6 17 10
  22088612.805     6382419.94149   4980626.68449  22088615.3454   22088620.6114
  21655178.290   -20955158.27549 -16316268.29249  21655180.0784   21655186.8504
  23934041.806    -8671762.93549  -6537381.27349  23934045.1734   23934050.6694
  21519500.480     3762694.48149   2937919.88349  21519502.3154   21519508.2084
  21232603.815   -21642847.73849 -16628558.20749  21232606.0364   21232611.8634
  24298712.579    -4522601.33849  -3429593.39149  24298713.9084   24298720.5844
  21373800.362   -11179705.82049  -8689057.55249  21373799.2544   21373805.5774
 96  8 11 16 58 29.9990000  0  7 24 16 25  5  6 17 10
  22103136.394     6458740.31849   5040097.09449  22103138.3254   22103144.2634
  21643306.060   -21017546.31949 -16364882.34049  21643308.9424   21643314.3274
  23933605.856    -8674060.97949  -6539171.92949  23933608.7374   23933610.9884
  21534859.704     3843399.48149   3000806.86249  21534860.0524   21534865.5774
  21221492.146   -21701243.47749 -16674061.37549  21221493.8484   21221499.6914
  24278782.867    -4627306.11649  -3511181.47349  24278789.2144   24278794.6574
  21368911.182   -11205412.05149  -8709088.37149  21368908.6364   21368913.7844
 96  8 11 16 58 59.9990000  0  7 24 16 25  5  6 17 10
  22117697.352     6535256.76849   5099720.27649  22117700.2004   22117705.3804
  21631521.773   -21079479.45149 -16413141.92249  21631522.9674   21631528.9864
  23933268.282    -8675828.15349  -6540548.99949  23933269.9714   23933275.4364
  21550284.818     3924447.56749   3063961.18349  21550283.1324   21550288.0954
  21210421.437   -21759426.13849 -16719398.51149  21210422.0474   21210427.9354
  24258888.390    -4731867.37149  -3592657.68649  24258890.1144   24258897.2624
  21364125.294   -11230536.28849  -8728665.71249  21364127.0394   21364132.7424
 96  8 11 16 59 29.9990000  0  7 24 16 25  5  6 17 10
  22132291.226     6611961.06049   5159489.83449  22132296.3374   22132302.0084
  21619826.443   -21140945.67049 -16461037.65549  21619825.8024   21619832.8764
  23933037.749    -8677053.07849  -6541503.51249  23933039.0954   23933045.0034
  21565775.164     4005851.57149   3127392.84049  21565773.3454   21565779.4104
  21199385.936   -21817415.82149 -16764585.26549  21199387.0734   21199392.2674
  24239020.955    -4836290.94049  -3674026.64949  24239020.5934   24239027.4904
  21359457.867   -11255068.93949  -8747782.05749  21359458.6344   21359465.0884
 96  8 11 16 59 59.9990000  0  7 24 16 25  5  6 17 10
  22146923.297     6688847.12849   5219401.02849  22146926.7324   22146931.9434
  21608217.388   -21201940.32749 -16508565.94349  21608219.4424   21608225.3514
  23932908.651    -8677724.87049  -6542027.00149  23932909.8304   23932915.4144
  21581332.477     4087621.42149   3191109.57849  21581333.9454   21581339.4374
  21188389.469   -21875206.32549 -16809616.82749  21188390.2574   21188395.4514
  24219173.855    -4940580.08649  -3755290.87149  24219175.3744   24219182.4644
  21354903.601   -11279015.03149  -8766441.34249  21354901.8824   21354907.6874
 96  8 11 17  0 29.9990000  0  7 24 16 25  5  6 17 10
  22161592.365     6765911.00749   5279450.76249  22161592.3334   22161596.9544
  21596706.079   -21262441.87049 -16555709.99949  21596706.6574   21596712.1754
  23932883.876    -8677848.18049  -6542123.11849  23932885.9054   23932894.0294
  21596960.424     4169754.32249   3255109.21049  21596963.2824   21596969.2584
  21177428.804   -21932800.31149 -16854495.24149  21177430.6174   21177435.8184
  24199349.563    -5044749.25249  -3836461.62349  24199352.1444   24199359.4324
  21350454.748   -11302388.99349  -8784654.82149  21350454.1194   21350459.6084
 96  8 11 17  0 59.9990000  0  7 24 16 25  5  6 17 10
  22176286.695     6843138.16749   5339627.73949  22176287.5794   22176293.7874
  21585286.938   -21322434.18749 -16602457.25849  21585290.3664   21585295.9624
  23932965.864    -8677432.83949  -6541799.48149  23932966.2154   23932970.5274
  21612660.054     4252258.96149   3319398.50749  21612663.2104   21612669.0094
  21166505.873   -21990204.59049 -16899225.84549  21166507.0364   21166511.4994
  24179549.989    -5148792.00149  -3917533.88749  24179553.3234   24179560.1904
  21346116.936   -11325179.41749  -8802413.59949  21346117.3874   21346123.0514
 96  8 11 17  1 29.9990000  0  7 24 16 25  5  6 17 10
  22191008.588     6920519.45649   5399924.84249  22191012.2654   22191018.0154
  21573965.754   -21381924.06049 -16648812.98649  21573969.4864   21573975.2844
  23933146.523    -8676476.16049  -6541054.05349  23933147.0694   23933155.3474
  21628433.008     4335133.30949   3383975.88149  21628433.3804   21628439.9204
  21155618.396   -22047418.64149 -16943808.21449  21155619.4284   21155624.4054
  24159778.189    -5252700.98249  -3998501.89749  24159779.8454   24159786.7184
  21341890.201   -11347375.17049  -8819708.98149  21341893.6454   21341899.3674
 96  8 11 17  1 59.9990000  0  7 24 16 25  5  6 17 10
  22205766.398     6998057.16049   5460343.78549  22205767.6624   22205772.3624
  21562747.101   -21440900.59349 -16694768.71649  21562746.5644   21562752.5054
  23933426.311    -8674989.80149  -6539895.86849  23933430.5194   23933436.6174
  21644275.140     4418377.71949   3448841.61549  21644274.6124   21644280.9314
  21144772.664   -22104417.47749 -16988222.88749  21144773.2314   21144777.9264
  24140034.171    -5356456.33449  -4079350.18049  24140036.1464   24140043.0424
  21337780.973   -11368973.26149  -8836538.66749  21337783.5574   21337789.3254
 96  8 11 17  2 29.9990000  0  7 24 16 25  5  6 17 10
  22220548.022     7075747.60749   5520881.77749  22220550.9654   22220557.0454
  21551619.181   -21499360.10149 -16740321.56749  21551621.7784   21551627.9674
  23933810.847    -8672995.43449  -6538341.81849  23933810.8034   23933814.3414
  21660183.706     4501985.72349   3513990.67449  21660184.9834   21660191.0644
  21133964.328   -22161204.38749 -17032472.42949  21133967.2884   21133971.8224
  24120321.947    -5460044.40649  -4160068.13349  24120324.0094   24120329.9264
  21333790.190   -11389965.51549  -8852896.25249  21333788.8004   21333794.6094
 96  8 11 17  2 59.9990000  0  7 24 16 25  5  6 17 10
  22235362.370     7153574.92349   5581526.41149  22235362.2104   22235366.7294
  21540588.754   -21557335.87549 -16785497.47049  21540589.8034   21540596.5314
  23934279.890    -8670508.82449  -6536404.24149  23934282.8344   23934288.4144
  21676162.055     4585945.62949   3579413.95049  21676162.0764   21676167.7074
  21123197.887   -22217789.02849 -17076564.35949  21123200.2164   21123204.2854
  24100640.439    -5563469.93149  -4240659.42849  24100641.7724   24100650.7944
  21329909.641   -11410357.05849  -8868785.77049  21329908.6844   21329913.9324
 96  8 11 17  3 29.9990000  0  7 24 16 25  5  6 17 10
  22250198.614     7231571.20249   5642302.70049  22250203.3764   22250209.3324
  21529653.438   -21614806.45949 -16830279.73149  21529653.4854   21529660.1694
  23934850.412    -8667515.23549  -6534071.62849  23934853.3584   23934859.3294
  21692204.198     4670265.74349   3645117.90549  21692207.4834   21692213.9424
  21112473.852   -22274152.50849 -17120483.95449  21112474.2524   21112478.3764
  24080992.228    -5666725.21049  -4321118.07349  24080993.9504   24081001.0044
  21326142.027   -11430139.77849  -8884200.87549  21326143.9044   21326149.8044
 96  8 11 17  3 59.9990000  0  7 24 16 25  5  6 17 10
  22265079.547     7309751.63349   5703222.49249  22265081.1684   22265087.1394
  21518809.058   -21671772.64449 -16874668.94949  21518812.8654   21518818.6574
  23935514.360    -8664023.66049  -6531350.92349  23935516.5584   23935522.9384
  21708318.268     4754940.23049   3711097.98749  21708320.6834   21708327.0744
  21101787.002   -22330303.13349 -17164237.68149  21101788.4524   21101793.3754
  24061372.947    -5769818.94249  -4401450.85049  24061374.1564   24061383.1264
  21322494.791   -11449317.49149  -8899144.54549  21322495.1914   21322500.5044
 96  8 11 17  4 29.9990000  0  7 24 16 25  5  6 17 10
  22279993.996     7388134.00349   5764299.63349  22279996.6424   22280001.6874
  21508063.282   -21728233.82649 -16918664.66549  21508068.5154   21508074.6574
  23936280.194    -8660008.80449  -6528222.49549  23936281.9324   23936286.1304
  21724501.949     4839978.64749   3777361.64949  21724502.8524   21724509.6304
  21091141.763   -22386244.09949 -17207828.04049  21091142.8704   21091148.2164
  24041784.784    -5872757.79749  -4481662.92749  24041786.8914   24041793.8424
  21318957.254   -11467888.88749  -8913615.75949  21318960.1854   21318965.8444
 96  8 11 17  4 59.9990000  0  7 24 16 25  5  6 17 10
  22294946.901     7466718.04149   5825533.93349  22294951.7224   22294955.8584
  21497418.192   -21784198.85949 -16962273.76749  21497419.0494   21497425.7124
  23937147.082    -8655448.88549  -6524669.36149  23937149.8304   23937154.7664
  21740759.084     4925382.62249   3843910.16549  21740755.0914   21740761.5414
  21080533.145   -22441987.84149 -17251264.70749  21080534.4994   21080540.2644
  24022223.188    -5975553.81249  -4561763.68149  24022225.4094   24022232.4594
  21315540.775   -11485860.25449  -8927619.41549  21315540.9914   21315545.9624
 96  8 11 17  5 29.9990000  0  7 24 16 25  5  6 17 10
  22309944.330     7545505.89249   5886927.02049  22309944.4624   22309949.6474
  21486866.634   -21839654.31349 -17005485.79149  21486865.7614   21486872.5414
  23938119.095    -8650335.20449  -6520684.68349  23938120.8984   23938128.3814
  21757078.840     5011163.22349   3910752.15649  21757078.6824   21757084.9334
  21069966.741   -22497523.25349 -17294539.04749  21069966.8564   21069971.8684
  24002692.072    -6078196.09549  -4641744.64749  24002693.9334   24002700.9934
  21312237.836   -11503217.84049  -8941144.82049  21312238.3044   21312243.9784
 96  8 11 17  5 59.9990000  0  7 24 16 25  5  6 17 10
  22324969.222     7624486.40849   5948470.27449  22324973.2994   22324978.7564
  21476409.626   -21894598.40549 -17048299.35849  21476410.8764   21476415.9694
  23939202.721    -8644659.50749  -6516262.07549  23939203.3284   23939208.2984
  21773472.218     5097315.91549   3977884.09249  21773472.6744   21773478.7154
  21059436.875   -22552845.37049 -17337647.17649  21059439.3374   21059444.3264
  23983188.150    -6180689.45249  -4721609.54849  23983188.5504   23983196.0274
  21309049.788   -11519957.62149  -8954188.79649  21309052.0154   21309058.3294
 96  8 11 17  6 29.9990000  0  7 24 16 25  5  6 17 10
  22340036.264     7703635.18449   6010144.60749  22340035.6264   22340039.6414
  21466052.200   -21949016.31549 -17090702.92649  21466055.5674   21466060.4514
  23940384.878    -8638416.02849  -6511397.09949  23940390.0684   23940395.9224
  21789934.606     5183837.24849   4045303.28549  21789936.9234   21789943.0034
  21048953.563   -22607944.99349 -17380581.93849  21048954.0224   21048959.6034
  23963712.141    -6283032.78249  -4801357.54449  23963714.4384   23963721.6834
  21305985.269   -11536081.48849  -8966752.84549  21305984.2634   21305989.2974
 96  8 11 17  6 59.9990000  0  7 24 16 25  5  6 17 10
  22355123.183     7782925.28749   6071929.07749  22355123.0194   22355128.3064
  21455798.398   -22002901.74349 -17132691.55149  21455801.0024   21455807.5354
  23941681.460    -8631628.81449  -6506108.36349  23941681.4344   23941688.2284
  21806470.158     5270712.99749   4112998.64549  21806468.6514   21806475.7084
  21038508.329   -22662818.74449 -17423340.69649  21038511.3284   21038517.3854
  23944266.344    -6385222.70849  -4880986.00449  23944267.9064   23944274.7564
  21303035.307   -11551583.06249  -8978832.00049  21303034.2154   21303040.0074
 96  8 11 17  7 29.9990000  0  7 24 16 25  5  6 17 10
  22370234.949     7862360.54549   6133826.66249  22370239.6564   22370245.1074
  21445651.702   -22056230.94549 -17174246.75349  21445653.0334   21445659.3354
  23943072.966    -8624305.53749  -6500401.94249  23943075.5784   23943082.5974
  21823067.371     5357942.73649   4180969.84349  21823068.4344   21823074.7304
  21028114.414   -22717446.43049 -17465907.71949  21028116.6704   21028121.7714
  23924852.795    -6487246.82149  -4960485.27749  23924853.2204   23924861.3204
  21300206.127   -11566448.25949  -8990415.26449  21300205.4664   21300210.5344
 96  8 11 17  7 59.9990000  0  7 24 16 25  5  6 17 10
  22385377.942     7941925.44749   6195825.25249  22385379.7164   22385385.9514
  21435608.120   -22109008.09549 -17215371.79049  21435609.1664   21435615.6614
  23944567.905    -8616457.07449  -6494286.31349  23944568.1804   23944573.5084
  21839733.358     5445515.40849   4249208.26149  21839732.8114   21839739.0754
  21017762.795   -22771850.80649 -17508300.74349  21017764.5124   21017769.1904
  23905463.680    -6589120.78249  -5039867.57149  23905467.0654   23905475.2104
  21297493.613   -11580700.68049  -9001521.05249  21297493.2284   21297499.2454
 96  8 11 17  8 29.9990000  0  7 24 16 25  5  6 17 10
  22400540.498     8021608.96149   6257916.29349  22400542.3194   22400548.8524
  21425666.843   -22161250.79649 -17256080.37749  21425668.2074   21425674.1144
  23946158.752    -8608105.56749  -6487778.62849  23946158.2864   23946164.4034
  21856460.192     5533422.79449   4317707.49149  21856460.8354   21856467.6794
  21007449.589   -22826044.61049 -17550529.67949  21007451.7854   21007456.7464
  23886109.811    -6690841.10149  -5119130.11649  23886110.7584   23886118.3254
  21294893.770   -11594353.67049  -9012159.75149  21294895.3134   21294900.5284
 96  8 11 17  8 59.9990000  0  7 24 16 25  5  6 17 10
  22415732.937     8101434.52149   6320117.99349  22415734.0764   22415738.3924
  21415828.079   -22212957.35049 -17296371.18649  21415828.9314   21415835.0214
  23947841.242    -8599250.28249  -6480878.44749  23947844.2714   23947851.3924
  21873249.701     5621669.66849   4386471.25649  21873253.7474   21873260.5314
  20997179.696   -22880017.92049 -17592586.79949  20997180.7974   20997185.8774
  23866784.234    -6792393.87649  -5198262.12249  23866785.6944   23866793.0814
  21292408.935   -11607404.18849  -9022328.98249  21292411.2324   21292417.6444
 96  8 11 17  9 29.9990000  0  7 24 16 25  5  6 17 10
  22430946.693     8181399.83949   6382428.59349  22430950.3874   22430956.4004
  21406083.824   -22264142.61049 -17336255.79549  21406088.1994   21406094.6714
  23949622.194    -8589896.83449  -6473590.10449  23949622.9604   23949628.6694
  21890107.872     5710246.39649   4455492.04849  21890109.3034   21890116.0794
  20986948.291   -22933788.03749 -17634485.58949  20986948.9644   20986953.6294
  23847488.765    -6893794.41449  -5277275.47949  23847490.5444   23847497.3074
  21290039.224   -11619869.94549  -9032042.56549  21290039.7264   21290044.8534
 96  8 11 17  9 59.9990000  0  7 24 16 25  5  6 17 10
  22446193.911     8261504.60449   6444847.88549  22446193.8574   22446200.1964
  21396443.172   -22314817.18549 -17375742.46049  21396445.4414   21396451.1984
  23951496.968    -8580048.35449  -6465915.99049  23951498.2434   23951501.9514
  21907021.998     5799143.50949   4524762.50049  21907026.0264   21907032.8784
  20976755.051   -22987356.72449 -17676227.41949  20976755.6944   20976760.2444
  23828218.768    -6995044.42749  -5356171.56049  23828222.6554   23828229.9734
  21287775.782   -11631760.50549  -9041307.93249  21287777.3604   21287782.8604
 96  8 11 17 10 29.9990000  0  7 24 16 25  5  6 17 10
  22461467.453     8341783.49349   6507402.82949  22461471.2444   22461475.0824
  21386903.739   -22364957.51049 -17414812.83749  21386904.5724   21386910.1894
  23953468.935    -8569680.91749  -6457837.49349  23953470.0084   23953477.2664
  21924002.880     5888371.14349   4594290.49249  21924005.5124   21924012.0294
  20966603.697   -23040692.37949 -17717787.66849  20966605.7634   20966610.6034
  23808985.998    -7096124.58949  -5434935.29849  23808988.0174   23808995.4694
  21285627.795   -11643045.01249  -9050101.06249  21285629.4324   21285634.8204
 96  8 11 17 10 59.9990000  0  7 24 16 25  5  6 17 10
  22476774.726     8422224.65149   6570084.22349  22476777.9654   22476783.1314
  21377462.274   -22414557.91949 -17453462.49449  21377465.3114   21377471.3634
  23955543.084    -8558792.72449  -6449353.24349  23955542.6404   23955548.7054
  21941045.797     5977924.56649   4664072.34849  21941047.0284   21941053.8064
  20956496.626   -23093804.12149 -17759173.44049  20956498.7364   20956503.7194
  23789778.580    -7197049.18049  -5513577.81049  23789782.2774   23789790.1324
  21283598.372   -11653717.47749  -9058417.26949  21283598.1664   21283604.8674
 96  8 11 17 11 29.9990000  0  7 24 16 25  5  6 17 10
  22492121.468     8502854.12949   6632912.36749  22492121.3594   22492127.7714
  21368135.118   -22463590.16049 -17491669.42449  21368134.9784   21368140.8654
  23957713.623    -8547354.41249  -6440440.31649  23957717.2894   23957725.3674
  21958151.913     6067817.88449   4734119.05649  21958153.0914   21958159.8424
  20946437.140   -23146672.28649 -17800369.41149  20946438.5624   20946443.3404
  23770610.921    -7297804.08449  -5592088.05449  23770609.1984   23770616.3434
  21281686.336   -11663748.52349  -9066233.67749  21281689.9584   21281694.9284
 96  8 11 17 11 59.9990000  0  7 24 16 25  5  6 17 10
  22507492.318     8583635.08749   6695858.54349  22507494.3544   22507498.5804
  21358907.372   -22512088.51349 -17529460.34549  21358905.7534   21358912.4174
  23959993.954    -8535394.17449  -6431120.69449  23959996.9654   23960001.4874
  21975316.098     6158017.25849   4804404.24749  21975317.4074   21975323.4884
  20936417.962   -23199320.80649 -17841394.22949  20936420.3964   20936424.8734
  23751465.848    -7398419.12849  -5670489.34049  23751463.1024   23751470.0564
  21279893.154   -11673176.65449  -9073580.26949  21279895.2344   21279901.4564
 96  8 11 17 12 29.9990000  0  7 24 16 25  5  6 17 10
  22522896.462     8664581.02349   6758933.25949  22522896.7884   22522901.5034
  21349779.828   -22560032.64349 -17566819.38849  21349782.6664   21349789.3264
  23962373.119    -8522896.38049  -6421382.19649  23962372.7964   23962377.6564
  21992543.364     6248544.60749   4874945.01449  21992544.1654   21992550.6414
  20926445.582   -23251728.58349 -17882231.45949  20926447.2424   20926452.0334
  23732346.141    -7498873.40349  -5748765.35949  23732346.3844   23732354.0094
  21278218.431   -11681979.31549  -9080439.49049  21278220.3564   21278226.5114
 96  8 11 17 12 59.9990000  0  7 24 16 25  5  6 17 10
  22538323.647     8745663.29549   6822114.23249  22538326.8094   22538332.7584
  21340758.541   -22607446.51449 -17603765.24949  21340760.1494   21340765.6764
  23964849.203    -8509888.75449  -6411246.37549  23964849.6714   23964855.8174
  22009828.703     6339395.07849   4945737.56449  22009832.4084   22009839.4444
  20916514.903   -23303906.32749 -17922889.43549  20916517.8014   20916522.5984
  23713260.475    -7599162.33749  -5826912.57849  23713262.8894   23713267.9224
  21276658.588   -11690173.11749  -9086824.28349  21276661.1194   21276667.0164
 96  8 11 17 13 29.9990000  0  7 24 16 25  5  6 17 10
  22553786.101     8826891.86549   6885409.18449  22553783.8654   22553789.8424
  21331835.276   -22654339.03649 -17640304.87649  21331836.7654   21331842.0264
  23967413.702    -8496382.92849  -6400722.42449  23967418.0564   23967425.0204
  22027178.879     6430575.18049   5016786.96349  22027183.3034   22027189.9244
  20906634.978   -23355842.67149 -17963359.30849  20906635.0504   20906639.5494
  23694210.310    -7699268.47349  -5904917.34949  23694213.6834   23694219.7304
  21275214.586   -11697765.53349  -9092740.44749  21275216.2014   21275221.9704
 96  8 11 17 13 59.9990000  0  7 24 16 25  5  6 17 10
  22569259.685     8908244.36349   6948800.72649  22569264.4134   22569270.6454
  21323007.737   -22700728.84849 -17676452.78049  21323008.9744   21323015.1484
  23970079.865    -8482408.31649  -6389833.10649  23970079.1024   23970082.5344
  22044595.059     6522079.88049   5088089.29349  22044596.1874   22044603.2634
  20896792.156   -23407556.34549 -18003655.67549  20896794.2874   20896798.5324
  23675198.520    -7799194.17849  -5982781.51949  23675197.1664   23675204.8134
  21273880.711   -11704767.22149  -9098196.30749  21273884.2444   21273890.1694
 96  8 11 17 14 29.9990000  0  7 24 16 25  5  6 17 10
  22584762.849     8989739.93849   7012303.75149  22584772.3004   22584777.9904
  21314280.458   -22746592.82549 -17712190.94349  21314281.2464   21314287.6784
  23972824.861    -8467964.48149  -6378578.23649  23972827.8954   23972833.5864
  22062072.484     6613903.58349   5159640.19649  22062069.6624   22062076.5644
  20886993.358   -23459048.43849 -18043779.38549  20886995.7404   20887000.2184
  23656219.031    -7898917.84249  -6060488.25149  23656220.6544   23656228.4854
  21272670.111   -11711149.57349  -9103169.56849  21272669.6314   21272675.1324
 96  8 11 17 14 59.9990000  0  7 24 16 25  5  6 17 10
  22600307.625     9071375.99349   7075916.20949  22600307.9344   22600313.5444
  21305648.638   -22791925.81549 -17747515.32949  21305654.1494   21305660.8784
  23975659.570    -8453052.03949  -6366958.17349  23975663.0114   23975670.3184
  22079598.712     6706029.31249   5231426.44049  22079600.7834   22079607.6004
  20877234.530   -23510333.75849 -18083741.96549  20877235.8074   20877240.6624
  23637282.034    -7998446.03749  -6138042.64549  23637281.4714   23637288.5944
  21271573.220   -11716915.87549  -9107662.79049  21271572.7424   21271577.8334
 96  8 11 17 15 29.9990000  0  7 24 16 25  5  6 17 10
  22615875.630     9153184.04749   7139662.72449  22615874.6464   22615880.9584
  21297134.485   -22836691.34049 -17782397.55449  21297136.2184   21297142.2974
  23978596.720    -8437638.04649  -6354947.32149  23978597.1734   23978603.1734
  22097183.839     6798456.29349   5303447.42349  22097188.7654   22097195.6774
  20867515.447   -23561402.30049 -18123535.62249  20867517.3014   20867522.8694
  23618378.469    -8097777.45449  -6215443.72949  23618379.6464   23618385.9644
  21270592.730   -11722043.61149  -9111658.43449  21270596.3954   21270602.6534
 96  8 11 17 15 59.9990000  0  7 24 16 25  5  6 17 10
  22631462.484     9235129.87949   7203516.60849  22631468.5394   22631474.0864
  21288725.922   -22880890.99449 -17816838.83749  21288726.2794   21288731.9374
  23981623.972    -8421714.50549  -6342539.44449  23981628.8004   23981633.7364
  22114830.900     6891156.88849   5375681.61949  22114830.0734   22114835.5744
  20857834.880   -23612271.18949 -18163173.70649  20857837.7184   20857842.6924
  23599506.806    -8196939.70749  -6292712.97349  23599509.3834   23599516.0854
  21269740.750   -11726549.51449  -9115169.50749  21269739.0894   21269744.6164
 96  8 11 17 16 29.9990000  0  7 24 16 25  5  6 17 10
  22647089.185     9317210.89149   7267475.79649  22647088.2684   22647094.8704
  21280419.877   -22924525.38049 -17850839.65349  21280421.5184   21280427.3094
  23984757.371    -8405264.38649  -6329721.15649  23984757.4934   23984763.9634
  22132520.595     6984120.07549   5448120.42149  22132520.4674   22132526.6924
  20848199.044   -23662929.58749 -18202647.77949  20848198.6574   20848202.2184
  23580668.362    -8295938.91949  -6369855.16349  23580671.8154   23580676.9394
  21268999.110   -11730436.89049  -9118198.64149  21268999.4534   21269004.6894
 96  8 11 17 16 59.9990000  0  7 24 16 25  5  6 17 10
  22662730.695     9399416.24149   7331531.89149  22662731.2834   22662737.7364
  21272222.555   -22967597.57249 -17884402.40249  21272225.4544   21272231.4694
  23987989.296    -8388270.52649  -6316479.26349  23987991.8704   23987997.0374
  22150263.139     7077370.50949   5520783.06249  22150265.0314   22150271.2154
  20838600.196   -23713355.10649 -18241940.39249  20838602.6684   20838607.1794
  23561858.402    -8394782.94049  -6446876.43449  23561860.0554   23561868.7324
  21268373.640   -11733716.86549  -9120754.45949  21268374.8074   21268380.6694
 96  8 11 17 17 29.9990000  0  7 24 16 25  5  6 17 10
  22678390.577     9481724.12349   7395667.87749  22678393.8504   22678398.6044
  21264135.292   -23010109.68449 -17917528.72049  21264135.4444   21264141.9774
  23991324.429    -8370751.41049  -6302828.01449  23991326.7574   23991330.4334
  22168065.974     7170910.79549   5593671.56049  22168064.7054   22168071.0234
  20829050.275   -23763543.23149 -18281048.01649  20829051.8724   20829056.6784
  23543078.673    -8493481.62249  -6523784.46449  23543079.1144   23543085.7874
  21267864.439   -11736400.94949  -9122845.95349  21267865.3774   21267870.0864
 96  8 11 17 17 59.9990000  0  7 24 16 25  5  6 17 10
  22694075.027     9564125.83749   7459876.97149  22694074.6854   22694080.5444
  21256149.611   -23052064.82349 -17950221.02249  21256151.7244   21256157.7144
  23994756.022    -8352722.86249  -6288779.78649  23994756.5384   23994763.9664
  22185920.720     7264745.49549   5666789.47349  22185920.7744   22185927.2804
  20819545.866   -23813486.83249 -18319965.10049  20819547.8304   20819552.4534
  23524326.045    -8592020.54649  -6600568.02649  23524327.4344   23524334.2614
  21267466.509   -11738488.88049  -9124472.91649  21267467.3444   21267472.6364
 96  8 11 17 18 29.9990000  0  7 24 16 25  5  6 17 10
  22709772.178     9646626.41049   7524163.10549  22709775.0014   22709779.9504
  21248271.157   -23093469.34349 -17982484.27549  21248273.4984   21248278.8104
  23998275.271    -8334226.83949  -6274367.37049  23998274.6864   23998284.1554
  22203832.898     7358862.01249   5740126.98949  22203830.9954   22203837.6944
  20810086.454   -23863198.38949 -18358701.37249  20810088.0484   20810093.2024
  23505605.962    -8690395.44749  -6677223.77049  23505607.6664   23505614.3154
  21267181.854   -11739986.70249  -9125640.03649  21267182.5854   21267188.2214
 96  8 11 17 18 59.9990000  0  7 24 16 25  5  6 17 10
  22725492.953     9729264.78349   7588556.61749  22725498.3754   22725505.7024
  21240506.990   -23134265.94149 -18014273.82649  21240509.8064   21240515.7224
  24001882.202    -8315241.74849  -6259573.84449  24001886.1924   24001896.5804
  22221803.230     7453310.88349   5813723.47449  22221804.3774   22221810.7614
  20800677.065   -23912639.99249 -18397227.28349  20800679.4774   20800685.1244
  23486922.653    -8788558.24949  -6753714.22449  23486927.3934   23486935.3294
  21267015.632   -11740855.25449  -9126316.83249  21267016.9874   21267022.1254
 96  8 11 17 19 29.9990000  0  7 24 16 25  5  6 17 10
  22741254.287     9812050.06049   7653064.60549  22741253.7884   22741259.0184
  21232862.149   -23174457.09249 -18045591.60249  21232862.1944   21232867.3264
  24005594.881    -8295775.84549  -6244405.65449  24005595.3404   24005596.4154
  22239837.984     7548080.74549   5887570.08549  22239838.1384   22239845.3204
  20791320.733   -23961814.32849 -18435544.94249  20791321.9364   20791327.4314
  23468290.848    -8886493.47649  -6830027.34849  23468290.2854   23468297.7704
  21266971.210   -11741094.06649  -9126502.91949  21266971.6874   21266977.3624
 96  8 11 17 19 59.9990000  0  7 24 16 25  5  6 17 10
  22757031.402     9894974.51749   7717681.03549  22757033.5684   22757039.5004
  21225322.484   -23214075.84749 -18076463.35549  21225322.2374   21225327.9064
  24009385.158    -8275830.76449  -6228864.02049  24009387.5364   24009394.6124
  22257933.387     7643156.06649   5961654.70249  22257930.3654   22257936.7624
  20782010.722   -24010736.10149 -18473665.79749  20782012.1604   20782017.6784
  23449695.434    -8984201.99549  -6906163.80149  23449697.1884   23449704.7634
  21267039.391   -11740721.20549  -9126212.37749  21267042.4484   21267047.6694
 96  8 11 17 20 29.9990000  0  7 24 16 25  5  6 17 10
  22772836.180     9978027.30749   7782397.48449  22772837.0444   22772843.1434
  21217888.032   -23253129.87449 -18106895.04549  21217890.7334   21217897.2114
  24013277.946    -8255393.41949  -6212938.85149  24013278.3764   24013284.6574
  22276076.281     7738529.32149   6035971.48549  22276078.7364   22276085.9844
  20772750.645   -24059401.86549 -18511587.16249  20772751.3324   20772756.9184
  23431141.316    -9081704.52349  -6982139.76749  23431144.0204   23431151.0554
  21267227.827   -11739752.51249  -9125457.54849  21267227.3464   21267232.6264
 96  8 11 17 20 59.9990000  0  7 24 16 25  5  6 17 10
  22788657.782    10061184.07249   7847194.93749  22788662.1374   22788667.1514
  21210559.730   -23291638.16749 -18136901.50149  21210562.9004   21210568.8604
  24017254.487    -8234450.88749  -6196620.07349  24017259.4574   24017268.5714
  22294278.798     7834192.11049   6110513.88749  22294282.4494   22294289.5594
  20763535.662   -24107814.79149 -18549311.50349  20763539.1004   20763543.8694
  23412622.207    -9179025.56549  -7057974.30249  23412624.2584   23412631.0724
  21267518.806   -11738207.78249  -9124253.86449  21267520.4604   21267526.4134
 96  8 11 17 21 29.9990000  0  7 24 16 25  5  6 17 10
  22804497.790    10144426.98949   7912059.52049  22804502.3444   22804508.6124
  21203331.389   -23329624.28849 -18166501.07449  21203334.1684   21203339.9584
  24021343.382    -8213008.05149  -6179911.37649  24021344.3864   24021350.8644
  22312535.491     7930126.69049   6185268.08649  22312539.0814   22312545.3364
  20754370.520   -24155987.63249 -18586848.78049  20754372.0284   20754376.5924
  23394138.065    -9276177.74149  -7133677.26649  23394136.0964   23394143.6904
  21267920.871   -11736095.35249  -9122607.80549  21267922.9134   21267927.9744
 96  8 11 17 21 59.9990000  0  7 24 16 25  5  6 17 10
  22820362.173    10227759.64249   7976994.03349  22820360.7544   22820366.1044
  21196210.564   -23367056.04549 -18195668.66649  21196211.2724   21196217.0854
  24025520.570    -8191055.46049  -6162805.53649  24025522.1764   24025529.0644
  22330845.111     8026339.72549   6260239.25349  22330847.0214   22330854.2094
  20745251.420   -24203911.19949 -18624191.82149  20745252.5644   20745257.2984
  23375680.850    -9373156.28449  -7209244.92249  23375682.8604   23375689.6894
  21268435.685   -11733389.36849  -9120499.25849  21268438.1404   21268443.2844
 96  8 11 17 22 29.9990000  0  7 24 16 25  5  6 17 10
  22836235.802    10311181.04549   8041997.69649  22836234.9524   22836240.2364
  21189197.373   -23403908.90049 -18224385.16449  21189198.7004   21189203.9584
  24029787.949    -8168605.08449  -6145311.71549  24029792.8484   24029799.2304
  22349210.214     8122828.83049   6335425.52949  22349208.6594   22349215.9394
  20736179.346   -24251582.56049 -18661338.34349  20736181.4324   20736186.0954
  23357255.862    -9469971.01049  -7284684.91949  23357259.2534   23357266.0374
  21269069.424   -11730064.59249  -9117908.50849  21269069.6874   21269075.7694
 96  8 11 17 22 59.9990000  0  7 24 16 25  5  6 17 10
  22852122.766    10394693.41449   8107072.24349  22852126.0304   22852132.5524
  21182293.550   -23440182.24249 -18252650.09949  21182296.0234   21182301.2194
  24034155.794    -8145679.86349  -6127447.99349  24034157.2654   24034160.3724
  22367624.378     8219603.88649   6410834.62649  22367624.7594   22367631.6934
  20727154.107   -24299010.87449 -18698295.47949  20727155.7064   20727160.3104
  23338870.562    -9566606.00749  -7359984.87149  23338870.1724   23338877.3824
  21269826.013   -11726108.29249  -9114825.69249  21269823.8404   21269828.8334
 96  8 11 17 23 29.9990000  0  7 24 16 25  5  6 17 10
  22868038.494    10478297.59549   8172218.32749  22868036.6574   22868043.0164
  21175501.164   -23475878.30249 -18280465.21249  21175502.8524   21175508.6564
  24038600.780    -8122307.69149  -6109235.93049  24038601.4784   24038610.8104
  22386088.595     8316648.15349   6486453.49649  22386092.8574   22386099.0824
  20718171.019   -24346214.93649 -18735077.86449  20718172.8824   20718177.9544
  23320509.402    -9663067.43649  -7435149.57449  23320513.3884   23320521.4094
  21270692.285   -11721516.28249  -9111247.49249  21270696.1014   21270702.9914
 96  8 11 17 23 59.9990000  0  7 24 16 25  5  6 17 10
  22883965.283    10562011.00149   8237449.53249  22883966.6224   22883972.6764
  21168818.303   -23510989.70849 -18307824.72749  21168820.9394   21168827.2314
  24043135.458    -8098484.73249  -6090672.63849  24043138.4484   24043143.1734
  22404609.181     8413963.45249   6562283.55349  22404611.3104   22404617.3804
  20709234.351   -24393185.53449 -18771678.33249  20709234.8284   20709239.1224
  23302189.809    -9759359.25649  -7510182.11149  23302190.7094   23302197.3074
  21271690.846   -11716284.87449  -9107171.07049  21271693.0834   21271697.9594
 96  8 11 17 24 29.9990000  0  7 24 16 25  5  6 17 10
  22899916.548    10645836.82749   8302768.32449  22899918.0944   22899924.5504
  21162247.951   -23545536.00449 -18334743.91149  21162248.0304   21162252.9354
  24047753.972    -8074214.24949  -6071760.60549  24047755.1864   24047759.2634
  22423183.304     8511556.95849   6638330.39749  22423182.7654   22423189.1904
  20700339.543   -24439921.45949 -18808095.93049  20700341.6104   20700345.9824
  23283896.205    -9855476.70349  -7585078.77749  23283899.2144   23283907.1724
  21272802.359   -11710433.27249  -9102611.38949  21272805.5304   21272811.4724
 96  8 11 17 24 59.9990000  0  7 24 16 25  5  6 17 10
  22915886.204    10729769.60949   8368170.46149  22915888.7124   22915895.7224
  21155780.007   -23579523.45449 -18361227.63649  21155780.0274   21155785.6644
  24052456.645    -8049494.20649  -6052498.27049  24052459.9944   24052467.3604
  22441804.145     8609410.49249   6714579.86749  22441804.2874   22441810.0434
  20691486.220   -24486432.96349 -18844338.65049  20691490.3994   20691495.1784
  23265640.814    -9951411.52449  -7659833.12249  23265642.6344   23265650.6954
  21274033.631   -11703991.01949  -9097591.44149  21274032.6154   21274037.4004
 96  8 11 17 25 29.9990000  0  7 24 16 25  5  6 17 10
  22931882.384    10813809.79849   8433656.30349  22931882.7724   22931888.0344
  21149419.328   -23612937.43649 -18387264.48649  21149421.3264   21149427.5204
  24057253.504    -8024299.66949  -6032866.23849  24057255.6904   24057260.0544
  22460470.172     8707511.97849   6791022.53749  22460472.6174   22460477.9654
  20682683.804   -24532705.71449 -18880395.32649  20682684.6654   20682690.5544
  23247421.861   -10047157.00249  -7734439.94549  23247424.5234   23247431.6024
  21275366.878   -11696951.08649  -9092105.79749  21275371.5224   21275377.3244
 96  8 11 17 25 59.9990000  0  7 24 16 25  5  6 17 10
  22947894.450    10897933.73549   8499207.37549  22947891.0184   22947895.9794
  21143169.603   -23645782.04549 -18412857.68149  21143171.1534   21143177.0464
  24062135.251    -7998631.56659  -6012865.17259  24062137.4994   24062144.1264
  22479187.027     8805858.17149   6867655.88249  22479187.0064   22479192.4934
  20673926.375   -24578729.50749 -18916258.01949  20673927.0664   20673932.1224
  23229243.980   -10142701.25749  -7808889.94749  23229242.8014   23229249.7604
  21276825.830   -11689321.62549  -9086160.74149  21276823.5554   21276829.0854
 96  8 11 17 26 29.9990000  0  7 24 16 25  5  6 17 10
  22963902.906    10982114.49749   8564802.76149  22963908.9594   22963916.0334
  21137032.007   -23678048.86749 -18438000.64749  21137031.5314   21137036.7874
  24067110.021    -7972490.58149  -5992495.53149  24067112.4804   24067116.6014
  22497943.333     8904430.82049   6944465.69449  22497944.6834   22497949.9414
  20665214.468   -24624508.81949 -18951930.20549  20665215.5064   20665220.6194
  23211100.442   -10238027.94849  -7883170.42949  23211102.4654   23211109.7624
  21278384.674   -11681105.67249  -9079758.71749  21278387.2114   21278392.6584
 96  8 11 17 26 59.9990000  0  7 24 16 25  5  6 17 10
  22979938.838    11066369.48049   8630455.97149  22979942.9794   22979948.8824
  21131008.525   -23709706.62749 -18462669.02449  21131007.4634   21131013.1714
  24072181.612    -7945856.08459  -5971741.38959  24072183.4294   24072187.1384
  22516743.386     9003226.08449   7021448.97149  22516744.2074   22516750.7274
  20656551.940   -24670028.42449 -18987400.03049  20656552.9604   20656558.1044
  23193003.678   -10333126.31649  -7957273.02049  23193006.1024   23193012.6354
  21280066.519   -11672270.50149  -9072874.15749  21280068.1014   21280073.6704
 96  8 11 17 27 29.9990000  0  7 24 16 25  5  6 17 10
  22995991.764    11150695.35849   8696164.40649  22995989.9424   22995995.6314
  21125091.114   -23740776.00349 -18486878.91249  21125093.7194   21125099.9014
  24077337.053    -7918747.20459  -5950617.64649  24077341.2924   24077348.3654
  22535589.991     9102249.74549   7098610.21049  22535587.7164   22535595.1844
  20647940.079   -24715281.22349 -19022661.94849  20647941.3564   20647946.8364
  23174949.039   -10428014.82349  -8031212.08249  23174949.7554   23174956.1424
  21281865.337   -11662823.54149  -9065512.89849  21281866.0174   21281871.6294
 96  8 11 17 27 59.9990000  0  7 24 16 25  5  6 17 10
  23012048.105    11235108.05849   8761940.52049  23012052.4664   23012058.2704
  21119296.720   -23771243.72849 -18510619.98449  21119297.0014   21119302.6554
  24082587.701    -7891163.20549  -5929123.69149  24082590.2914   24082596.0984
  22554470.311     9201509.29749   7175955.27149  22554476.4254   22554483.1534
  20639378.833   -24760266.04849 -19057715.04749  20639381.2254   20639386.5494
  23156929.091   -10522697.74949  -8104990.95349  23156931.5134   23156938.4924
  21283781.439   -11652761.10049  -9057672.02849  21283779.9274   21283786.3724
 96  8 11 17 28 29.9990000  0  7 24 16 25  5  6 17 10
  23028131.990    11319625.96949   8827798.60449  23028135.5904   23028141.5674
  21113606.797   -23801111.85249 -18533893.83749  21113612.7054   21113618.8394
  24087924.884    -7863102.72749  -5907258.44649  24087927.3124   24087930.8554
  22573406.988     9300991.20949   7253473.58749  22573405.9314   22573413.5444
  20630868.064   -24805000.75349 -19092573.26249  20630868.9394   20630873.5964
  23138948.343   -10617199.19449  -8178628.41449  23138949.0694   23138954.4924
  21285810.187   -11642094.34349  -9049360.27649  21285810.9494   21285815.6904
 96  8 11 17 28 59.9990000  0  7 24 16 25  5  6 17 10
  23044243.188    11404273.68749   8893757.84449  23044244.3744   23044250.0484
  21108038.968   -23830399.08349 -18556715.03849  21108040.0734   21108045.6894
  24093356.233    -7834582.03259  -5885034.54659  24093357.9034   24093359.1814
  22592378.397     9400706.36549   7331173.65949  22592382.2264   22592388.5094
  20622404.365   -24849480.24349 -19127232.60149  20622404.6724   20622409.7174
  23120990.896   -10711544.46349  -8252144.20949  23120994.7364   23120999.5494
  21287951.452   -11630830.16249  -9040582.99049  21287953.4384   21287959.8904
 96  8 11 17 29 29.9990000  0  7 24 16 25  5  6 17 10
  23060368.670    11489039.05949   8959808.76249  23060373.0514   23060379.9724
  21102573.186   -23859118.96649 -18579094.15749  21102574.1334   21102580.1054
  24098868.863    -7805607.09359  -5862456.68549  24098870.1894   24098876.2894
  22611404.055     9500660.53049   7409059.96349  22611403.3374   22611409.4154
  20613988.648   -24893695.39349 -19161685.95949  20613990.8944   20613996.1914
  23103069.331   -10805735.49249  -8325539.83249  23103070.8014   23103076.2304
  21290211.652   -11618976.77049  -9031346.58449  21290210.6204   21290215.2924
 96  8 11 17 29 59.9990000  0  7 24 16 25  5  6 17 10
  23076528.198    11573933.07449   9025959.89549  23076528.6754   23076534.9254
  21097218.950   -23887247.90549 -18601012.78749  21097221.5424   21097227.3924
  24104468.086    -7776161.09949  -5839511.81449  24104472.4534   24104481.6544
  22630468.204     9600868.29549   7487143.89149  22630471.8304   22630477.8654
  20605627.372   -24937636.03049 -19195925.41349  20605629.2244   20605634.1474
  23085180.334   -10899740.55349  -8398790.49849  23085182.9744   23085188.1714
  21292578.552   -11606510.07549  -9021632.27749  21292581.4384   21292587.1484
 96  8 11 17 30 29.9990000  0  7 24 16 25  5  6 17 10
  23092698.956    11658916.43449   9092180.67849  23092701.0934   23092706.7014
  21091971.945   -23914824.28849 -18622500.86349  21091974.2334   21091979.6374
  24110157.894    -7746292.70649  -5816237.77949  24110158.5784   24110162.7404
  22649583.738     9701311.68449   7565411.41149  22649585.1444   22649591.5874
  20597315.414   -24981317.93849 -19229963.26049  20597317.2614   20597321.8464
  23067326.531   -10993564.10149  -8471899.72449  23067328.5254   23067334.7424
  21295064.447   -11593456.21549  -9011460.43849  21295066.3804   21295071.5834
 96  8 11 17 30 59.9990000  0  7 24 16 25  5  6 17 10
  23108885.330    11743990.53049   9158472.14349  23108889.3694   23108895.9134
  21086834.694   -23941824.00349 -18643539.58749  21086835.9774   21086842.3084
  24115921.591    -7715992.19649  -5792627.05349  24115923.0034   24115928.4504
  22668751.044     9802023.21849   7643887.88249  22668749.7774   22668756.6084
  20589059.937   -25024701.89949 -19263768.93849  20589061.4284   20589065.8674
  23049515.780   -11087166.86649  -8544836.88049  23049516.3644   23049523.5024
  21297667.447   -11579786.53549  -9000808.73749  21297667.1574   21297673.0664
 96  8 11 17 31 29.9990000  0  7 24 16 25  5  6 17 10
  23125085.649    11829109.10249   9224798.27349  23125087.4524   23125093.1114
  21081808.771   -23968255.50149 -18664135.54549  21081806.8124   21081812.9154
  24121766.759    -7685274.71349  -5768691.39649  24121770.2424   24121773.7334
  22687958.447     9902976.59249   7722552.79349  22687961.7194   22687967.8464
  20580853.653   -25067822.17549 -19297369.14849  20580855.5644   20580860.3724
  23031745.135   -11180546.16649  -8617599.92749  23031747.4784   23031754.1464
  21300384.283   -11565521.34849  -8989693.00449  21300382.6834   21300387.4564
 96  8 11 17 31 59.9990000  0  7 24 16 25  5  6 17 10
  23141295.398    11914269.27349   9291156.80749  23141292.8334   23141299.0254
  21076880.343   -23994108.97049 -18684281.09449  21076886.3764   21076892.0854
  24127690.033    -7654143.25849  -5744433.15649  24127692.2334   24127697.9854
  22707220.087    10004158.70649   7801395.94349  22707216.2484   22707221.3024
  20572694.538   -25110695.05449 -19330776.58249  20572696.7984   20572701.8414
  23014019.614   -11273701.51749  -8690188.48449  23014020.2804   23014025.8874
  21303203.718   -11550672.63449  -8978122.57649  21303206.9374   21303212.6374
 96  8 11 17 32 29.9990000  0  7 24 16 25  5  6 17 10
  23157501.008    11999482.08349   9357556.37549  23157508.5384   23157513.5204
  21072078.605   -24019359.24749 -18703956.61049  21072081.9914   21072087.6904
  24133700.424    -7622571.23149  -5719831.63749  24133700.7634   24133708.9154
  22726512.914    10105562.77649   7880412.05949  22726513.2524   22726518.7774
  20564587.431   -25153304.85549 -19363979.02149  20564588.9434   20564593.0194
  22996333.331   -11366628.27749  -8762598.90849  22996335.8724   22996343.7504
  21306147.602   -11535227.01449  -8966087.02849  21306147.1384   21306152.4584
 96  8 11 17 32 59.9990000  0  7 24 16 25  5  6 17 10
  23173732.325    12084753.87449   9424001.88649  23173735.4964   23173742.2034
  21067393.522   -24043996.62649 -18723154.56649  21067393.5704   21067399.1594
  24139794.941    -7590533.50749  -5694867.22549  24139796.6094   24139803.8584
  22745849.759    10207178.06849   7959592.75049  22745849.2804   22745855.5544
  20556528.524   -25195654.99349 -19396979.13049  20556530.3194   20556533.9384
  22978690.002   -11459344.72149  -8834845.43749  22978693.1184   22978699.2024
  21309191.848   -11519191.37149  -8953591.71749  21309197.7804   21309203.7344
 96  8 11 17 33 29.9990000  0  7 24 16 25  5  6 17 10
  23189971.780    12170074.88549   9490485.75149  23189970.5224   23189976.9894
  21062819.133   -24068024.99249 -18741877.94849  21062820.7724   21062826.9364
  24145980.208    -7558032.25349  -5669541.59349  24145983.3124   24145987.9674
  22765222.699    10308986.61449   8038924.03749  22765222.7944   22765228.3974
  20548514.682   -25237762.00649 -19429789.79349  20548517.0414   20548521.3374
  22961086.518   -11551860.35349  -8906935.49749  22961087.7214   22961094.6824
  21312362.250   -11502575.93949  -8940644.62949  21312360.7334   21312365.6864
 96  8 11 17 33 59.9990000  0  7 24 16 25  5  6 17 10
  23206221.488    12255468.21749   9557025.97349  23206221.3964   23206226.5494
  21058367.049   -24091432.29549 -18760117.38949  21058366.6144   21058372.5614
  24152256.315    -7525055.12549  -5643845.18849  24152257.6054   24152263.6594
  22784630.043    10411003.49949   8118417.67549  22784636.0744   22784641.4254
  20540553.728   -25279601.33449 -19462391.85949  20540555.4694   20540559.9814
  22943521.337   -11644167.49849  -8978863.08549  22943522.3764   22943529.1594
  21315633.830   -11485358.62349  -8927228.53249  21315635.6404   21315642.0304
 96  8 11 17 34 29.9990000  0  7 24 16 25  5  6 17 10
  23222482.813    12340935.48549   9623623.81049  23222483.8754   23222491.9784
  21054030.469   -24114222.81549 -18777876.22249  21054029.4064   21054035.4174
  24158622.417    -7491610.51649  -5617784.53849  24158621.9044   24158627.2394
  22804088.806    10513235.32049   8198078.77049  22804089.9114   22804095.9994
  20532646.478   -25321156.00549 -19494772.12449  20532648.1204   20532652.5354
  22925995.733   -11736259.18949  -9050622.81449  22925997.9484   22926004.6614
  21319030.845   -11467530.29849  -8913336.33749  21319029.9624   21319034.1314
 96  8 11 17 34 59.9990000  0  7 24 16 25  5  6 17 10
  23238755.278    12426460.74549   9690266.85249  23238760.0564   23238766.2434
  21049803.614   -24136427.43649 -18795178.51449  21049804.6054   21049809.6764
  24165063.825    -7457738.79649  -5591391.04249  24165066.9854   24165074.7794
  22823585.393    10615681.16249   8277906.65749  22823584.9044   22823591.2154
  20524790.440   -25362432.54749 -19526935.65849  20524792.8694   20524797.8444
  22908510.313   -11828147.76849  -9122224.27349  22908512.4694   22908519.1204
  21322529.549   -11449111.56749  -8898984.07649  21322533.1534   21322539.7654
 96  8 11 17 35 29.9990000  0  7 24 16 25  5  6 17 10
  23255047.297    12512051.78049   9756961.12949  23255048.0214   23255051.8784
  21045684.210   -24158052.18049 -18812028.94049  21045689.1844   21045695.0154
  24171589.513    -7423450.99149  -5564673.31249  24171591.4814   24171598.6954
  22843117.998    10718341.97849   8357902.03849  22843120.4184   22843126.8514
  20516991.703   -25403425.45349 -19558878.17849  20516992.6374   20516996.9344
  22891066.200   -11919817.56049  -9193655.25449  22891068.3794   22891074.6764
  21326153.252   -11430092.85049  -8884164.29649  21326153.2834   21326158.4994
 96  8 11 17 35 59.9990000  0  7 24 16 25  5  6 17 10
  23271342.926    12597716.12449   9823712.53649  23271350.2004   23271354.5904
  21041680.956   -24179108.32149 -18828436.31849  21041682.7834   21041687.6934
  24178194.604    -7388757.94449  -5537639.77849  24178193.2344   24178200.9124
  22862697.184    10821218.32949   8438065.37949  22862697.8044   22862704.4354
  20509244.606   -25444126.86949 -19590593.56249  20509246.8764   20509251.9674
  22873661.445   -12011281.16449  -9264925.55449  22873663.3794   22873669.5804
  21329883.625   -11410484.67649  -8868885.20049  21329883.7954   21329889.4704
 96  8 11 17 36 29.9990000  0  7 24 16 25  5  6 17 10
  23287659.387    12683461.02949   9890526.71149  23287665.0024   23287671.1364
  21037783.321   -24199584.59049 -18844391.83549  21037785.8994   21037791.4804
  24184869.912    -7353660.03349  -5510290.86249  24184873.1004   24184878.8734
  22882313.899    10924313.66549   8518399.35549  22882316.6024   22882323.1894
  20501558.915   -25484519.12449 -19622068.04349  20501560.8164   20501565.7554
  22856298.046   -12102528.24149  -9336027.12549  22856299.1494   22856305.9314
  21333728.464   -11390289.10049  -8853148.39549  21333728.1654   21333733.2424
 96  8 11 17 36 59.9990000  0  7 24 16 25  5  6 17 10
  23303996.774    12769265.98449   9957387.67949  23303993.5514   23303999.4334
  21033996.563   -24219498.10649 -18859908.84949  21033996.8484   21034002.3844
  24191627.679    -7318167.81149  -5482634.66149  24191628.2974   24191634.0424
  22901970.945    11027607.52849   8598888.02949  22901972.3744   22901978.9634
  20493926.665   -25524629.67749 -19653323.01649  20493928.0414   20493932.8684
  22838971.777   -12193573.82949  -9406971.73049  22838974.3024   22838979.7984
  21337675.446   -11369528.41849  -8836971.23249  21337677.7184   21337683.6684
 96  8 11 17 37 29.9990000  0  7 24 16 25  5  6 17 10
  23320330.344    12855115.03949  10024283.01149  23320330.0724   23320336.3764
  21030312.744   -24238844.12949 -18874983.66549  21030315.0884   21030320.7434
  24198448.939    -7282284.19149  -5454673.40749  24198452.5814   24198462.8934
  22921661.736    11131084.84749   8679519.65949  22921663.6424   22921669.9514
  20486342.568   -25564488.15949 -19684381.56249  20486343.3174   20486348.6174
  22821683.156   -12284426.94049  -9477766.34849  22821685.0794   22821691.2034
  21341735.562   -11348209.50549  -8820359.10749  21341735.2264   21341740.4914
 96  8 11 17 37 59.9990000  0  7 24 16 25  5  6 17 10
  23336677.418    12941031.22449  10091230.65149  23336678.8984   23336685.0444
  21026749.172   -24257583.49649 -18889585.75649  21026749.0714   21026754.4354
  24205361.473    -7245986.66349  -5426389.63449  24205364.2604   24205367.9164
  22941395.718    11234768.55649   8760312.09049  22941393.6894   22941400.2014
  20478809.192   -25604072.42349 -19715226.43749  20478810.8124   20478815.3074
  22804436.941   -12375055.25349  -9548385.80949  22804439.6554   22804446.0014
  21345900.665   -11326308.49349  -8803293.37949  21345901.9674   21345907.7624
 96  8 11 17 38 29.9990000  0  7 24 16 25  5  6 17 10
  23353036.415    13027001.95949  10158220.80449  23353038.8494   23353046.0724
  21023294.877   -24275728.37349 -18903724.61449  21023296.0814   21023302.0424
  24212344.346    -7209284.17149  -5397790.31549  24212346.7754   24212353.4884
  22961153.428    11338631.38349   8841244.12049  22961158.0514   22961163.7824
  20471323.100   -25643412.18849 -19745880.79749  20471324.7854   20471329.2804
  22787235.725   -12465453.57149  -9618826.03949  22787237.1214   22787243.6174
  21350177.200   -11303832.46049  -8785779.59649  21350179.9414   21350185.0504
 96  8 11 17 38 59.9990000  0  7 24 16 25  5  6 17 10
  23369408.855    13113034.79549  10225259.33849  23369411.2644   23369416.4654
  21019955.519   -24293278.71349 -18917400.19849  21019956.6374   21019962.5414
  24219408.735    -7172168.24049  -5368868.86049  24219410.8784   24219414.3194
  22980948.520    11442672.78849   8922315.28849  22980956.1804   22980962.5944
  20463883.231   -25682515.99049 -19776351.28849  20463883.7724   20463888.1374
  22770077.042   -12555622.12449  -9689087.22649  22770078.2234   22770084.2364
  21354566.537   -11280767.20949  -8767806.67249  21354568.8364   21354573.9974
 96  8 11 17 39 29.9990000  0  7 24 16 25  5  6 17 10
  23385792.078    13199141.06349  10292355.09349  23385796.0584   23385802.0274
  21016728.089   -24310237.14449 -18930614.54949  21016728.8144   21016735.4414
  24226548.182    -7134636.49649  -5339623.48649  24226552.0704   24226558.5404
  23000791.950    11546890.14249   9003523.54649  23000789.0294   23000795.1234
  20456487.303   -25721373.57949 -19806629.91549  20456488.5404   20456493.8404
  22752959.833   -12645566.82049  -9759173.96549  22752962.1444   22752969.0054
  21359072.614   -11257111.07049  -8749373.32749  21359070.4494   21359076.0094
 96  8 11 17 39 59.9990000  0  7 24 16 25  5  6 17 10
  23402191.670    13285341.92449  10359524.57449  23402200.2254   23402206.6494
  21013612.574   -24326601.56249 -18943366.03249  21013615.6654   21013621.1064
  24233778.677    -7096666.33649  -5310036.36849  24233779.0724   24233784.4804
  23020654.127    11651290.51549   9084874.42649  23020654.8904   23020661.2524
  20449147.028   -25759944.33449 -19836685.03649  20449149.2914   20449153.6494
  22735891.743   -12735272.63949  -9829074.54849  22735891.3184   22735898.2744
  21363686.176   -11232852.07949  -8730470.21649  21363686.4634   21363692.2494
 96  8 11 17 40 29.9990000  0  7 24 16 25  5  6 17 10
  23418617.198    13371607.22649  10426744.23549  23418615.4534   23418622.0194
  21010609.093   -24342390.99549 -18955669.48749  21010610.9604   21010616.5104
  24241080.484    -7058270.48549  -5280117.58249  24241083.5474   24241089.1354
  23040557.875    11755865.75749   9166361.56449  23040556.5634   23040561.0794
  20441859.323   -25798232.32449 -19866519.83149  20441862.9334   20441867.7884
  22718857.033   -12824780.02549  -9898820.53549  22718859.1684   22718865.9294
  21368411.222   -11208010.81649  -8711113.39049  21368413.6944   21368419.0424
 96  8 11 17 40 59.9990000  0  7 24 16 25  5  6 17 10
  23435042.337    13457929.26049  10494008.12849  23435042.0454   23435048.6484
  21007715.797   -24357593.83949 -18967515.84749  21007717.5354   21007723.7494
  24248467.186    -7019444.36249  -5249863.44649  24248471.4034   24248477.8864
  23060487.741    11860622.62749   9247990.24649  23060490.6354   23060495.5204
  20434633.640   -25836216.78049 -19896118.10649  20434635.0394   20434639.7064
  22701861.618   -12914098.38449  -9968419.22549  22701862.5634   22701869.2424
  21373251.910   -11182587.37849  -8691302.92749  21373252.2184   21373257.5404
 96  8 11 17 41 29.9990000  0  7 24 16 25  5  6 17 10
  23451470.111    13544282.16749  10561296.08049  23451473.6124   23451481.2244
  21004934.639   -24372212.80849 -18978907.23949  21004935.9384   21004941.8854
  24255940.762    -6980199.99449  -5219283.50849  24255941.2904   24255944.4414
  23080453.581    11965539.98749   9329743.96949  23080455.1944   23080461.8734
  20427460.780   -25873908.14849 -19925488.00149  20427462.9274   20427466.7814
  22684898.449   -13003235.12649 -10037876.41749  22684900.6824   22684906.3424
  21378196.624   -11156606.34449  -8671057.96649  21378195.9194   21378201.2674
 96  8 11 17 41 59.9990000  0  7 24 16 25  5  6 17 10
  23467909.576    13630652.16949  10628597.33049  23467911.1184   23467917.0974
  21002268.177   -24386222.38749 -18989823.78849  21002269.9984   21002275.3824
  24263483.617    -6940545.04349  -5188383.57649  24263488.3324   24263493.5494
  23100455.384    12070623.77449   9411627.40649  23100452.2774   23100457.4244
  20420344.132   -25911308.82549 -19954631.38149  20420345.6604   20420350.1084
  22667971.956   -13092181.57249 -10107185.30249  22667974.8494   22667980.5104
  21383243.789   -11130063.53849  -8650375.26349  21383246.4374   21383252.1264
 96  8 11 17 42 29.9990000  0  7 24 16 25  5  6 17 10
  23484350.823    13717027.77149  10695902.97149  23484346.4394   23484354.0994
  20999720.525   -24399603.86149 -19000250.90749  20999723.5194   20999729.6614
  24271106.265    -6900492.10749  -5157173.55049  24271108.1544   24271114.0714
  23120477.661    12175872.14549   9493639.07749  23120480.6834   23120486.9454
  20413280.136   -25948433.16249 -19983559.42549  20413281.2914   20413285.4064
  22651084.664   -13180926.76849 -10176337.38249  22651086.7274   22651092.9024
  21388405.100   -11102961.07549  -8629256.45549  21388404.4964   21388410.1414
 96  8 11 17 42 59.9990000  0  7 24 16 25  5  6 17 10
  23500785.150    13803418.35049  10763220.25949  23500786.5014   23500793.2464
  20997296.676   -24412350.69749 -19010183.49949  20997297.6214   20997303.3324
  24278803.812    -6860050.38149  -5125660.54849  24278804.3654   24278811.1954
  23140539.998    12281270.56349   9575767.65849  23140537.0554   23140543.1674
  20406267.184   -25985282.84549 -20012273.46349  20406268.5094   20406273.3754
  22634241.365   -13269443.76549 -10245311.64249  22634243.1294   22634248.4894
  21393668.993   -11075292.53349  -8607696.56149  21393668.8554   21393675.0144
 96  8 11 17 43 29.9990000  0  7 24 16 25  5  6 17 10
  23517224.297    13889829.05349  10830553.26049  23517230.5914   23517237.4474
  20994992.082   -24424465.62249 -19019623.69949  20994992.4114   20994998.3204
  24286567.570    -6819240.31549  -5093860.56049  24286570.0574   24286573.2794
  23160623.499    12386823.80549   9658016.87549  23160624.4224   23160629.7774
  20399304.644   -26021861.35949 -20040776.19049  20399307.8654   20399313.0694
  22617440.055   -13357730.78049 -10314106.69849  22617442.0864   22617448.6614
  21399046.167   -11047047.98749  -8585687.82349  21399045.1524   21399049.5694
 96  8 11 17 43 59.9990000  0  7 24 16 25  5  6 17 10
  23533677.144    13976271.85549  10897911.24349  23533679.6214   23533685.6624
  20992804.350   -24435957.43849 -19028578.35749  20992805.7894   20992811.0074
  24294403.934    -6778066.24349  -5061776.85549  24294404.9234   24294408.1874
  23180743.228    12492539.09849   9740392.36749  23180740.9014   23180746.1194
  20392399.151   -26058152.50349 -20069055.00549  20392401.8464   20392406.4274
  22600683.526   -13445783.71549 -10382719.33849  22600685.9004   22600692.5204
  21404527.431   -11018224.12149  -8563227.67149  21404528.5454   21404534.8784
 96  8 11 17 44 29.9990000  0  7 24 16 25  5  6 17 10
  23550133.774    14062747.33049  10965294.67749  23550135.7504   23550142.0184
  20990731.650   -24446859.24249 -19037073.28449  20990731.3534   20990736.6004
  24302307.113    -6736531.25849  -5029411.94649  24302309.4874   24302317.6744
  23200877.588    12598391.78749   9822874.91649  23200883.2284   23200889.3714
  20385548.838   -26094156.12249 -20097109.75849  20385550.2584   20385555.4374
  22583970.840   -13533614.69749 -10451159.03049  22583972.6014   22583978.8774
  21410121.352   -10988829.37049  -8540322.68249  21410123.8384   21410128.5084
 96  8 11 17 44 59.9990000  0  7 24 16 25  5  6 17 10
  23566594.804    14149278.57049  11032721.59349  23566602.2984   23566608.4364
  20988764.839   -24457178.85649 -19045114.52749  20988767.0414   20988773.3704
  24310283.725    -6694624.06349  -4996757.10149  24310285.4054   24310289.0134
  23221057.352    12704392.25449   9905472.61749  23221055.2714   23221060.6814
  20378753.546   -26129854.32149 -20124926.53649  20378757.4414   20378762.1384
  22567297.935   -13621223.75249 -10519425.77649  22567300.4924   22567307.3704
  21415826.495   -10958849.02049  -8516961.36949  21415827.9364   21415833.7324
 96  8 11 17 45 29.9990000  0  7 24 16 25  5  6 17 10
  23583076.428    14235868.19149  11100193.98249  23583079.5464   23583085.7504
  20986915.655   -24466906.36749 -19052694.41249  20986916.8754   20986921.5754
  24318333.133    -6652318.21749  -4963791.51149  24318335.3454   24318338.9074
  23241257.878    12810562.30449   9988202.46149  23241258.8024   23241263.8854
  20372024.369   -26165224.79449 -20152487.94349  20372026.7364   20372031.5994
  22550671.075   -13708605.01449 -10587515.03149  22550673.1994   22550680.5944
  21421644.205   -10928279.66849  -8493141.11149  21421644.5024   21421650.7874
 96  8 11 17 45 59.9990000  0  7 24 16 25  5  6 17 10
  23599564.327    14322492.41149  11167693.32249  23599564.0784   23599569.1924
  20985174.251   -24476051.98249 -19059820.86849  20985175.7914   20985181.4234
  24326460.038    -6609608.19649  -4930511.04859  24326459.7394   24326467.5664
  23261488.284    12916882.81149  10071049.55349  23261490.4434   23261496.2024
  20365356.271   -26200269.68949 -20179795.65049  20365357.8824   20365362.6774
  22534084.589   -13795766.79349 -10655433.27449  22534086.2814   22534091.6864
  21427567.095   -10897155.27349  -8468888.32649  21427567.9624   21427572.7844
 96  8 11 17 46 29.9990000  0  7 24 16 25  5  6 17 10
  23616060.996    14409153.43249  11235221.34649  23616054.7034   23616061.4654
  20983545.429   -24484605.82849 -19066486.20549  20983548.4564   20983554.0844
  24334663.187    -6566500.95149  -4896920.99249  24334665.3644   24334671.3244
  23281747.101    13023358.64449  10154017.69149  23281750.8664   23281758.2294
  20358747.185   -26234991.29749 -20206851.43549  20358750.4404   20358755.2324
  22517538.625   -13882710.73649 -10723181.80249  22517541.0104   22517547.9284
  21433596.137   -10865472.42949  -8444200.40449  21433596.6094   21433602.6194
 96  8 11 17 46 59.9990000  0  7 24 16 25  5  6 17 10
  23632547.864    14495846.06449  11302774.01149  23632551.8844   23632557.1064
  20982033.802   -24492555.45449 -19072680.71849  20982035.2304   20982040.6184
  24342938.559    -6523010.88849  -4863032.71849  24342940.5224   24342943.5454
  23302043.749    13130004.82849  10237118.56749  23302045.7094   23302052.6114
  20352203.394   -26269391.26249 -20233656.60049  20352204.4864   20352209.2534
  22501038.938   -13969426.23549 -10790752.29649  22501039.8264   22501045.2474
  21439733.245   -10833234.79349  -8419080.17949  21439731.8904   21439737.2344
 96  8 11 17 47 29.9990000  0  7 24 16 25  5  6 17 10
  23649042.487    14582546.78649  11370332.97349  23649049.9004   23649056.3744
  20980634.982   -24499907.59249 -19078409.65949  20980637.0074   20980641.8974
  24351285.064    -6479155.15449  -4828859.47449  24351287.0784   24351291.4664
  23322361.730    13236802.40749  10320337.42949  23322366.5954   23322375.8894
  20345714.090   -26303488.66949 -20260226.00349  20345715.8274   20345720.7734
  22484578.148   -14055924.76149 -10858153.73049  22484580.1814   22484586.9944
  21445964.136   -10800469.18149  -8393548.53649  21445966.4794   21445972.0484
 96  8 11 17 47 59.9990000  0  7 24 16 25  5  6 17 10
  23665557.273    14669284.83449  11437921.02749  23665556.1634   23665562.6914
  20979350.037   -24506664.41049 -19083674.71849  20979350.5464   20979356.1594
  24359696.152    -6434955.94049  -4794418.56449  24359695.5224   24359702.1014
  23342717.897    13343743.94949  10403668.45149  23342717.9894   23342725.8694
  20339281.492   -26337296.60249 -20286569.84349  20339282.8524   20339287.2394
  22468160.899   -14142191.26449 -10925374.35049  22468164.3784   22468170.8854
  21452303.083   -10767163.88049  -8367596.35849  21452304.6134   21452309.7774
 96  8 11 17 48 29.9990000  0  7 24 16 25  5  6 17 10
  23682064.797    14756069.55549  11505545.43849  23682071.7094   23682076.5364
  20978174.371   -24512826.51049 -19088476.36149  20978178.0784   20978183.8734
  24368167.758    -6390426.85649  -4759720.61649  24368171.1664   24368178.3214
  23363093.328    13450826.06649  10487109.00149  23363095.2474   23363102.3274
  20332900.291   -26370826.58049 -20312697.09749  20332902.1384   20332906.9624
  22451791.625   -14228217.53549 -10992407.78749  22451793.9454   22451800.4434
  21458747.046   -10733301.89849  -8341210.39649  21458747.9534   21458753.7054
 96  8 11 17 48 59.9990000  0  7 24 16 25  5  6 17 10
  23698590.171    14842887.54549  11573195.78249  23698591.3844   23698597.0114
  20977114.762   -24518392.63049 -19092813.59849  20977119.0464   20977124.3104
  24376706.225    -6345568.08349  -4724765.79849  24376707.2394   24376713.8354
  23383499.715    13558041.71049  10570653.60149  23383498.9014   23383505.3534
  20326572.319   -26404080.44949 -20338609.19149  20326573.9614   20326579.0114
  22435469.067   -14314001.08649 -11059252.08349  22435470.0234   22435475.6044
  21465294.249   -10698890.75449  -8314396.54549  21465296.5664   21465301.7394
 96  8 11 17 49 29.9990000  0  7 24 16 25  5  6 17 10
  23715120.771    14929746.15549  11640877.76949  23715119.8264   23715127.7184
  20976171.646   -24523369.16449 -19096691.42449  20976172.1704   20976177.6644
  24385308.121    -6300367.25749  -4689544.40449  24385309.5464   24385313.9224
  23403925.183    13665383.22149  10654296.26549  23403925.0584   23403931.5634
  20320298.913   -26437046.98649 -20364297.39249  20320300.8734   20320305.8434
  22419189.354   -14399549.65149 -11125913.27449  22419190.9274   22419197.8054
  21471948.979   -10663931.40149  -8287155.48749  21471948.9704   21471954.0874
 96  8 11 17 49 59.9990000  0  7 24 16 25  5  6 17 10
  23731647.650    15016632.38949  11708581.29149  23731654.1494   23731659.8294
  20975334.601   -24527761.73249 -19100114.20449  20975335.5924   20975341.5274
  24393972.871    -6254825.11049  -4654057.06149  24393974.0324   24393979.3604
  23424361.320    13772849.56849  10738036.21249  23424374.7094   23424382.6164
  20314083.211   -26469720.87749 -20389757.57349  20314083.5294   20314087.9174
  22402951.055   -14484867.84549 -11192394.93949  22402954.0374   22402960.4564
  21478707.723   -10628422.52749  -8259486.24849  21478705.9464   21478711.3514
 96  8 11 17 50 29.9990000  0  7 24 16 25  5  6 17 10
  23748185.921    15103520.66149  11776286.41849  23748187.4274   23748194.1214
  20974612.152   -24531561.47049 -19103075.03849  20974612.9724   20974619.1574
  24402707.641    -6208925.04249  -4618290.82049  24402708.5504   24402715.3184
  23444855.480    13880441.66749  10821874.14249  23444849.3394   23444855.3674
  20307922.464   -26502094.00549 -20414983.39049  20307923.1094   20307927.8344
  22386759.286   -14569971.45649 -11258709.40749  22386760.4184   22386766.6904
  21485562.929   -10592372.39549  -8231395.24049  21485565.6204   21485571.3944
 96  8 11 17 50 59.9990000  0  7 24 16 25  5  6 17 10
  23764726.177    15190421.24649  11844001.09849  23764724.8704   23764730.7654
  20974004.307   -24534766.59749 -19105572.54949  20974003.1354   20974008.5524
  24411514.145    -6162658.79649  -4582239.26449  24411516.3074   24411515.2944
  23465337.329    13988157.60949  10905808.61349  23465347.1204   23465354.0074
  20301820.660   -26534158.91549 -20439969.02149  20301821.3884   20301825.7494
  22370603.458   -14654861.61849 -11324857.57949  22370606.4794   22370611.7634
  21492530.689   -10555781.76549  -8202883.07849  21492528.9254   21492534.2684
 96  8 11 17 51 29.9990000  0  7 24 16 25  5  6 17 10
  23781265.371    15277335.90349  11911726.77049  23781264.3744   23781270.1734
  20973504.924   -24537381.91449 -19107610.46149  20973505.2514   20973511.8754
  24420383.472    -6116029.14749  -4545904.39949  24420386.8054   24420396.2214
  23485868.467    14095988.67849  10989832.75549  23485867.0714   23485873.8544
  20295775.904   -26565919.16449 -20464717.25849  20295777.0524   20295781.9934
  22354492.994   -14739533.17549 -11390835.40749  22354494.1274   22354499.2494
  21499593.586   -10518656.12849  -8173954.01249  21499594.1524   21499598.9664
 96  8 11 17 51 59.9990000  0  6 24 16  5  6 17 10
  23797797.775    15364269.00249  11979466.82349  23797806.7834   23797813.4964
  20973122.008   -24539388.29849 -19109173.88049  20973123.6044   20973129.2044
  23506410.537    14203939.32149  11073950.08849  23506409.4564   23506415.6694
  20289788.170   -26597381.59549 -20489233.43749  20289790.2594   20289794.6314
  22338422.282   -14823976.08249 -11456635.07249  22338424.2884   22338430.1224
  21506759.029   -10480989.23549  -8144603.20249  21506761.1104   21506767.1134
 96  8 11 17 52 29.9990000  0  6 24 16  5  6 17 10
  23814348.434    15451238.36449  12047235.11249  23814356.9904   23814362.5144
  20972855.476   -24540787.79349 -19110264.40049  20972857.3124   20972862.9114
  23526973.835    14312001.41749  11158154.27049  23526972.8674   23526978.9804
  20283856.824   -26628552.25149 -20513522.25049  20283858.6354   20283863.0044
  22322398.433   -14908185.24549 -11522252.54949  22322400.1394   22322406.6174
  21514027.380   -10442784.05749  -8114832.94649  21514031.7314   21514037.5294
 96  8 11 17 52 59.9990000  0  6 24 16  5  6 17 10
  23830914.133    15538241.87349  12115030.00449  23830912.9874   23830919.5324
  20972702.290   -24541593.38849 -19110892.13849  20972703.8344   20972710.1924
  23547550.972    14420172.97549  11242443.75649  23547557.2884   23547563.7454
  20277980.478   -26659426.08749 -20537579.78049  20277983.2504   20277987.9554
  22306417.232   -14992162.21949 -11587689.08749  22306419.2774   22306426.1934
  21521402.264   -10404057.80849  -8084656.64949  21521401.5174   21521406.7874
 96  8 11 17 53 29.9990000  0  6 24 16  5  6 17 10
  23847472.684    15625262.91949  12182838.56849  23847473.4614   23847478.9044
  20972660.939   -24541803.48949 -19111055.85849  20972663.8704   20972669.4904
  23568166.798    14528456.38749  11326820.38849  23568161.9834   23568168.5524
  20272166.226   -26689991.65749 -20561397.10249  20272167.2184   20272171.2234
  22290480.902   -15075913.89949 -11652950.07649  22290482.7314   22290489.0064
  21528871.949   -10364809.73449  -8054073.73649  21528869.7664   21528875.4514
 96  8 11 17 53 59.9990000  0  6 24 16  5  6 17 10
  23864028.310    15712300.39849  12250659.94649  23864034.1754   23864040.9944
  20972733.837   -24541428.51449 -19110763.68149  20972735.1394   20972741.5334
  23588780.747    14636841.27449  11411276.10049  23588787.3844   23588793.0584
  20266408.575   -26720244.02249 -20584970.37349  20266410.0394   20266414.8144
  22274584.082   -15159454.38749 -11718046.54049  22274585.4064   22274590.8684
  21536439.706   -10325031.27349  -8023077.54649  21536439.3784   21536445.1624
 96  8 11 17 54 29.9990000  0  6 24 16  5  6 17 10
  23880602.795    15799332.86549  12318477.40149  23880598.2944   23880603.1564
  20972915.572   -24540479.69149 -19110024.33149  20972916.0004   20972921.3164
  23609428.979    14745316.18549  11495801.95149  23609429.7544   23609435.9084
  20260712.497   -26750175.96649 -20608293.96449  20260714.1944   20260719.0794
  22258726.280   -15242788.03549 -11782981.86249  22258727.7944   22258733.5294
  21544110.713   -10284729.84849  -7991673.85449  21544109.0834   21544113.5434
 96  8 11 17 54 59.9990000  0  6 24 16  5  6 17 10
  23897160.609    15886348.08249  12386281.42949  23897156.1814   23897161.4464
  20973203.433   -24538948.99949 -19108831.58449  20973206.6394   20973212.8134
  23630091.572    14853883.25049  11580399.58749  23630090.1804   23630095.9774
  20255076.842   -26779782.27249 -20631363.80249  20255080.3524   20255084.9744
  22242906.872   -15325914.34349 -11847755.59349  22242908.9264   22242914.3324
  21551878.433   -10243901.52349  -7959859.56149  21551877.9174   21551883.4844
 96  8 11 17 55 29.9990000  0  6 24 16  5  6 17 10
  23913703.104    15973342.93349  12454069.59249  23913709.9134   23913717.1514
  20973610.503   -24536835.34349 -19107184.57649  20973609.5084   20973614.8654
  23650763.000    14962522.42049  11665053.42349  23650763.4194   23650770.0174
  20249504.276   -26809071.51549 -20654186.59549  20249506.9574   20249511.3974
  22227129.970   -15408827.03749 -11912362.85249  22227131.1934   22227137.6824
  21559748.349   -10202527.91249  -7927620.40149  21559751.2414   21559757.4764
 96  8 11 17 55 59.9990000  0  6 24 16  5  6 17 10
  23930253.713    16060298.85249  12521827.40949  23930257.4594   23930262.3324
  20974120.162   -24534153.59349 -19105094.90249  20974119.7374   20974125.2814
  23671446.755    15071212.76149  11749747.13549  23671446.2184   23671453.2324
  20243986.110   -26838075.71749 -20676787.26449  20243987.3474   20243991.9974
  22211391.962   -15491532.87449 -11976808.94449  22211393.0524   22211398.2414
  21567718.664   -10160640.00449  -7894980.48849  21567721.8334   21567727.6554
 96  8 11 17 56 29.9990000  0  6 24 16  5  6 17 10
  23946800.057    16147245.22249  12589577.79449  23946802.7914   23946809.8634
  20974741.032   -24530867.00649 -19102533.91549  20974744.6864   20974750.6634
  23692146.124    15179987.87949  11834506.94149  23692144.4794   23692152.3334
  20238526.048   -26866761.63549 -20699139.92249  20238528.6414   20238533.3904
  22195700.557   -15573985.49849 -12041057.71749  22195702.6294   22195709.0814
  21575796.295   -10118213.64949  -7861920.99849  21575795.8924   21575801.0554
 96  8 11 17 56 59.9990000  0  6 24 16  5  6 17 10
  23963347.962    16234185.90249  12657323.73549  23963348.1474   23963353.1804
  20975484.701   -24526978.42949 -19099503.85649  20975485.4434   20975490.8004
  23712857.892    15288835.60149  11919323.31049  23712858.2584   23712864.7734
  20233127.042   -26895137.35949 -20721250.86749  20233129.1744   20233133.6324
  22180058.846   -15656187.00049 -12105110.80549  22180060.3864   22180066.6324
  21583970.699   -10075246.58249  -7828440.17249  21583972.5864   21583977.9244
 96  8 11 17 57 29.9990000  0  6 24 16  5  6 17 10
  23979893.544    16321122.44249  12725066.44649  23979890.0414   23979896.7514
  20976334.640   -24522504.06049 -19096017.33249  20976336.2774   20976342.2054
  23733589.211    15397755.64949  12004196.00349  23733585.4454   23733591.7144
  20227786.065   -26923199.72649 -20743117.64049  20227789.1674   20227793.3404
  22164463.345   -15738135.35349 -12168966.63249  22164465.9474   22164472.4454
  21592245.087   -10031745.15849  -7794542.97749  21592249.9444   21592254.9984
 96  8 11 17 57 59.9990000  0  6 24 16  5  6 17 10
  23996435.428    16408072.50949  12792819.70549  23996437.4624   23996442.9564
  20977299.386   -24517435.74049 -19092067.98249  20977300.9734   20977306.3284
  23754327.195    15506773.32649  12089144.78349  23754331.8254   23754336.7454
  20222507.900   -26950943.91549 -20764736.48449  20222509.0634   20222513.7864
  22148918.249   -15819827.68849 -12232622.97949  22148920.3434   22148926.0334
  21600630.401    -9987715.60649  -7760234.23949  21600628.6004   21600633.8954
 96  8 11 17 58 29.9990000  0  6 24 16  5  6 17 10
  24012981.390    16495043.39749  12860589.19449  24012987.2894   24012992.4814
  20978375.785   -24511780.04149 -19087660.93749  20978377.1214   20978382.8754
  23775100.487    15615889.81349  12174170.57549  23775094.9124   23775102.0504
  20217289.662   -26978370.92749 -20786108.17049  20217290.2404   20217295.1934
  22133419.459   -15901275.04649 -12296088.41349  22133420.8304   22133428.4374
  21609105.639    -9943153.45949  -7725510.50149  21609108.6584   21609114.4254
 96  8 11 17 58 59.9990000  0  6 24 16  5  6 17 10
  24029530.976    16582037.32349  12928376.62149  24029540.1404   24029547.5064
  20979566.449   -24505540.00349 -19082798.55449  20979564.4114   20979570.1324
  23795869.250    15725107.20849  12259275.01249  23795878.3764   23795885.5704
  20212128.101   -27005492.69849 -20807242.01049  20212129.3804   20212133.6524
  22117966.771   -15982481.28449 -12359365.95049  22117968.9164   22117974.0384
  21617687.670    -9898064.23849  -7690376.04649  21617689.3154   21617694.5484
 96  8 11 17 59 29.9990000  0  6 24 16  5  6 17 10
  24046093.957    16669049.68649  12996178.43149  24046099.4454   24046106.3484
  20980860.863   -24498723.86649 -19077487.26649  20980861.3194   20980867.4974
  23816675.495    15834426.50849  12344458.84449  23816682.2114   23816687.9534
  20207022.651   -27032319.23749 -20828145.80349  20207024.2074   20207028.9264
  22102559.284   -16063449.22649 -12422457.83949  22102560.7904   22102567.1934
  21626366.287    -9852473.01149  -7654850.42449  21626364.3024   21626369.4014
 96  8 11 17 59 59.9990000  0  6 24 16  5  6 17 10
  24062660.754    16756089.48749  13064001.59749  24062662.5824   24062669.1684
  20982274.226   -24491297.24249 -19071700.28249  20982274.9864   20982280.4674
  23837499.037    15943848.61649  12429722.79449  23837504.2364   23837510.5074
  20201977.806   -27058828.00349 -20848801.97749  20201979.5184   20201984.3274
  22087198.558   -16144162.81049 -12485351.50449  22087200.0504   22087207.3294
  21635137.678    -9806359.65649  -7618917.94649  21635139.3714   21635144.7294
 96  8 11 18  0 29.9990000  0  6 24 16  5  6 17 10
  24079216.651    16843117.66949  13131815.72149  24079223.7044   24079229.4054
  20983797.931   -24483289.35149 -19065460.35649  20983798.8344   20983804.3064
  23858336.550    16053331.23449  12515033.87549  23858337.8584   23858342.7474
  20196991.828   -27085026.62049 -20869216.48249  20196994.2444   20196998.8744
  22071885.012   -16224640.53049 -12548061.37749  22071887.1444   22071893.0624
  21644009.253    -9759758.40049  -7582605.28849  21644007.5154   21644013.0504
 96  8 11 18  0 59.9990000  0  6 24 16  5  6 17 10
  24095774.420    16930113.62749  13199604.72749  24095777.5494   24095784.2234
  20985426.795   -24474714.74549 -19058778.83949  20985430.9294   20985436.0984
  23879185.119    16162852.91649  12600375.36749  23879180.3124   23879183.9944
  20192066.021   -27110904.80949 -20889381.29949  20192069.7594   20192074.6194
  22056613.533   -16304888.36249 -12610592.12949  22056615.6424   22056622.6194
  21652962.152    -9712694.03349  -7545931.75949  21652963.6204   21652969.4244
 96  8 11 18  1 29.9990000  0  7 24 16  5  6 17 28 10
  24112331.913    17017085.77949  13267375.18349  24112328.8174   24112334.9284
  20987171.890   -24465556.70149 -19051642.69049  20987172.9524   20987179.0274
  23900030.081    16272426.25049  12685757.12749  23900030.1374   23900035.3424
  20187209.910   -27136435.19349 -20909275.10949  20187211.6154   20187216.4174
  22041388.832   -16384898.76349 -12672937.86249  22041390.9294   22041397.3744
  24548927.891    -4613753.35919  -3582796.65819  24548931.935    24548936.850
  21662012.209    -9665157.44049  -7508890.26549  21662010.0314   21662014.8894
 96  8 11 18  1 59.9990000  0  7 24 16  5  6 17 28 10
  24128863.467    17104035.73949  13335128.36849  24128874.4424   24128881.1464
  20989028.535   -24455810.25549 -19044048.04349  20989028.6824   20989033.8674
  23920892.172    16382057.45849  12771183.98049  23920892.4384   23920898.7994
  20182420.826   -27161601.59449 -20928885.28249  20182422.4634   20182427.1924
  22026208.944   -16464665.17449 -12735093.47649  22026211.6814   22026217.5564
  24529974.271    -4713376.716 9  -3660425.214 9  24529975.173    24529979.902
  21671144.250    -9617138.00049  -7471472.52349  21671146.3464   21671152.2704
 96  8 11 18  2 29.9990000  0  7 24 16  5  6 17 28 10
  24145424.099    17190961.21149  13402862.43249  24145416.3314   24145422.2984
  20990989.372   -24445492.52549 -19036008.24949  20990991.2184   20990996.8404
  23941755.642    16491741.22949  12856651.81149  23941764.5834   23941769.1284
  20177697.706   -27186424.71249 -20948227.97049  20177698.9764   20177703.7064
  22011074.740   -16544202.34449 -12797070.46449  22011076.4224   22011082.2324
  24511010.718    -4813042.771 9  -3738087.053 9  24511010.292    24511014.311
  21680374.834    -9568643.59449  -7433684.68349  21680375.7284   21680380.6174
 96  8 11 18  2 59.9990000  0  7 24 16  5  6 17 28 10
  24161951.120    17277894.91049  13470602.97049  24161958.7734   24161966.0464
  20993066.229   -24434582.33349 -19027506.79349  20993068.0014   20993073.0054
  23962657.178    16601491.94549  12942171.79549  23962649.5034   23962655.4884
  20173039.913   -27210894.94849 -20967295.67449  20173042.1204   20173046.9744
  21995985.603   -16623489.94649 -12858852.98649  21995988.0714   21995994.2894
  24492035.274    -4912731.155 9  -3815766.249 9  24492037.864    24492046.339
  21689699.351    -9519630.06349  -7395492.33249  21689702.2594   21689708.0214
 96  8 11 18  3 29.9990000  0  7 24 16  5  6 17 28 10
  24178508.109    17364846.02349  13538357.00949  24178505.4594   24178512.0884
  20995256.147   -24423069.18849 -19018535.49749  20995257.9404   20995263.8814
  23983539.056    16711302.12649  13027738.10249  23983546.1034   23983551.6294
  20168450.716   -27235020.70549 -20986094.96649  20168451.3704   20168455.7784
  21980947.111   -16702524.56949 -12920438.36849  21980948.4654   21980954.3574
  24473063.907    -5012441.560 9  -3893462.560 9  24473064.603    24473071.986
  21699133.481    -9470080.66149  -7356882.41749  21699131.2114   21699136.6424
 96  8 11 18  3 59.9990000  0  7 24 16  5  6 17 28 10
  24195054.589    17451812.12149  13606122.75249  24195054.8094   24195061.0014
  20997561.049   -24410964.40249 -19009103.18549  20997562.1594   20997567.4704
  24004448.242    16821150.08049  13113333.87749  24004448.2734   24004454.9024
  20163925.421   -27258798.57349 -21004623.16849  20163926.6894   20163931.4034
  21965953.433   -16781309.98549 -12981829.57649  21965955.5214   21965961.8314
  24454086.491    -5112169.205 9  -3971172.359 9  24454087.100    24454093.849
  21708661.885    -9419980.40649  -7317843.25549  21708665.0384   21708669.7234
 96  8 11 18  4 29.9990000  0  7 24 16  5  6 17 28 10
  24211598.734    17538793.65549  13673900.51049  24211606.4224   24211614.2764
  20999972.581   -24398283.84149 -18999222.21849  20999974.5624   20999980.4024
  24025348.756    16931015.56249  13198943.28149  24025355.1434   24025360.9784
  20159461.858   -27282244.77349 -21022892.92749  20159465.3464   20159469.3944
  21951005.617   -16859864.60049 -13043040.91749  21951007.4234   21951013.6684
  24435104.375    -5211923.762 9  -4048903.138 9  24435103.415    24435110.051
  21718298.808    -9369353.62649  -7278393.82249  21718299.0074   21718304.4584
 96  8 11 18  4 59.9990000  0  7 24 16  5  6 17 28 10
  24228166.839    17625780.83249  13741682.67449  24228160.0184   24228166.6334
  21002498.534   -24385025.26649 -18988890.85649  21002498.3484   21002503.2874
  24046269.656    17040911.08549  13284576.12449  24046266.5444   24046273.8684
  20155067.407   -27305345.89149 -21040893.79749  20155068.5924   20155073.8964
  21936103.637   -16938176.72749 -13104063.32949  21936106.0974   21936111.5614
  24416114.478    -5311700.038 9  -4126650.794 9  24416116.727    24416124.094
  21728027.319    -9318221.20149  -7238550.36849  21728028.9714   21728034.7664
 96  8 11 18  5 29.9990000  0  7 24 16  5  6 17 28 10
  24244703.883    17712765.63249  13809462.98049  24244710.7564   24244719.3804
  21005129.808   -24371185.58249 -18978106.67449  21005131.1504   21005136.5134
  24067178.492    17150858.34849  13370249.30449  24067188.3894   24067194.8854
  20150740.237   -27328091.32249 -21058617.50249  20150740.8154   20150745.5244
  21921247.986   -17016245.22049 -13164895.89349  21921249.5774   21921255.2824
  24397128.417    -5411491.067 9  -4204409.983 9  24397128.051    24397133.045
  21737852.124    -9266597.63549  -7198324.22249  21737852.8534   21737858.5414
 96  8 11 18  5 59.9990000  0  7 24 16  5  6 17 28 10
  24261261.843    17799725.54549  13877223.89549  24261260.8764   24261266.8584
  21007868.950   -24356794.25749 -18966892.65249  21007870.3614   21007875.5314
  24088128.357    17260857.89449  13455963.19549  24088123.5944   24088127.1034
  20146473.647   -27350504.99149 -21076082.69949  20146475.3794   20146480.3654
  21906435.423   -17094076.45549 -13225543.58949  21906437.5024   21906443.9974
  24378131.438    -5511308.143 9  -4282189.479 9  24378131.680    24378138.127
  21747760.048    -9214516.58849  -7157741.58849  21747763.0174   21747768.8504
 96  8 11 18  6 29.9990000  0  7 24 16  5  6 17 28 10
  24277796.241    17886667.30149  13944970.67049  24277804.6184   24277811.8574
  21010715.313   -24341829.97549 -18955232.16849  21010717.4384   21010722.7714
  24109069.524    17370944.69449  13541745.04749  24109073.1744   24109076.4714
  20142272.910   -27372583.01949 -21093286.35449  20142274.4104   20142279.2804
  21891678.449   -17171635.48649 -13285979.17849  21891680.2284   21891685.4454
  24359130.851    -5611138.728 9  -4359979.497 9  24359135.551    24359141.903
  21757761.806    -9161982.22649  -7116805.72349  21757760.2314   21757765.1104
 96  8 11 18  6 59.9990000  0  7 24 16  5  6 17 28 10
  24294338.366    17973566.34849  14012684.15949  24294341.6874   24294348.8044
  21013671.805   -24326298.81249 -18943129.94749  21013673.2954   21013678.4654
  24130042.470    17481117.45249  13627593.86149  24130037.4824   24130041.0054
  20138134.694   -27394330.85749 -21110232.71049  20138135.3994   20138140.5614
  21876969.075   -17248924.06649 -13346204.02249  21876971.5654   21876977.4034
  24340132.515    -5710992.858 9  -4437787.884 9  24340134.417    24340139.231
  21767846.506    -9108977.15549  -7075503.06649  21767846.9354   21767852.1294
 96  8 11 18  7 29.9990000  0  7 24 16  5  6 17 28 10
  24310871.027    18060452.29949  14080387.45049  24310875.8504   24310881.8164
  21016738.902   -24310187.11549 -18930575.37549  21016738.7174   21016744.5554
  24151008.244    17591378.74049  13713511.71749  24151019.1184   24151023.0044
  20134058.566   -27415744.13949 -21126918.38249  20134061.0134   20134065.5074
  21862315.290   -17325931.79549 -13406210.01149  21862317.5354   21862324.2784
  24321133.152    -5810858.859 9  -4515605.497 9  24321130.838    24321135.267
  21778028.811    -9055468.64349  -7033808.12249  21778029.2924   21778035.4254
 96  8 11 18  7 59.9990000  0  7 24 16  5  6 17 28 10
  24327402.818    18147328.52149  14148083.15149  24327406.5544   24327413.8644
  21019915.677   -24293492.04549 -18917566.22049  21019916.0834   21019920.8704
  24172014.956    17701701.00049  13799477.07249  24172012.5944   24172017.4804
  20130045.023   -27436832.38749 -21143350.77949  20130047.7094   20130052.3214
  21847713.692   -17402674.32649 -13466009.36049  21847714.2414   21847719.5064
  24302124.126    -5910745.970 9  -4593439.557 9  24302124.020    24302127.120
  21788305.319    -9001473.73449  -6991734.18049  21788304.2454   21788309.9974
 96  8 11 18  8 29.9990000  0  7 24 16  5  6 17 28 10
  24343942.441    18234196.20549  14215772.19649  24343937.7624   24343943.3194
  21023207.446   -24276190.66349 -18904084.62649  21023208.2044   21023213.2694
  24193019.886    17812068.76649  13885477.86549  24193016.5234   24193020.2744
  20126100.275   -27457576.93549 -21159515.36349  20126100.0144   20126105.1344
  21833153.981   -17479166.54549 -13525613.66949  21833158.0154   21833164.2804
  24283110.993    -6010652.057 9  -4671288.434 9  24283112.030    24283113.549
  21798673.350    -8946979.85749  -6949271.41749  21798673.9214   21798679.8194
 96  8 11 18  8 59.9990000  0  8 24 16  5  6 17 28 23 10
  24360459.918    18321065.97449  14283462.89849  24360467.4084   24360474.8214
  21026615.077   -24258287.46149 -18890134.07349  21026615.5374   21026620.4644
  24214011.755    17922460.15149  13971497.08049  24214021.9544   24214026.7024
  20122218.081   -27477969.33249 -21175405.52649  20122219.5174   20122224.5354
  21818645.867   -17555424.34249 -13585035.27649  21818646.8114   21818652.8094
  24264096.261    -6110573.000 9  -4749148.860 9  24264097.251    24264101.034
  24561657.886    -2486189.62959  -1373822.99159  24561659.9154   24561665.8084
  21809136.191    -8891991.73649  -6906423.53349  21809137.0024   21809143.0414
 96  8 11 18  9 29.9990000  0  8 24 16  5  6 17 28 23 10
  24377004.348    18407945.19349  14351160.92049  24377001.3794   24377006.8294
  21030136.809   -24239779.26049 -18875712.09849  21030137.2534   21030142.7794
  24235030.753    18032859.73649  14057522.67049  24235029.9134   24235035.5764
  20118406.448   -27497994.82149 -21191009.80649  20118408.7684   20118413.6994
  21804179.379   -17631440.97249 -13644269.00249  21804181.7694   21804187.8964
  24245079.009    -6210495.950 9  -4827010.837 9  24245080.883    24245088.430
  24540333.708    -2598219.21449  -1461118.72249  24540341.4714   24540347.1644
  21819694.887    -8836523.76349  -6863201.75349  21819692.9864   21819698.4634
 96  8 11 18  9 59.9990000  0  8 24 16  5  6 17 28 23 10
  24393525.177    18494795.13649  14418836.18749  24393528.1464   24393534.5964
  21033767.117   -24220697.31649 -18860843.05149  21033768.3374   21033773.8644
  24256035.998    18143242.61349  14143535.24949  24256034.8604   24256042.3174
  20114666.227   -27517660.41249 -21206333.63249  20114666.8584   20114671.3514
  21789755.542   -17707233.35649 -13703327.96049  21789758.2294   21789764.3624
  24226062.785    -6310442.026 9  -4904890.874 9  24226063.051    24226068.568
  24519021.599    -2710240.45349  -1548407.93149  24519023.0364   24519029.8854
  21830331.228    -8780609.48049  -6819632.17949  21830333.8704   21830339.1214
 96  8 11 18 10 29.9990000  0  8 24 16  5  6 17 28 23 10
  24410043.457    18581610.53349  14486484.48449  24410048.5644   24410055.8284
  21037507.847   -24201036.43549 -18845522.88149  21037510.0794   21037514.9384
  24277055.675    18253631.64649  14229552.63249  24277041.5184   24277049.9214
  20110992.653   -27536953.22549 -21221366.99249  20110995.5364   20111000.0844
  21775382.081   -17782770.43549 -13762187.98949  21775384.2494   21775390.7854
  24207038.830    -6410393.882 9  -4982775.423 9  24207040.487    24207048.838
  24497714.435    -2822218.17949  -1635663.23449  24497715.2724   24497721.5984
  21841062.745    -8724230.06949  -6775700.18449  21841062.7284   21841067.6944
 96  8 11 18 10 59.9990000  0  8 24 16  5  6 17 28 23 10
  24426571.004    18668388.65849  14554103.74349  24426561.8964   24426568.7354
  21041355.257   -24180819.28349 -18829769.26549  21041356.9834   21041362.3494
  24298035.694    18364031.34849  14315578.33049  24298049.2814   24298057.0064
  20107390.592   -27555884.96549 -21236118.99249  20107392.8604   20107397.8094
  21761057.581   -17858047.57149 -13820845.47349  21761059.7994   21761065.5034
  24188016.275    -6510354.796 9  -5060666.970 9  24188019.205    24188028.476
  24476412.196    -2934151.70149  -1722884.09349  24476415.3694   24476422.3424
  21851877.902    -8667391.96249  -6731410.75449  21851877.5944   21851883.5234
 96  8 11 18 11 29.9990000  0  8 24 16  5  6 17 28 23 10
  24443060.716    18755137.79749  14621700.44849  24443069.5194   24443078.4894
  21045311.322   -24160029.75049 -18813569.62849  21045313.3504   21045317.9534
  24319062.784    18474457.60749  14401624.71849  24319063.7544   24319071.3734
  20103855.775   -27574465.20149 -21250597.09649  20103857.0504   20103861.8264
  21746782.470   -17933060.45149 -13879297.03749  21746784.3764   21746791.0924
  24168991.416    -6610319.937 9  -5138561.811 9  24168996.328    24169004.074
  24455119.202    -3046046.26149  -1810074.63149  24455122.7654   24455129.9984
  21862781.680    -8610085.29349  -6686756.22249  21862782.8984   21862788.4314
 96  8 11 18 11 59.9990000  0  9 24 16 22  5  6 17 28 23 10
  24459584.067    18841860.60849  14689276.57349  24459573.5464   24459580.4194
  21049379.886   -24138658.36949 -18796916.61249  21049380.0474   21049385.2184
  24361996.474    -4537099.05959  -3514639.02459  24361997.3844   24362010.2934
  24340081.080    18584917.82049  14487697.53949  24340084.3854   24340089.6174
  20100385.299   -27592705.99249 -21264810.69149  20100386.2484   20100390.7584
  21732558.996   -18007812.00049 -13937544.95449  21732559.8984   21732566.0224
  24149973.705    -6710297.168 9  -5216466.104 9  24149972.388    24149978.644
  24433839.430    -3157901.02449  -1897234.13649  24433836.8524   24433844.9864
  21873778.269    -8552310.05249  -6641736.56449  21873777.2534   21873782.7554
 96  8 11 18 12 29.9990000  0  9 24 16 22  5  6 17 28 23 10
  24476064.264    18928553.75149  14756829.67349  24476070.4474   24476078.3204
  21053556.718   -24116710.28849 -18779814.21649  21053556.9034   21053562.3434
  24344587.377    -4628583.53649  -3585925.65549  24344589.8664   24344598.6444
  24361102.642    18695389.99349  14573779.66349  24361104.5364   24361111.4934
  20096974.061   -27610629.32649 -21278776.92049  20096975.8824   20096980.0884
  21718378.958   -18082328.01049 -13995609.36449  21718380.9554   21718386.0604
  24130940.526    -6810297.448 9  -5294388.389 9  24130942.518    24130947.807
  24412553.268    -3269715.83849  -1984362.53549  24412557.8704   24412567.2054
  21884856.888    -8494079.97449  -6596362.49649  21884857.6824   21884863.8344
 96  8 11 18 12 59.9990000  0  9 24 16 22  5  6 17 28 23 10
  24492570.977    19015257.55449  14824391.01749  24492568.6184   24492576.5504
  21057841.203   -24094178.92249 -18762257.30449  21057844.3564   21057849.4134
  24327235.160    -4719800.76149  -3657003.98849  24327232.4964   24327234.4914
  24382133.295    18805889.01049  14659882.71249  24382133.1944   24382138.1794
  20093630.264   -27628208.79249 -21292475.20649  20093630.2484   20093634.8014
  21704245.726   -18156594.72249 -14053479.50149  21704247.2794   21704252.8854
  24111914.475    -6910298.502 9  -5372311.245 9  24111912.846    24111917.128
  24391294.149    -3381478.73549  -2071450.48249  24391290.5184   24391298.8034
  21896025.510    -8435370.72349  -6550615.03649  21896029.4214   21896035.0854
 96  8 11 18 13 29.9990000  0  9 24 16 22  5  6 17 28 23 10
  24509064.830    19101962.66249  14891953.39449  24509068.4794   24509076.0674
  21062244.002   -24071066.79349 -18744247.86249  21062242.4574   21062247.4584
  24309925.375    -4810738.62249  -3727864.60649  24309930.0164   24309927.9764
  24403153.354    18916401.58149  14745996.36249  24403163.1354   24403169.2934
  20090348.910   -27645443.62449 -21305904.93549  20090350.6464   20090355.3414
  21690160.705   -18230611.40349 -14111154.81649  21690163.0304   21690169.1464
  24092881.519    -7010304.793 9  -5450238.150 9  24092882.571    24092886.148
  24370032.422    -3493195.74149  -2158502.61949  24370032.1834   24370039.4744
  21907295.392    -8376194.58449  -6504503.76549  21907291.3514   21907296.6934
 96  8 11 18 13 59.9990000  0  9 24 16 22  5  6 17 28 23 10
  24525553.292    19188666.68849  14959514.94249  24525567.6754   24525573.8074
  21066746.506   -24047386.71549 -18725795.86549  21066748.3104   21066753.2374
  24292682.642    -4901381.14649  -3798495.09649  24292679.9564   24292683.0264
  24424187.565    19026918.12449  14832113.11249  24424193.2224   24424200.7154
  20087137.587   -27662310.84349 -21319048.22249  20087140.9214   20087145.5874
  21676125.126   -18304370.72949 -14168629.59249  21676127.2014   21676132.1854
  24073849.092    -7110309.504 9  -5528163.834 9  24073851.074    24073856.865
  24348784.310    -3604852.55649  -2245507.85149  24348785.2424   24348789.2114
  21918635.403    -8316554.77349  -6458031.18949  21918639.8854   21918646.0244
 96  8 11 18 14 29.9990000  0  8 16 22  5  6 17 28 23 10
  21071353.018   -24023182.39549 -18706935.35449  21071354.2844   21071359.4514
  24275472.874    -4991757.47449  -3868918.20949  24275479.6124   24275490.1064
  24445217.300    19137417.38949  14918216.38849  24445220.3544   24445229.0084
  20083996.676   -27678829.32249 -21331919.76049  20083997.6344   20084002.2314
  21662136.232   -18377884.27449 -14225912.84149  21662137.3854   21662143.7804
  24054818.649    -7210326.642 9  -5606099.204 9  24054819.334    24054824.060
  24327544.123    -3716467.80149  -2332480.68649  24327545.3404   24327551.5784
  21930075.509    -8256473.13349  -6411214.34949  21930073.4024   21930078.3554
 96  8 11 18 14 59.9990000  0  8 16 22  5  6 17 28 23 10
  21076055.436   -23998466.93649 -18687676.57049  21076057.5844   21076062.7564
  24258331.448    -5081866.99949  -3939133.43949  24258332.4934   24258338.9724
  24466241.100    19247903.44949  15004309.37649  24466246.0514   24466253.3044
  20080917.724   -27695002.01249 -21344521.84049  20080919.7954   20080924.4294
  21648196.319   -18451134.10449 -14282990.60349  21648198.4074   21648203.8644
  24035783.293    -7310359.973 9  -5684047.223 9  24035784.518    24035787.995
  24306306.299    -3828063.88049  -2419438.59549  24306309.8484   24306316.1574
  21941588.150    -8195956.96549  -6364058.89849  21941589.1144   21941594.4314
 96  8 11 18 15 29.9990000  0  8 16 22  5  6 17 28 23 10
  21080864.246   -23973212.60349 -18667997.87249  21080863.2214   21080868.3244
  24241242.684    -5171689.51649  -4009124.99249  24241242.1124   24241244.3454
  24487269.516    19358378.87549  15090394.08649  24487268.6204   24487274.6834
  20077908.470   -27710809.96649 -21356839.72349  20077911.7644   20077915.5934
  21634308.939   -18524111.06649 -14339855.74049  21634311.4274   21634317.7714
  24016747.210    -7410399.853 9  -5762000.346 9  24016747.931    24016752.460
  24285081.758    -3939624.13849  -2506368.59149  24285079.3844   24285088.6454
  21953186.582    -8135004.26649  -6316563.30049  21953188.3854   21953193.6374
 96  8 11 18 15 59.9990000  0  7 16 22  6 17 28 23 10
  21085768.545   -23947410.64649 -18647892.45049  21085772.8614   21085778.5994
  24224208.734    -5261218.45349  -4078887.71549  24224206.6994   24224209.4464
  20074974.339   -27726234.38049 -21368858.74249  20074976.6484   20074980.6434
  21620476.114   -18596810.50349 -14396504.62349  21620477.6924   21620482.7094
  23997708.564    -7510432.562 9  -5839947.861 9  23997710.625    23997717.304
  24263858.071    -4051128.97149  -2593255.39649  24263860.7294   24263869.3264
  21964872.840    -8073599.30849  -6268715.30349  21964872.8584   21964878.2094
 96  8 11 18 16 29.9990000  0  7 16 22  6 17 28 23 10
  21090787.993   -23921065.11349 -18627363.47549  21090787.1294   21090791.9034
  24207218.729    -5350458.62849  -4148425.50849  24207220.8254   24207227.5174
  20072114.724   -27741274.20049 -21380578.07849  20072114.8364   20072118.7644
  21606691.074   -18669242.38949 -14452945.02649  21606693.6064   21606699.7014
  23978672.337    -7610465.655 9  -5917895.662 9  23978674.863    23978681.352
  24242650.916    -4162584.93049  -2680104.12449  24242652.1794   24242659.9564
  21976640.774    -8011745.43649  -6220517.48449  21976643.3034   21976648.0534
 96  8 11 18 16 59.9990000  0  7 16 22  6 17 28 23 10
  21095906.460   -23894151.45849 -18606391.80849  21095908.1734   21095913.2194
  24190292.092    -5439403.31349  -4217733.07949  24190294.8294   24190300.9384
  20069326.677   -27755917.82149 -21391988.68149  20069328.1944   20069332.3624
  21592955.547   -18741430.15549 -14509195.21449  21592957.1684   21592962.3594
  23959634.868    -7710502.416 9  -5995846.308 9  23959638.487    23959645.236
  24221452.671    -4273980.67849  -2766905.93749  24221453.7924   24221460.8304
  21988500.043    -7949447.51049  -6171973.65949  21988498.4034   21988503.4774
 96  8 11 18 17 29.9990000  0  7 16 22  6 17 28 23 10
  21101140.347   -23866634.89249 -18584950.32449  21101144.0854   21101149.8774
  24173432.814    -5528032.85949  -4286795.04449  24173432.4504   24173436.3104
  20066620.158   -27770138.13849 -21403069.44649  20066622.0194   20066626.3974
  21579266.650   -18813364.90249 -14565248.24849  21579268.2584   21579273.5634
  23940606.506    -7810518.786 9  -6073781.106 9  23940607.392    23940611.881
  24200270.707    -4385271.16249  -2853625.72649  24200273.8244   24200281.9684
  22000440.351    -7886681.39249  -6123065.00249  22000441.6284   22000447.4254
 96  8 11 18 17 59.9990000  0  7 16 22  6 17 28 23 10
  21106490.854   -23838547.82549 -18563064.31549  21106489.3184   21106494.3574
  24156625.308    -5616375.84249  -4355633.67349  24156622.6544   24156625.0344
  20063987.448   -27783968.84149 -21413846.61149  20063989.9864   20063994.7044
  21565625.536   -18885054.46549 -14621110.22649  21565626.6254   21565631.8624
  23921571.878    -7910532.760 9  -6151714.050 9  23921573.895    23921579.832
  24179115.007    -4496473.35649  -2940276.76049  24179114.2364   24179121.6594
  22012472.344    -7823464.34649  -6073804.98849  22012472.2284   22012477.7324
 96  8 11 18 18 29.9990000  0  7 16 22  6 17 28 23 10
  21111938.240   -23809889.84349 -18540733.41849  21111942.8994   21111947.7384
  24139866.065    -5704425.68749  -4424243.89149  24139864.0854   24139870.2984
  20061425.247   -27797433.93749 -21424338.89949  20061427.1704   20061432.4034
  21552030.304   -18956487.38649 -14676772.19249  21552032.3674   21552038.1924
  23902536.174    -8010549.623 9  -6229649.205 9  23902540.610    23902546.235
  24157965.793    -4607605.66049  -3026873.29949  24157966.8314   24157974.8614
  22024582.814    -7759814.65349  -6024207.85449  22024584.7634   22024590.3134
 96  8 11 18 18 59.9990000  0  7 16 22  6 17 28 23 10
  21117504.326   -23780659.08949 -18517956.22049  21117505.1384   21117510.1954
  24123157.794    -5792172.97849  -4492618.41749  24123164.4224   24123171.5774
  20058929.962   -27810545.22749 -21434555.48349  20058932.5434   20058937.2784
  21538490.433   -19027642.65349 -14732217.82949  21538492.9844   21538498.6964
  23883504.859    -8110560.930 9  -6307580.022 9  23883509.190    23883514.703
  24136831.488    -4718680.57049  -3113425.11449  24136831.2804   24136838.9084
  22036780.149    -7695732.92849  -5974274.04949  22036778.4544   22036783.9694
 96  8 11 18 19 29.9990000  0  7 16 22  6 17 28 23 10
  21123168.907   -23750890.25049 -18494759.72649  21123170.1194   21123175.1364
  24106523.776    -5879616.39449  -4560756.11549  24106526.0994   24106532.0714
  20056499.226   -27823320.44549 -21444510.19649  20056501.3294   20056506.3024
  21525004.945   -19098510.33749 -14787439.37849  21525006.8704   21525012.7564
  23864479.686    -8210569.656 9  -6385508.853 9  23864479.138    23864483.613
  24115699.854    -4829711.92849  -3199942.99949  24115701.2844   24115709.2424
  22049051.801    -7631233.00349  -5924014.38349  22049052.1624   22049057.4264
 96  8 11 18 19 59.9990000  0  7 16 22  6 17 28 23 10
  21128934.620   -23720587.80049 -18471147.42749  21128936.0014   21128940.8514
  24089950.192    -5966737.93149  -4628642.96049  24089951.0284   24089951.8564
  20054135.225   -27835754.39149 -21454198.98349  20054135.4714   20054140.5164
  21511574.914   -19169083.15449 -14842431.15449  21511577.0904   21511583.0284
  23845449.769    -8310564.579 9  -6463426.911 9  23845450.588    23845453.837
  24094580.100    -4940696.95049  -3286424.78849  24094581.3464   24094588.6984
  22061402.993    -7566317.56549  -5873430.95349  22061405.0204   22061410.6584
 96  8 11 18 20 29.9990000  0  7 16 22  6 17 28 23 10
  21134803.486   -23689757.28549 -18447123.65349  21134802.9874   21134808.3604
  24073429.256    -6053539.11949  -4696280.19849  24073430.0404   24073436.8774
  20051832.745   -27847847.80849 -21463622.42249  20051833.9724   20051838.8144
  21498197.539   -19239385.46849 -14897212.14149  21498199.5824   21498204.7794
  23826418.620    -8410554.491 9  -6541341.095 9  23826423.300    23826428.178
  24073460.649    -5051644.33849  -3372877.27649  24073469.0404   24073475.9114
  22073835.694    -7501001.80649  -5822535.55449  22073835.7254   22073840.1064
 96  8 11 18 20 59.9990000  0  7 16 22  6 17 28 23 10
  21140766.306   -23658403.55149 -18422692.17249  21140769.8524   21140774.7254
  24056963.380    -6140031.82349  -4763677.14149  24056969.7934   24056979.1334
  20049597.840   -27859592.08649 -21472773.80049  20049599.6574   20049604.1004
  21484865.441   -19309443.21949 -14951802.57349  21484867.7934   21484873.4524
  23807399.085    -8510539.034 9  -6619251.082 9  23807397.483    23807402.326
  24052366.539    -5162535.78549  -3459286.16449  24052367.3144   24052373.8904
  22086342.019    -7435288.16349  -5771330.14549  22086340.3314   22086345.1784
 96  8 11 18 21 29.9990000  0  7 16 22  6 17 28 23 10
  21146837.868   -23626510.84049 -18397840.71149  21146838.6744   21146843.3894
  24040574.484    -6226198.01649  -4830819.59249  24040575.5044   24040579.0144
  20047432.627   -27870966.87149 -21481637.26249  20047435.0794   20047439.2044
  21471581.322   -19379258.96249 -15006204.43149  21471582.5684   21471587.7364
  23788374.186    -8610507.524 9  -6697148.554 9  23788373.685    23788379.562
  24031285.599    -5273332.92049  -3545621.51349  24031282.8014   24031289.4594
  22098923.047    -7369161.44049  -5719802.84049  22098922.5644   22098929.3754
 96  8 11 18 21 59.9990000  0  7 16 22  6 17 28 23 10
  21153011.200   -23594061.06749 -18372555.16349  21153013.2664   21153018.6454
  24024237.867    -6312036.26549  -4897706.45249  24024238.7694   24024245.8374
  20045342.718   -27881957.70049 -21490201.54749  20045343.3734   20045348.0644
  21458341.504   -19448828.10549 -15060414.11849  21458343.5924   21458349.1854
  23769350.368    -8710462.509 9  -6775035.525 9  23769352.527    23769356.936
  24010213.384    -5384038.70549  -3631885.67749  24010216.4584   24010223.1464
  22111586.489    -7302623.38449  -5667955.01949  22111584.9884   22111590.8324
 96  8 11 18 22 29.9990000  0  7 16 22  6 17 28 23 10
  21159292.762   -23561058.95049 -18346839.23649  21159293.8594   21159299.1354
  24007961.325    -6397549.58749  -4964340.19149  24007965.8664   24007974.1394
  20043322.722   -27892565.93549 -21498467.69849  20043325.0944   20043329.0904
  21445151.630   -19518143.86149 -15114426.38749  21445153.4354   21445158.9464
  23750331.639    -8810411.724 9  -6852918.001 9  23750332.776    23750335.727
  23989162.704    -5494662.98549  -3718086.33249  23989165.0094   23989170.1454
  22124324.924    -7235675.95649  -5615788.20949  22124323.8284   22124330.2444
 96  8 11 18 22 59.9990000  0  7 16 22  6 17 28 23 10
  21165678.266   -23527502.97849 -18320691.71449  21165679.3314   21165683.7514
  23991761.928    -6482721.71149  -5030708.04949  23991760.9664   23991768.6424
  20041379.715   -27902779.92949 -21506426.65749  20041381.0494   20041385.6684
  21432013.885   -19587186.56449 -15168225.86449  21432015.2154   21432020.8214
  23731314.802    -8910344.447 9  -6930787.612 9  23731315.753    23731319.642
  23968127.107    -5605194.22149  -3804214.53949  23968131.2014   23968138.7484
  22137144.969    -7168312.80049  -5563297.45449  22137142.9724   22137148.7704
 96  8 11 18 23 29.9990000  0  7 16 22  6 17 28 23 10
  21172166.197   -23493400.89449 -18294118.66649  21172168.2494   21172173.2444
  23975619.326    -6567550.27749  -5096808.18749  23975618.4714   23975622.4154
  20039514.582   -27912589.31749 -21514070.33449  20039514.5524   20039518.6294
  21418930.385   -19655934.89549 -15221795.97549  21418932.4264   21418938.5354
  23712302.056    -9010259.623 9  -7008643.552 9  23712303.134    23712306.961
  23947113.499    -5715639.08649  -3890275.43649  23947114.9124   23947121.9444
  22150037.931    -7100536.43149  -5510484.72049  22150040.4684   22150046.0624
 96  8 11 18 23 59.9990000  0  7 16 22  6 17 28 23 10
  21178757.455   -23458767.26949 -18267131.42749  21178759.4714   21178764.1944
  23959531.210    -6652050.49149  -5162652.47549  23959535.7704   23959541.8024
  20037722.889   -27921993.40949 -21521398.19649  20037724.8384   20037729.0614
  21405904.410   -19724385.88449 -15275134.37549  21405906.5104   21405912.0764
  23693292.411    -9110162.412 9  -7086489.834 9  23693293.102    23693297.668
  23926116.938    -5826007.22449  -3976276.53649  23926113.6844   23926119.3524
  22163014.796    -7032365.14049  -5457364.24849  22163013.3404   22163018.9164
 96  8 11 18 24 29.9990000  0  7 16 22  6 17 28 23 10
  21185444.916   -23423628.28749 -18239750.39249  21185445.9074   21185450.5644
  23943514.585    -6736238.10649  -5228253.21549  23943517.2044   23943521.0064
  20036007.291   -27931004.47149 -21528419.79349  20036010.1694   20036014.1714
  21392933.020   -19792560.87049 -15328257.71849  21392933.1574   21392938.6224
  23674285.220    -9210053.789 9  -7164327.200 9  23674284.409    23674288.739
  23905121.198    -5936291.68049  -4062212.43449  23905126.5784   23905131.8664
  22176062.059    -6963789.08949  -5403928.37449  22176063.4574   22176068.1624
 96  8 11 18 24 59.9990000  0  7 16 22  6 17 28 23 10
  21192225.819   -23387985.75949 -18211976.99949  21192227.8414   21192233.3734
  23927557.651    -6820111.31149  -5293608.91149  23927555.4364   23927561.5584
  20034369.716   -27939621.01549 -21535133.98849  20034370.3824   20034374.6744
  21380007.797   -19860472.53449 -15381175.87449  21380010.0794   21380015.0494
  23655279.255    -9309922.756 9  -7242147.113 9  23655279.742    23655285.625
  23884157.245    -6046477.56449  -4148071.50749  23884158.6194   23884165.1324
  22189190.775    -6894809.30949  -5350177.91649  22189190.2614   22189194.6824
 96  8 11 18 25 29.9990000  0  7 16 22  6 17 28 23 10
  21199104.976   -23351832.18749 -18183805.37249  21199108.8764   21199113.0634
  23911654.952    -6903664.55949  -5358715.30349  23911657.1214   23911663.3524
  20032806.496   -27947834.81349 -21541534.33249  20032807.7554   20032811.7514
  21367136.383   -19928119.32349 -15433887.64649  21367137.8214   21367142.6924
  23636280.447    -9409757.594 9  -7319940.439 9  23636281.565    23636288.059
  23863212.837    -6156553.83949  -4233845.14749  23863211.4394   23863218.8784
  22202395.161    -6825415.22349  -5296104.61149  22202394.9894   22202400.6464
 96  8 11 18 25 59.9990000  0  8 16 22  6 17 28 23 26 10
  21206085.213   -23315169.88049 -18155237.34349  21206084.4794   21206089.5154
  23895818.008    -6986904.28049  -5423577.40049  23895817.9834   23895822.5844
  20031314.589   -27955667.50149 -21547637.73149  20031316.6374   20031320.9104
  21354308.887   -19995528.56549 -15486414.30249  21354309.8814   21354315.5104
  23617288.441    -9509566.006 9  -7397713.168 9  23617288.892    23617294.568
  23842278.682    -6266532.49149  -4319542.74549  23842283.3454   23842290.1164
  24271155.655    -2869800.14659  -1350478.76259  24271151.4364   24271152.7444
  22215677.316    -6755617.46549  -5241716.78149  22215677.1214   22215682.8564
 96  8 11 18 26 29.9990000  0  8 16 22  6 17 28 23 26 10
  21213152.530   -23278016.32049 -18126286.52349  21213154.8714   21213159.4114
  23880032.485    -7069853.60949  -5488213.18549  23880032.3864   23880036.9784
  20029889.582   -27963162.39149 -21553477.90249  20029890.8944   20029895.2884
  21341517.217   -20062736.14449 -15538783.81749  21341520.4164   21341526.3314
  23598296.186    -9609371.810 9  -7475483.893 9  23598295.930    23598302.661
  23821369.476    -6376450.03849  -4405192.74249  23821366.0734   23821373.1194
  24254256.250    -2958584.59349  -1419661.44849  24254255.4124   24254260.4334
  22229028.071    -6685442.37549  -5187034.91049  22229031.3314   22229036.6734
 96  8 11 18 26 59.9990000  0  8 16 22  6 17 28 23 26 10
  21220324.978   -23240331.45749 -18096921.68449  21220326.0424   21220331.2804
  23864303.800    -7152478.87249  -5552596.52249  23864309.5724   23864315.7984
  20028531.063   -27970295.64049 -21559036.27549  20028533.3164   20028537.6314
  21328775.266   -20129707.45249 -15590969.23149  21328776.9094   21328781.7344
  23579307.890    -9709154.761 9  -7553236.794 9  23579307.193    23579314.675
  23800463.014    -6486298.61149  -4490788.98049  23800463.1774   23800470.7594
  24237361.774    -3047292.28949  -1488784.25149  24237375.7064   24237382.6154
  22242455.024    -6614897.52449  -5132064.90749  22242455.8484   22242460.5144
 96  8 11 18 27 29.9990000  0  8 16 22  6 17 28 23 26 10
  21227604.982   -23202077.93149 -18067113.74749  21227605.4724   21227610.6754
  23848658.638    -7234746.81149  -5616701.39749  23848655.5424   23848661.2424
  20027252.554   -27977023.32849 -21564278.63149  20027253.1604   20027257.7474
  21316082.927   -20196398.04949 -15642935.91649  21316085.5204   21316091.0874
  23560326.295    -9808887.494 9  -7630950.562 9  23560328.253    23560335.437
  23779577.772    -6596043.45849  -4576304.39149  23779579.6364   23779586.0084
  24220522.502    -3135905.52149  -1557833.50449  24220515.7814   24220520.0004
  22255958.538    -6543942.62949  -5076775.38749  22255957.1784   22255961.7504
 96  8 11 18 27 59.9990000  0  8 16 22  6 17 28 23 26 10
  21234985.714   -23163273.13849 -18036876.24849  21234989.7374   21234995.0494
  23833062.476    -7316675.36749  -5680541.77649  23833062.1254   23833066.7174
  20026046.734   -27983364.41649 -21569219.73649  20026046.7504   20026051.0764
  21303439.937   -20262836.20949 -15694705.87749  21303442.8984   21303448.2904
  23541354.384    -9908591.896 9  -7708642.269 9  23541355.690    23541361.763
  23758709.908    -6705706.04049  -4661755.67849  23758711.1404   23758718.7894
  24203657.076    -3224446.30649  -1626826.29649  24203662.4714   24203670.3144
  22269530.811    -6472604.87749  -5021187.55449  22269532.3364   22269537.2594
 96  8 11 18 28 29.9990000  0  8 16 22  6 17 28 23 26 10
  21242475.713   -23123931.77949 -18006220.64949  21242476.3014   21242481.8944
  23817533.559    -7398259.49149  -5744113.82049  23817538.3074   23817542.0074
  20024911.014   -27989311.66349 -21573853.95149  20024914.3884   20024919.1774
  21290847.119   -20329017.13949 -15746275.41349  21290849.3154   21290854.9284
  23522384.814   -10008268.945 9  -7786312.661 9  23522386.923    23522393.734
  23737863.187    -6815274.93849  -4747133.96549  23737861.5074   23737866.9594
  24186842.370    -3312903.59259  -1695753.87359  24186826.4814   24186835.9534
  22283173.441    -6400890.35949  -4965306.12249  22283177.7594   22283183.8584
 96  8 11 18 28 59.9990000  0  8 16 22  6 17 28 23 26 10
  21250064.754   -23084057.20149 -17975149.55549  21250064.3574   21250069.0034
  23802088.527    -7479478.03559  -5807400.92159  23802084.6184   23802086.0084
  20023862.040   -27994847.38749 -21578167.50849  20023861.4334   20023865.7314
  21278307.245   -20394921.84149 -15797629.70049  21278307.9234   21278312.9884
  23503424.747   -10107915.783 9  -7863959.486 9  23503425.342    23503431.120
  23717031.105    -6924721.28849  -4832416.79149  23717033.6124   23717040.1134
  24170010.916    -3401263.93049  -1764606.03649  24170013.8414   24170021.9354
  22296897.227    -6328794.03949  -4909127.19849  22296898.1774   22296902.7854
 96  8 11 18 29 29.9990000  0  8 16 22  6 17 28 23 26 10
  21257745.256   -23043666.64149 -17943676.38749  21257749.5934   21257754.9314
  23786699.494    -7560325.49859  -5870398.90449  23786697.6144   23786705.6524
  20022881.272   -27999975.81249 -21582163.67149  20022885.1994   20022889.6964
  21265815.599   -20460559.92449 -15848776.25049  21265817.3454   21265823.4094
  23484461.669   -10207529.698 9  -7941580.646 9  23484467.967    23484474.222
  23696225.208    -7034029.04449  -4917591.63749  23696233.4294   23696238.8774
  24153225.182    -3489523.17549  -1833379.49249  24153222.8104   24153225.4404
  22310688.714    -6256307.80949  -4852644.44149  22310691.5874   22310697.2344
 96  8 11 18 29 59.9990000  0  8 16 22  6 17 28 23 26 10
  21265531.446   -23002771.00849 -17911809.67049  21265532.2884   21265538.0914
  23771375.520    -7640801.31549  -5933107.34049  23771380.7524   23771389.3104
  20021982.664   -28004714.47549 -21585856.13949  20021983.4144   20021987.8714
  21253375.270   -20525929.16349 -15899713.29349  21253377.8164   21253383.4014
  23465517.520   -10307107.780 9  -8019173.897 9  23465519.691    23465525.271
  23675457.998    -7143206.12949  -5002664.61649  23675457.6674   23675463.6684
  24136454.865    -3577659.61549  -1902057.21249  24136450.1594   24136452.0804
  22324554.026    -6183448.61749  -4795871.05849  22324556.4124   22324562.0874
 96  8 11 18 30 29.9990000  0  8 16 22  6 17 28 23 26 10
  21273408.189   -22961378.65249 -17879555.89849  21273409.1994   21273414.8684
  23756138.074    -7720908.28549  -5995528.34249  23756141.0704   23756145.2074
  20021152.041   -28009080.17849 -21589257.98649  20021153.0444   20021157.1544
  21240991.259   -20591009.48649 -15950425.20549  21240993.1174   21240999.5484
  23446576.238   -10406653.871 9  -8096742.230 9  23446577.037    23446581.040
  23654705.033    -7252249.89849  -5087633.72149  23654707.4024   23654714.4914
  24119680.169    -3665660.79249  -1970629.48349  24119702.2384   24119706.4624
  22338492.669    -6110218.00049  -4738808.25149  22338492.8444   22338497.5334
 96  8 11 18 30 59.9990000  0  8 16 22  6 17 28 23 26 10
  21281379.255   -22919479.47249 -17846907.19249  21281382.1394   21281387.3154
  23740966.948    -7800648.76359  -6057663.72049  23740968.0504   23740970.2584
  20020389.106   -28013076.26749 -21592371.81549  20020392.8184   20020396.6624
  21228663.522   -20655794.47849 -16000907.00149  21228665.5174   21228670.8644
  23427640.874   -10506163.101 9  -8174281.873 9  23427641.800    23427644.979
  23633979.111    -7361161.15949  -5172499.56449  23633982.7264   23633988.4334
  24102983.306    -3753525.82649  -2039095.60749  24102981.9024   24102989.3944
  22352503.245    -6036604.54249  -4681447.12849  22352500.8754   22352506.7934
 96  8 11 18 31 29.9990000  0  8 16 22  6 17 28 23 26 10
  21289450.671   -22877084.83149 -17813872.41749  21289449.7674   21289454.9754
  23725857.227    -7880053.17949  -6119537.24249  23725854.7584   23725864.4654
  20019699.682   -28016703.57349 -21595198.28749  20019702.2064   20019706.2474
  21216387.128   -20720304.11149 -16051174.23249  21216389.6634   21216395.0034
  23408712.313   -10605637.161 9  -8251794.084 9  23408712.217    23408716.017
  23613281.244    -7469956.32149  -5257274.94849  23613278.0444   23613285.6264
  24086291.958    -3841251.40749  -2107453.14549  24086288.8344   24086295.1284
  22366575.818    -5962617.74549  -4623795.08949  22366580.3024   22366586.5674
 96  8 11 18 31 59.9990000  0  8 16 22  6 17 28 23 26 10
  21297609.784   -22834177.83749 -17780438.40049  21297614.4924   21297620.1604
  23710808.460    -7959121.64149  -6181149.05049  23710809.4114   23710815.8204
  20019083.179   -28019952.44849 -21597729.88049  20019083.9264   20019088.6764
  21204168.356   -20784517.90749 -16101210.94849  21204169.8184   21204176.1854
  23389788.517   -10705070.800 9  -8329274.814 9  23389790.203    23389794.430
  23592596.415    -7578630.64949  -5341956.15549  23592598.2164   23592604.9714
  24069612.611    -3928839.33049  -2175703.41049  24069620.6674   24069627.2594
  22380736.131    -5888252.72549  -4565848.34849  22380731.7894   22380737.2674
 96  8 11 18 32 29.9990000  0  8 16 22  6 17 28 23 26 10
  21305879.515   -22790752.48049 -17746600.46749  21305877.8394   21305883.4704
  23695828.903    -8037840.00649  -6242488.00449  23695829.2554   23695837.2864
  20018537.757   -28022807.89049 -21599954.89649  20018540.5874   20018544.5524
  21192004.914   -20848435.41649 -16151016.76149  21192006.8764   21192012.9124
  23370878.944   -10804460.411 9  -8406721.210 9  23370877.323    23370882.117
  23571939.820    -7687171.09249  -5426533.05549  23571943.7464   23571951.6404
  24052984.705    -4016295.75049  -2243851.21449  24052977.2674   24052983.7434
  22394954.903    -5813503.91349  -4507602.53049  22394955.9264   22394961.6064
 96  8 11 18 32 59.9990000  0  8 16 22  6 17 28 23 26 10
  21314232.353   -22746826.41649 -17712372.37849  21314236.9554   21314242.0684
  23680916.478    -8116209.29849  -6303554.95249  23680916.9474   23680920.6604
  20018072.503   -28025260.88049 -21601866.31549  20018073.9024   20018078.2904
  21179893.009   -20912084.27149 -16200613.26249  21179894.7024   21179900.4524
  23351970.701   -10903812.629 9  -8484138.483 9  23351971.067    23351976.428
  23551309.476    -7795592.85949  -5511017.49349  23551311.7264   23551320.1414
  24036338.871    -4103651.69149  -2311920.73249  24036350.3914   24036358.2194
  22409251.519    -5738394.36749  -4449075.64449  22409248.4074   22409253.5354
 96  8 11 18 33 29.9990000  0  8 16 22  6 17 28 23 26 10
  21322694.170   -22702397.75949 -17677752.65749  21322692.1854   21322696.4094
  23666073.729    -8194200.90149  -6364327.61149  23666074.4774   23666081.3494
  20017682.813   -28027307.26249 -21603460.90249  20017684.5584   20017688.3124
  21167833.493   -20975450.73649 -16249989.70649  21167836.4274   21167842.0274
  23333074.531   -11003120.167 9  -8561520.935 9  23333074.069    23333078.733
  23530702.392    -7903891.03249  -5595405.58149  23530702.3654   23530711.2254
  24019754.972    -4190904.48249  -2379909.78049  24019750.4784   24019755.5324
  22423607.140    -5662936.71649  -4390277.49149  22423607.1804   22423612.8034
 96  8 11 18 33 59.9990000  0  8 16 22  6 17 28 23 26 10
  21331238.439   -22657470.85249 -17642744.67649  21331240.3024   21331246.0144
  23651311.231    -8271791.61049  -6424787.85749  23651311.8984   23651315.2814
  20017369.029   -28028955.34549 -21604745.12049  20017370.9834   20017375.0444
  21155831.565   -21038529.72949 -16299142.15149  21155833.1444   21155838.8044
  23314184.407   -11102383.107 9  -8638868.637 9  23314184.916    23314189.412
  23510113.551    -8012063.71849  -5679695.94049  23510119.2804   23510125.8244
  24003176.841    -4278054.91849  -2447819.18349  24003167.8074   24003172.9824
  22438027.738    -5587132.27949  -4331209.12249  22438032.0134   22438038.3684
 96  8 11 18 34 29.9990000  0  8 16 22  6 17 28 23 26 10
  21339879.809   -22612073.28349 -17607369.95949  21339879.3084   21339884.9554
  23636619.177    -8348991.76149  -6484943.78349  23636618.0004   23636627.5344
  20017131.135   -28030212.18649 -21605724.48249  20017131.3334   20017135.8824
  21143877.467   -21101345.73449 -16348089.66949  21143879.4154   21143885.1214
  23295302.765   -11201611.168 9  -8716189.155 9  23295302.397    23295307.274
  23489550.409    -8120121.41849  -5763896.66049  23489555.6554   23489563.3034
  23986587.001    -4365105.82749  -2515650.97649  23986601.7144   23986609.0604
  22452519.990    -5511005.15549  -4271889.30849  22452518.4594   22452525.2004
 96  8 11 18 34 59.9990000  0  8 16 22  6 17 28 23 26 10
  21348608.302   -22566197.61149 -17571622.68249  21348609.6834   21348614.5554
  23622000.952    -8425803.02949  -6544796.69149  23622002.9664   23622009.2444
  20016966.732   -28031072.91349 -21606395.17749  20016968.2134   20016972.3714
  21131976.766   -21163897.36249 -16396831.16149  21131976.8044   21131982.0644
  23276427.296   -11300796.652 9  -8793476.498 9  23276428.225    23276434.007
  23469011.996    -8228064.43149  -5848008.03549  23469015.5394   23469021.5214
  23970066.490    -4452040.50349  -2583392.24349  23970059.9234   23970065.0314
  22467064.384    -5434562.16649  -4212323.37049  22467065.5254   22467071.3554
 96  8 11 18 35 29.9990000  0  8 16 22  6 17 28 23 26 10
  21357430.847   -22519841.41349 -17535500.97749  21357430.9754   21357435.7254
  23607457.617    -8502243.26049  -6604360.43349  23607456.6134   23607461.7274
  20016874.683   -28031548.86449 -21606766.04449  20016877.9054   20016881.2204
  21120121.347   -21226189.08949 -16445370.15649  21120122.3154   21120128.3764
  23257561.545   -11399942.051 9  -8870732.620 9  23257561.621    23257566.984
  23448495.318    -8335895.15049  -5932031.90749  23448495.3984   23448502.5294
  23953550.526    -4538835.09449  -2651024.37949  23953542.8974   23953547.3734
  22481675.140    -5357799.03149  -4152507.95649  22481673.1124   22481679.2184
 96  8 11 18 35 59.9990000  0  8 16 22  6 17 28 23 26 10
  21366343.158   -22473003.54149 -17499003.94649  21366343.9124   21366348.5864
  23592980.573    -8578327.48049  -6663646.79149  23592980.1454   23592984.8664
  20016862.227   -28031623.49849 -21606824.20149  20016862.8144   20016867.3284
  21108314.560   -21288234.30849 -16493717.06449  21108315.9364   21108321.3494
  23238702.876   -11499040.975 9  -8947952.499 9  23238702.853    23238709.113
  23427996.962    -8443606.39749  -6015962.70349  23427999.0114   23428006.1804
  23937048.725    -4625468.71949  -2718531.00449  23937055.6694   23937062.3534
  22496344.028    -5280704.04049  -4092433.96849  22496344.1544   22496349.9144
 96  8 11 18 36 29.9990000  0  8 16 22  6 17 28 23 26 10
  21375349.664   -22425668.26249 -17462119.31249  21375350.9424   21375355.8694
  23578565.162    -8654045.09749  -6722647.50749  23578568.4044   23578577.7874
  20016927.583   -28031273.26149 -21606551.29149  20016929.6834   20016933.6274
  21096556.735   -21350016.79749 -16541859.23949  21096558.5624   21096564.6274
  23219854.143   -11598077.172 9  -9025123.496 9  23219856.682    23219863.743
  23407525.621    -8551186.22849  -6099791.07949  23407527.0544   23407534.0104
  23920615.528    -4711922.81849  -2785897.79249  23920602.8664   23920610.4434
  22511080.116    -5203268.91249  -4032094.92549  22511079.9364   22511085.1094
 96  8 11 18 36 59.9990000  0  8 16 22  6 17 28 23 26 10
  21384454.472   -22377837.61249 -17424848.67749  21384453.5344   21384458.4924
  23564230.900    -8729401.51049  -6781366.77149  23564230.6364   23564235.8554
  20017073.054   -28030511.54949 -21605957.75349  20017074.6004   20017078.5884
  21084849.599   -21411548.32449 -16589805.86949  21084850.3084   21084855.6424
  23201021.612   -11697059.263 9  -9102252.344 9  23201019.746    23201028.083
  23387078.305    -8658646.82249  -6183526.55349  23387078.2004   23387084.5804
  23904187.333    -4798208.60549  -2853133.42149  23904184.7904   23904192.2014
  22525879.893    -5125491.94149  -3971489.52449  22525879.4954   22525885.1214
 96  8 11 18 37 29.9990000  0  8 16 22  6 17 28 23 26 10
  21393643.303   -22329527.34349 -17387204.32149  21393646.3834   21393652.2214
  23549962.337    -8804391.20049  -6839800.26249  23549959.9594   23549965.0324
  20017298.209   -28029333.49349 -21605039.78349  20017298.6384   20017303.1114
  21073186.402   -21472824.54849 -16637553.55849  21073189.0434   21073194.9234
  23182191.655   -11795986.651 9  -9179338.587 9  23182194.753    23182201.805
  23366654.581    -8765977.55249  -6267160.81649  23366653.6364   23366659.6464
  23887770.305    -4884327.73249  -2920239.21249  23887795.6154   23887802.4944
  22540749.635    -5047365.87249  -3910612.09249  22540746.8404   22540752.0924
 96  8 11 18 37 59.9990000  0  8 16 22  6 17 28 23 26 10
  21402932.409   -22280740.09549 -17349188.28349  21402930.4624   21402935.9004
  23535759.169    -8878998.03349  -6897935.43649  23535762.3134   23535766.6834
  20017601.808   -28027733.54449 -21603793.07649  20017603.5964   20017607.5424
  21061580.250   -21533829.71449 -16685090.03949  21061580.6304   21061585.7344
  23163380.123   -11894854.994 9  -9256378.822 9  23163380.823    23163388.307
  23346256.615    -8873167.21849  -6350685.16749  23346256.9384   23346262.6944
  23871415.331    -4970286.73049  -2987220.17549  23871437.9204   23871446.1864
  22555677.223    -4968897.69549  -3849468.07949  22555679.1704   22555683.6404
 96  8 11 18 38 29.9990000  0  8 16 22  6 17 28 23 26 10
  21412304.851   -22231464.60449 -17310791.80649  21412307.4604   21412311.7914
  23521641.246    -8953212.44349  -6955764.79449  23521640.9514   23521647.4184
  20017987.647   -28025712.16849 -21602217.97949  20017988.4704   20017992.1034
  21050026.661   -21594544.31249 -16732400.08249  21050027.1424   21050032.2494
  23144577.223   -11993659.607 9  -9333369.368 9  23144578.997    23144586.045
  23325883.703    -8980212.16449  -6434096.72949  23325886.1504   23325892.0694
  23855122.295    -5056092.45649  -3054081.72649  23855111.2344   23855116.3764
  22570677.765    -4890084.85449  -3788055.50049  22570676.5834   22570681.5224
 96  8 11 18 38 59.9990000  0  8 16 22  6 17 28 23 26 10
  21421779.135   -22181691.69649 -17272007.71249  21421778.9424   21421782.9334
  23507591.961    -9027023.51049  -7013279.91649  23507593.9704   23507602.0394
  20018450.727   -28023269.24549 -21600314.40249  20018452.3234   20018457.1664
  21038528.629   -21654963.30849 -16779479.80249  21038529.4524   21038535.2134
  23125791.497   -12092393.901 9  -9410305.144 9  23125791.433    23125796.920
  23305546.618    -9087087.42049  -6517376.07249  23305548.4144   23305554.6794
  23838835.376    -5141734.29949  -3120815.60749  23838815.2074   23838819.9054
  22585739.265    -4810928.48549  -3726375.23249  22585739.4914   22585744.9034
 96  8 11 18 39 29.9990000  0  8 16 22  6 17 28 23 26 10
  21431334.544   -22131455.40849 -17232862.55749  21431337.9484   21431343.3014
  23493626.433    -9100434.03149  -7070482.87849  23493625.9304   23493628.2454
  20018992.464   -28020422.58949 -21598096.23649  20018994.4844   20018998.7614
  21027084.921   -21715094.67449 -16826335.39849  21027087.3374   21027092.3664
  23107011.740   -12191071.038 9  -9487196.377 9  23107013.727    23107019.075
  23285242.820    -9193791.06549  -6600521.68449  23285242.1784   23285249.5064
  23822548.687    -5227217.99049  -3187426.23249  23822548.3404   23822553.3584
  22600860.383    -4731450.83349  -3664444.62949  22600864.1554   22600868.9144
 96  8 11 18 39 59.9990000  0  8 16 22  6 17 28 23 26 10
  21440989.027   -22080743.52249 -17193346.81049  21440988.7274   21440993.8504
  23479730.322    -9173438.78949  -7127369.64449  23479731.1704   23479736.9204
  20019610.849   -28017176.20649 -21595566.59149  20019612.5854   20019616.4234
  21015696.907   -21774947.86049 -16872974.22249  21015697.2964   21015702.9914
  23088245.277   -12289687.599 9  -9564040.402 9  23088247.777    23088252.253
  23264971.467    -9300323.08249  -6683533.57049  23264971.0244   23264977.6234
  23806291.433    -5312534.61849  -3253906.66749  23806310.5614   23806319.0994
  22616047.229    -4651657.84949  -3602268.29149  22616048.0544   22616053.1524
 96  8 11 18 40 29.9990000  0  8 16 22  6 17 28 23 26 10
  21450726.551   -22029563.01049 -17153465.89049  21450727.6794   21450733.6274
  23465916.984    -9246025.72149  -7183930.87949  23465920.1344   23465927.3504
  20020303.239   -28013528.82649 -21592724.47749  20020306.2504   20020310.5084
  21004358.166   -21834534.01149 -16919404.96949  21004359.0364   21004363.7974
  23069493.585   -12388242.273 9  -9640836.197 9  23069492.825    23069497.000
  23244731.987    -9406667.24049  -6766399.09249  23244734.4024   23244739.6354
  23790094.998    -5397676.81549  -3320251.20649  23790108.2424   23790116.6844
  22631292.992    -4571550.80249  -3539847.23849  22631291.7344   22631297.7344
 96  8 11 18 40 59.9990000  0  8 16 22  6 17 28 23 26 10
  21460553.926   -21977923.73449 -17113227.50849  21460554.7614   21460559.6764
  23452191.286    -9318181.47649  -7240156.06949  23452189.7374   23452194.6524
  20021073.766   -28009481.73649 -21589570.90249  20021076.7444   20021080.8684
  20993067.902   -21893855.17449 -16965629.23349  20993069.7874   20993075.7064
  23050751.361   -12486724.581 9  -9717575.613 9  23050752.496    23050755.404
  23224537.478    -9512801.56249  -6849101.10949  23224538.6254   23224543.0854
  23773951.634    -5482626.51849  -3386445.77649  23773944.6184   23773948.6864
  22646593.175    -4491130.90749  -3477182.40349  22646594.8684   22646600.0024
 96  8 11 18 41 29.9990000  0  8 16 22  6 17 28 23 26 10
  21470467.470   -21925822.20649 -17072628.92049  21470469.1694   21470473.6894
  23438535.782    -9389910.06049  -7296048.42549  23438538.2724   23438543.4234
  20021922.542   -28005033.72849 -21586104.92349  20021923.1364   20021927.2924
  20981831.873   -21952911.36949 -17011647.02849  20981832.3024   20981837.1444
  23032027.191   -12585127.154 9  -9794252.911 9  23032026.646    23032030.317
  23204376.615    -9618739.34949  -6931649.98449  23204378.2904   23204384.9314
  23757818.898    -5567376.26849  -3452484.54649  23757818.5824   23757822.1154
  22661965.317    -4410382.16149  -3414261.33349  22661961.3314   22661966.0884
 96  8 11 18 41 59.9990000  0  8 16 22  6 17 28 23 26 10
  21480474.734   -21873232.93349 -17031650.26949  21480476.8684   21480480.7874
  23424969.731    -9461221.49549  -7351615.73149  23424969.8184   23424975.6264
  20022846.110   -28000172.08649 -21582316.62649  20022848.2854   20022852.7384
  20970643.720   -22011698.48049 -17057455.13249  20970644.9664   20970650.0844
  23013314.927   -12683441.230 9  -9870861.232 9  23013317.696    23013321.613
  23184254.890    -9724481.99649  -7014046.82249  23184256.3204   23184262.6624
  23741728.800    -5651928.16649  -3518369.09249  23741727.7444   23741732.4334
  22677385.087    -4329301.13749  -3351081.32949  22677389.9284   22677395.1064
 96  8 11 18 42 29.9990000  0  8 16 22  6 17 28 23 26 10
  21490571.570   -21820175.48049 -16990306.80449  21490572.8754   21490577.4014
  23411476.062    -9532133.45749  -7406871.76449  23411476.8724   23411482.1954
  20023845.483   -27994914.02649 -21578219.44149  20023848.7244   20023853.2464
  20959508.068   -22070219.66149 -17103056.05249  20959509.2234   20959514.4204
  22994627.377   -12781675.962 9  -9947407.742 9  22994625.097    22994628.955
  23164166.881    -9830039.95449  -7096299.73649  23164168.0414   23164175.0544
  23725683.893    -5736297.51249  -3584111.37449  23725669.4654   23725676.8364
  22692878.310    -4247900.75149  -3287652.48149  22692880.0714   22692884.6774
 96  8 11 18 42 59.9990000  0  8 16 22  6 17 28 23 26 10
  21500754.118   -21766653.13749 -16948601.08449  21500757.6494   21500763.1884
  23398050.685    -9602668.95449  -7461834.47049  23398051.2924   23398057.4084
  20024922.631   -27989267.69249 -21573819.69249  20024923.4824   20024927.4424
  20948421.417   -22128476.77749 -17148451.18749  20948422.8764   20948428.3754
  22975943.495   -12879837.776 9 -10023897.418 9  22975944.583    22975949.836
  23144108.487    -9935452.88049  -7178439.63549  23144108.8584   23144116.0254
  23709644.671    -5820494.21349  -3649719.11849  23709648.5814   23709653.5474
  22708431.622    -4166181.12649  -3223974.86749  22708431.4994   22708435.5874
 96  8 11 18 43 29.9990000  0  8 16 22  6 17 28 23 26 10
  21511034.928   -21712653.59349 -16906523.53649  21511033.7434   21511039.5224
  23384702.898    -9672815.30249  -7516493.94149  23384705.7144   23384707.8634
  20026075.265   -27983205.20949 -21569095.67649  20026076.8374   20026080.9034
  20937388.261   -22186454.89749 -17193628.91249  20937390.0804   20937395.4244
  22957279.441   -12977921.183 9 -10100326.011 9  22957280.261    22957285.346
  23124077.756   -10040725.12449  -7260469.91849  23124076.6524   23124083.2594
  23693658.693    -5904515.23049  -3715190.02949  23693663.1084   23693665.4464
  22724043.385    -4084143.19449  -3160049.22549  22724043.0104   22724047.1684
 96  8 11 18 43 59.9990000  0  8 16 22  6 17 28 23 26 10
  21521399.964   -21658181.14049 -16864077.48249  21521399.4594   21521404.9684
  23371435.839    -9742551.79949  -7570833.99749  23371434.7224   23371439.3724
  20027313.012   -27976709.21949 -21564033.87449  20027312.9094   20027317.2174
  20926413.113   -22244134.38049 -17238573.94249  20926413.8464   20926419.4954
  22938630.882   -13075922.430 9 -10176690.570 9  22938631.407    22938636.299
  23104072.684   -10145844.11949  -7342380.77549  23104073.7154   23104079.3924
  23677713.974    -5988357.34149  -3780521.56649  23677709.7444   23677713.5884
  22739705.747    -4001804.28349  -3095889.04149  22739711.3524   22739715.7464
 96  8 11 18 44 29.9990000  0  8 16 22  6 17 28 23 26 10
  21531850.572   -21603255.66749 -16821278.41549  21531851.8894   21531856.5784
  23358239.128    -9811867.02549  -7624845.86149  23358242.0764   23358251.8204
  20028627.481   -27969788.61349 -21558641.19649  20028630.1284   20028634.2384
  20915492.566   -22301516.89149 -17283287.56449  20915493.7704   20915499.8064
  22919998.347   -13173847.974 9 -10252996.143 9  22919997.375    22920002.096
  23084092.741   -10250822.00349  -7424181.66649  23084096.6424   23084103.1064
  23661788.891    -6072014.74949  -3845709.12649  23661786.8854   23661793.6954
  22755439.733    -3919172.72349  -3031500.82849  22755435.5144   22755439.5104
 96  8 11 18 44 59.9990000  0  8 16 22  6 17 28 23 26 10
  21542395.908   -21547854.97749 -16778109.05549  21542393.8924   21542398.5434
  23345140.914    -9880729.21449  -7678504.70049  23345140.3564   23345144.4834
  20030033.459   -27962408.71549 -21552890.62349  20030034.5664   20030038.5864
  20904635.039   -22358572.08149 -17327746.15049  20904637.2594   20904642.4194
  22901381.181   -13271671.862 9 -10329222.497 9  22901381.395    22901385.767
  23064155.943   -10355625.89449  -7505846.97749  23064152.8294   23064158.9524
  23645903.080    -6155453.03149  -3910725.82249  23645906.6294   23645915.7244
  22771216.214    -3836225.47849  -2966866.63349  22771219.4214   22771223.8094
 96  8 11 18 45 29.9990000  0  8 16 22  6 17 28 23 26 10
  21553016.275   -21492004.98549 -16734589.58749  21553021.7144   21553026.5094
  23332117.733    -9949140.58649  -7731812.19949  23332120.5474   23332123.1694
  20031520.700   -27954589.31749 -21546797.58949  20031522.4314   20031526.4954
  20893837.968   -22415320.76049 -17371965.87649  20893838.4994   20893844.1424
  22882781.905   -13369409.577 9 -10405381.735 9  22882783.214    22882786.481
  23044244.201   -10460242.06649  -7587366.02249  23044244.8354   23044251.5034
  23630059.782    -6238678.04949  -3975576.45649  23630073.0424   23630078.2334
  22787056.285    -3752998.29649  -2902014.29649  22787056.9424   22787062.4304
 96  8 11 18 45 59.9990000  0  8 16 22  6 17 28 23 26 10
  21563739.016   -21435704.16349 -16690718.82249  21563735.8414   21563740.4294
  23319187.681   -10017103.75649  -7784770.48649  23319188.8314   23319194.7434
  20033091.766   -27946347.22449 -21540375.17849  20033090.9414   20033095.2814
  20883095.497   -22471765.87749 -17415949.06949  20883097.4754   20883102.7714
  22864200.173   -13467055.603 9 -10481469.490 9  22864201.202    22864204.354
  23024370.255   -10564661.39549  -7668731.68049  23024372.9154   23024380.7694
  23614283.946    -6321675.75149  -4040249.97749  23614280.0204   23614284.4994
  22802949.690    -3669480.07949  -2836935.18549  22802949.3684   22802955.8404
 96  8 11 18 46 29.9990000  0  8 16 22  6 17 28 23 26 10
  21574528.896   -21378957.08849 -16646500.33849  21574533.9564   21574538.9564
  23306336.139   -10084634.24149  -7837391.60049  23306337.8724   23306344.0364
  20034735.415   -27937692.76049 -21533631.44149  20034737.9874   20034742.0624
  20872408.248   -22527929.54949 -17459712.93149  20872409.8304   20872414.8894
  22845637.465   -13564611.022 9 -10557486.655 9  22845637.710    22845640.535
  23004543.542   -10668885.73549  -7749945.38849  23004542.1934   23004547.4004
  23598523.395    -6404439.25849  -4104741.01549  23598530.4364   23598534.9464
  22818898.111    -3585672.13349  -2771630.33349  22818898.0194   22818903.3104
 96  8 11 18 46 59.9990000  0  8 16 22  6 17 28 23 26 10
  21585417.213   -21321765.31549 -16601935.32549  21585416.7044   21585423.1594
  23293565.418   -10151738.39149  -7889680.53049  23293566.9824   23293574.2304
  20036462.340   -27928621.80149 -21526563.16649  20036464.1064   20036468.3134
  20861773.466   -22583814.70549 -17503259.79149  20861774.4624   20861780.4474
  22827090.885   -13662071.176 9 -10633429.585 9  22827091.178    22827094.376
  22984747.226   -10772892.15649  -7830989.30849  22984749.5714   22984756.7664
  23582828.102    -6486964.02249  -4169045.97349  23582825.6924   23582830.1074
  22834899.093    -3501584.57149  -2706107.56949  22834899.6074   22834904.1594
 96  8 11 18 47 29.9990000  0  8 16 22  6 17 28 23 26 10
  21596379.353   -21264142.66149 -16557034.57549  21596382.2214   21596387.9604
  23280874.924   -10218438.86049  -7941654.88549  23280875.1034   23280880.0224
  20038264.890   -27919149.01849 -21519181.78049  20038266.5534   20038270.9254
  20851188.357   -22639439.90749 -17546604.09549  20851190.0114   20851195.2544
  22808563.379   -13759449.986 9 -10709309.147 9  22808561.570    22808563.071
  22964993.076   -10876712.93549  -7911888.55349  22964993.5284   22964999.0144
  23567159.337    -6569271.30849  -4233181.44049  23567161.1194   23567167.9854
  22850947.570    -3417230.46949  -2640377.12249  22850951.3434   22850957.1274
 96  8 11 18 47 59.9990000  0  8 16 22  6 17 28 23 26 10
  21607433.957   -21206061.50549 -16511776.54149  21607434.9264   21607440.3184
  23268262.612   -10284720.65749  -7993303.00749  23268263.3204   23268267.4184
  20040151.701   -27909239.53449 -21511460.10949  20040152.1644   20040156.5014
  20840659.804   -22694766.35249 -17589715.60349  20840661.3984   20840666.9544
  22790051.541   -13856713.887 9 -10785099.159 9  22790052.375    22790055.154
  22945271.561   -10980335.41949  -7992633.30549  22945275.2084   22945279.9874
  23551553.897    -6651331.46849  -4297124.35149  23551546.9294   23551552.8914
  22867062.919    -3332575.49449  -2574412.24649  22867061.4744   22867066.5784
 96  8 11 18 48 29.9990000  0  8 16 22  6 17 28 23 26 10
  21618569.902   -21147562.55449 -16466192.94849  21618567.7634   21618571.9784
  23255725.055   -10350607.62549  -8044643.46849  23255724.8144   23255731.4644
  20042115.735   -27898908.42049 -21503409.89849  20042118.1734   20042122.4444
  20830184.764   -22749817.36349 -17632612.47049  20830185.7814   20830191.1374
  22771563.116   -13953886.081 9 -10860817.711 9  22771561.696    22771563.581
  22925592.421   -11083785.12249  -8073243.39549  22925588.6584   22925594.3494
  23535965.382    -6733177.31949  -4360900.26549  23535972.6444   23535978.7414
  22883220.989    -3247647.74649  -2508234.80549  22883222.2714   22883228.4244
 96  8 11 18 48 59.9990000  0  8 16 22  6 17 28 23 26 10
  21629782.912   -21088625.15949 -16420267.72849  21629782.7354   21629787.2324
  23243269.822   -10416062.74749  -8095647.44749  23243267.3334   23243274.6104
  20044166.775   -27888136.97749 -21495016.57049  20044167.6094   20044172.1344
  20819767.867   -22804562.96949 -17675271.34849  20819768.3744   20819773.3184
  22753089.587   -14050947.846 9 -10936450.225 9  22753091.143    22753093.354
  22905936.684   -11187048.96449  -8153708.67349  22905937.5294   22905944.2884
  23520440.548    -6814797.12749  -4424500.04749  23520441.7514   23520447.0954
  22899435.986    -3162421.12349  -2441824.46549  22899439.6384   22899445.9484
 96  8 11 18 49 29.9990000  0  8 16 22  6 17 28 23 26 10
  21641084.439   -21029238.53449 -16373992.43449  21641083.5004   21641088.5664
  23230896.054   -10481064.91449  -8146298.48949  23230898.4424   23230903.2464
  20046299.639   -27876920.25549 -21486276.27749  20046301.9484   20046306.6174
  20809408.220   -22858996.26449 -17717686.88349  20809409.9304   20809415.0924
  22734643.500   -14147885.693 9 -11011986.159 9  22734644.524    22734647.541
  22886321.170   -11290132.55449  -8234033.47549  22886321.7444   22886328.0074
  23504950.895    -6896172.83749  -4487909.59949  23504954.2844   23504959.2434
  22915722.694    -3076888.66349  -2375175.82349  22915716.2804   22915721.6234
 96  8 11 18 49 59.9990000  0  8 16 22  6 17 28 23 26 10
  21652463.950   -20969431.15249 -16327389.30649  21652464.2814   21652469.4164
  23218615.729   -10545606.61649  -8196590.65149  23218616.8854   23218621.1594
  20048517.394   -27865279.90249 -21477205.88549  20048517.7064   20048521.2694
  20799104.101   -22913141.58049 -17759878.02349  20799105.9344   20799111.2964
  22716215.545   -14244717.218 9 -11087439.255 9  22716217.832    22716221.884
  22866737.130   -11393032.10249  -8314214.88849  22866741.0184   22866746.5894
  23489522.578    -6977317.78149  -4551139.34949  23489514.8534   23489518.8574
  22932044.805    -2991087.40849  -2308317.73749  22932044.1624   22932049.6764
 96  8 11 18 50 29.9990000  0  8 16 22  6 17 28 23 26 10
  21663923.527   -20909197.60449 -16280454.08049  21663926.3574   21663931.8334
  23206425.090   -10609672.44349  -8246512.04349  23206426.5214   23206433.5884
  20050809.301   -27853225.69749 -21467812.99649  20050811.4854   20050815.4044
  20788850.017   -22967028.62249 -17801867.91049  20788851.1814   20788856.9084
  22697810.130   -14341452.077 9 -11162817.029 9  22697809.740    22697814.992
  22847197.097   -11495737.91449  -8394245.33249  22847197.2744   22847202.6564
  23474119.865    -7058237.04449  -4614193.25749  23474116.1614   23474120.8074
  22948421.017    -2905023.27449  -2241254.80449  22948421.6164   22948428.1304
